     2.11           OBSERVATION DATA    G (GPS)             RINEX VERSION / TYPE
teqc 2010Oct21 OPUS Account 20111025 14:58:02UTC            PGM / RUN BY / DATE
N 1521                                                      MARKER NAME
1141                                                        MARKER NUMBER
CSMIDDLETON NGS                                             OBSERVER / AGENCY
0220320152 TRIMBLE 5700 2.01                                REC # / TYPE / VERS
12214372 TRM41249.00 NONE                                   ANT # / TYPE
  -737755.0679 -5467932.4146  3189230.4958                  APPROX POSITION XYZ
        2.0000        0.0000        0.0000                  ANTENNA: DELTA H/E/N
     1     1                                                WAVELENGTH FACT L1/2
     5    L1    L2    C1    P1    P2                        # / TYPES OF OBSERV
    15                                                      LEAP SECONDS
  2011     7    24    14    23    0.0000000     GPS         TIME OF FIRST OBS
                                                            END OF HEADER
 11  7 24 14 23  0.0000000  0  7G14G16G20G23G24G31G32
     40287.89856     19509.90653  23764410.0164                   23764408.8054
   -164249.85258   -101093.04755  21513996.1094                   21513991.5474
   -115486.35957    -61997.60956  21336077.2894                   21336073.6764
   -148300.00057    -93184.57054  23257801.6564                   23257797.1994
     46948.50057     23260.23054  23523184.0234                   23523184.1374
     58958.99258     30400.66456  21728971.5634                   21728967.6684
    -58603.59458    -38950.02756  20670909.4224                   20670906.4064
 11  7 24 14 23 30.0000000  0  7G14G16G20G23G24G31G32
     73083.44546     45064.80543  23770650.8834                   23770649.3014
   -278990.52348   -190501.33645  21492161.2344                   21492157.2774
   -196181.34847   -124876.81246  21320721.3594                   21320718.6054
   -251490.07047   -173592.38744  23238165.1644                   23238160.8674
     79013.37547     48245.79344  23529285.4534                   23529284.4494
     99328.33248     61857.25846  21736653.9224                   21736650.4804
    -99765.44548    -71024.21146  20663076.2974                   20663073.4224
 11  7 24 14 24  0.0000000  0  7G14G16G20G23G24G31G32
    105761.10546     70527.86743  23776868.6954                   23776867.5634
   -393618.97748   -279822.19545  21470347.7584                   21470344.1564
   -276659.44948   -187587.02046  21305407.1644                   21305403.6414
   -354975.02047   -254230.00844  23218473.5474                   23218468.0864
    111003.80147     73173.34844  23535372.4774                   23535371.5044
    139532.06348     93184.80546  21744304.1254                   21744300.7304
   -140702.16048   -102922.96146  20655286.6254                   20655283.4774
 11  7 24 14 24 30.0000000  0  7G14G16G20G23G24G31G32
    138425.74646     95980.78543  23783084.8054                   23783083.2234
   -508028.24648   -368972.25845  21448576.4694                   21448572.7854
   -356814.44548   -250045.45346  21290153.8834                   21290150.5984
   -458649.57047   -335015.33644  23198744.0784                   23198739.5634
    143021.32446     98122.03943  23541464.6254                   23541463.0274
    179672.60548    124463.10946  21751942.6804                   21751939.4224
   -181308.72748   -134564.45346  20647559.5784                   20647556.3484
 11  7 24 14 25  0.0000000  0  7G14G16G20G23G24G31G32
    171119.38746    121456.28143  23789306.3594                   23789304.4654
   -622173.52348   -457916.61345  21426855.3364                   21426851.5204
   -436602.28548   -312217.78946  21274970.9844                   21274967.6804
   -562471.46547   -415915.47744  23178987.4844                   23178983.3094
    175104.88346    123122.12543  23547570.5704                   23547569.5824
    219790.00448    155723.39546  21759576.6644                   21759573.7734
   -221542.08648   -165915.12146  20639903.1414                   20639900.2544
 11  7 24 14 25 30.0000000  0  7G14G16G20G23G24G31G32
   1779276.45346   1374565.61743  24095328.6174                   24095327.0824
    839387.16448    680961.85246  21704981.1564                   21704977.3914
   1059416.60948    853511.21546  21559653.9224                   21559650.4224
    908998.46547    730684.50844  23458999.1334                   23458994.6884
   1782685.63746   1375782.37544  23853483.3984                   23853483.1884
   1835316.19948   1414574.94546  22067001.2194                   22066997.8164
   1314034.70348   1030638.19946  20932113.7424                   20932110.7934
 11  7 24 14 26  0.0000000  0  7G14G16G20G23G24G31G32
   1812068.34846   1400117.68043  24101569.0314                   24101566.6954
    725818.13348    592466.52346  21683369.7734                   21683366.1414
    980407.80947    791945.91046  21544618.9144                   21544615.3794
    804923.02047    649586.77344  23439193.8754                   23439189.6804
   1814931.88747   1400909.24644  23859620.7584                   23859619.8524
   1875421.44947   1445825.75846  22074633.1414                   22074630.0004
   1274589.09448    999901.35946  20924607.4064                   20924604.7154
 11  7 24 14 26 30.0000000  0  7G14G16G20G23G24G31G32
   1844920.40646   1425716.63343  24107819.6884                   24107818.6524
    612551.60948    504206.90646  21661816.1334                   21661812.5704
    901801.52748    730694.26246  21529660.5474                   21529657.1644
    700731.85547    568398.88344  23419366.7504                   23419362.4654
   1847265.35947   1426104.09844  23865773.3674                   23865773.3754
   1915528.14148   1477077.70346  22082264.9844                   22082261.8164
   1235549.00848    969480.49646  20917178.3594                   20917175.4454
 11  7 24 14 27  0.0000000  0  7G14G16G20G23G24G31G32
   1877837.95746   1451366.64543  24114083.6644                   24114082.4694
    499595.43848    416189.12546  21640321.0474                   21640317.8444
    823604.34048    669761.39146  21514780.2814                   21514776.5004
    596430.94147    487125.47744  23399518.8754                   23399514.2344
   1879688.59446   1451368.88344  23871943.0864                   23871943.0434
   1955639.52347   1508333.28946  22089897.8984                   22089894.8364
   1196920.26248    939380.16446  20909827.4384                   20909824.5164
 11  7 24 14 27 30.0000000  0  7G14G16G20G23G24G31G32
   1910825.39546   1477071.09043  24120362.3134                   24120360.4694
    386956.60248    328418.61346  21618886.5864                   21618882.9654
    745822.30948    609152.01246  21499979.0944                   21499975.2194
    492024.83647    405770.10944  23379651.0314                   23379646.5704
   1912202.44946   1476704.29344  23878129.4304                   23878129.2384
   1995757.99248   1539594.40246  22097532.3984                   22097528.6294
   1158707.84848    909604.24646  20902555.9614                   20902552.8754
 11  7 24 14 28  0.0000000  0  7G14G16G20G23G24G31G32
   1943887.38346   1502833.62543  24126653.3674                   24126652.5314
    274642.60248    240901.23046  21597513.8204                   21597510.5124
    668462.34048    548871.51646  21485257.7194                   21485254.0784
    387519.01247    324337.02344  23359764.4534                   23359759.0634
   1944808.81246   1502111.82843  23884333.8444                   23884332.7034
   2035886.57847   1570863.39546  22105168.7814                   22105164.9964
   1120916.86748    880156.71146  20895364.6024                   20895361.9804
 11  7 24 14 28 30.0000000  0  7G14G16G20G23G24G31G32
   1977031.40246   1528660.09043  24132959.9774                   24132959.3874
    162663.20748    153644.57846  21576204.8834                   21576200.8834
    591532.57848    488926.26246  21470618.5394                   21470614.9774
    282920.98847    242832.09444  23339859.9224                   23339855.0984
   1977511.71146   1527594.47743  23890557.7584                   23890555.2894
   2076030.59848   1602144.42246  22112807.8284                   22112804.2734
   1083555.25048    851043.76246  20888254.9534                   20888252.1024
 11  7 24 14 29  0.0000000  0  7G14G16G20G23G24G31G32
   2010263.65646   1554555.31643  24139284.1644                   24139283.2114
     51026.95748     66655.29746  21554961.3834                   21554957.3554
    515040.93448    429322.37546  21456062.5634                   21456058.5434
    178237.16847    161260.32045  23319939.5864                   23319934.4884
   2010314.02347   1553154.65644  23896800.6174                   23896798.4734
   2116193.86348   1633440.44546  22120450.6884                   22120447.2424
   1046629.60248    822270.51246  20881228.2814                   20881225.2774
 11  7 24 14 29 30.0000000  0  7G14G16G20G23G24G31G32
   2043587.11346   1580521.57043  24145625.5864                   24145624.2234
    -60260.59048    -20062.28946  21533783.9144                   21533779.9494
    438991.64848    370063.18046  21441590.8914                   21441587.5554
     73471.02347     79624.35945  23300003.1484                   23299997.9384
   2043215.64547   1578792.19944  23903061.5784                   23903060.6644
   2156377.55148   1664752.34846  22128097.5864                   22128094.0434
   1010143.10548    793839.44946  20874285.1484                   20874282.1484
 11  7 24 14 30  0.0000000  0  7G14G16G20G23G24G31G32
   2077005.03946   1606561.45743  24151984.9614                   24151983.0204
   -171193.89547   -106503.81646  21512673.7814                   21512670.0204
    363389.79348    311152.64546  21427204.2974                   21427200.9844
    -31373.68047     -2072.79344  23280052.0474                   23280046.7734
   2076216.67247   1604507.23844  23909342.0314                   23909340.6604
   2196582.91448   1696081.18046  22135748.0704                   22135745.0944
    974099.60248    765753.59846  20867426.3834                   20867423.1604
 11  7 24 14 30 30.0000000  0  7G14G16G20G23G24G31G32
   2110522.13346   1632678.62543  24158363.1954                   24158361.3054
   -281765.58248   -192663.55946  21491632.6724                   21491629.3134
    288240.93448    252595.09846  21412903.9224                   21412900.3754
   -136292.01247    -83827.31245  23260086.9924                   23260082.0704
   2109318.56647   1630300.84844  23915640.3524                   23915639.3634
   2236812.63348   1727428.98046  22143403.8134                   22143400.4924
    938504.06348    738016.80946  20860652.5634                   20860649.6994
 11  7 24 14 31  0.0000000  0  7G14G16G20G23G24G31G32
   2144142.77746   1658876.48843  24164760.9144                   24164759.6564
   -391968.91448   -278536.26246  21470662.0944                   21470657.9924
    213551.10948    194395.23846  21398690.9064                   21398687.3874
   -241278.72747   -165635.11344  23240108.4924                   23240103.8914
   2142522.66847   1656174.11344  23921958.5554                   23921958.1094
   2277069.24648   1758797.74646  22151064.3284                   22151061.2194
    903361.50848    710632.98846  20853965.1724                   20853962.1524
 11  7 24 14 31 30.0000000  0  7G14G16G20G23G24G31G32
   2177870.98446   1685158.14843  24171178.7504                   24171177.8014
   -501797.43048   -364116.90646  21449762.1884                   21449758.4574
    139325.58248    136557.16846  21384566.0704                   21384562.7074
   -346329.77747   -247493.03945  23220117.9614                   23220113.6414
   2175829.65246   1682127.55144  23928296.9304                   23928296.5004
   2317354.75848   1790189.02746  22158730.5004                   22158727.1024
    868676.22348    683605.48846  20847364.6254                   20847361.9964
 11  7 24 14 32  0.0000000  0  7G14G16G20G23G24G31G32
   2211708.93046   1711525.32843  24177618.2974                   24177616.4924
   -611246.47748   -449401.85246  21428934.8674                   21428931.2854
     65568.02048     79083.74646  21370530.4064                   21370526.8054
   -451442.64847   -329399.12945  23200115.5704                   23200111.3204
   2209238.44546   1708160.30544  23934653.8674                   23934654.2194
   2357669.21948   1821602.86746  22166401.7814                   22166398.6804
    834450.20748    656935.85246  20840852.0474                   20840849.0554
 11  7 24 14 32 30.0000000  0  7G14G16G20G23G24G31G32
   2245659.66846   1737980.44143  24184079.0944                   24184077.6134
   -720310.36348   -534386.67646  21408180.7734                   21408176.9144
     -7716.74648     21978.73446  21356585.3524                   21356581.5354
   -556613.51247   -411350.43445  23180102.5554                   23180098.5864
   2242749.33646   1734272.62544  23941030.9224                   23941031.3444
   2398014.12947   1853040.43446  22174079.2584                   22174075.8484
    800687.56348    630627.29346  20834427.1724                   20834424.0554
 11  7 24 14 33  0.0000000  0  7G14G16G20G23G24G31G32
   2279725.32446   1764525.00043  24190561.2814                   24190560.3914
   -828985.01248   -619068.20346  21387500.4454                   21387496.5514
    -80525.82448    -34755.60946  21342729.7894                   21342726.2304
   -661839.73047   -493344.84845  23160077.8524                   23160074.1994
   2276360.94946   1760463.43443  23947427.6094                   23947427.2424
   2438389.43847   1884501.69146  22181762.4924                   22181759.2504
    767390.09848    604681.19946  20828090.7894                   20828088.0944
 11  7 24 14 33 30.0000000  0  7G14G16G20G23G24G31G32
   2313907.02746   1791160.03943  24197065.5084                   24197064.3244
   -937266.83648   -703443.63346  21366895.0704                   21366891.4144
   -152856.60548    -91117.25046  21328966.0004                   21328962.0864
   -767119.76647   -575381.19945  23140043.7114                   23140039.9574
   2310071.27746   1786731.17244  23953842.5314                   23953841.5594
   2478794.26647   1915985.94946  22189451.5394                   22189447.7814
    734559.64848    579099.02346  20821843.3524                   20821840.0594
 11  7 24 14 34  0.0000000  0  7G14G16G20G23G24G31G32
   2348206.11746   1817886.53943  24203592.9534                   24203591.1024
  -1045151.86348   -787509.85946  21346365.0164                   21346361.1914
   -224706.18748   -147103.94146  21315293.2894                   21315289.8524
   -872451.66047   -657457.97345  23120000.0164                   23119995.5594
   2343878.54346   1813074.44544  23960275.9614                   23960274.3134
   2519228.59447   1947493.19946  22197146.0554                   22197142.6054
    702197.98448    553882.13346  20815685.0394                   20815681.7894
 11  7 24 14 34 30.0000000  0  7G14G16G20G23G24G31G32
   2382620.86745   1844703.18043  24210141.1254                   24210140.2734
  -1152639.48448   -871266.43046  21325910.8674                   21325907.2304
   -296075.27348   -202716.20346  21301712.2274                   21301708.6564
   -977836.60947   -739576.09045  23099945.7424                   23099941.3594
   2377777.82846   1839489.42243  23966726.9534                   23966725.3954
   2559688.41048   1979020.29746  22204845.1564                   22204841.7544
    670303.16447    529029.01646  20809615.8364                   20809612.6374
 11  7 24 14 35  0.0000000  0  7G14G16G20G23G24G31G32
   2417153.43846   1871611.60943  24216713.0084                   24216712.0044
  -1259725.30148   -954709.90246  21305533.0634                   21305529.5234
   -366960.42248   -257951.37946  21288223.0234                   21288219.3874
  -1083272.25047   -821733.69545  23079882.0474                   23079877.0634
   2411767.91846   1865975.13743  23973193.8284                   23973193.6994
   2600173.77048   2010567.30146  22212549.0234                   22212546.0784
    638877.62147    504541.57046  20803635.5234                   20803632.5434
 11  7 24 14 35 30.0000000  0  7G14G16G20G23G24G31G32
   2451804.46146   1898612.36343  24223307.6024                   24223305.7584
  -1366405.98848  -1037837.69946  21285232.4694                   21285228.6954
   -437359.40648   -312807.71946  21274826.6884                   21274823.1684
  -1188757.04347   -903929.62545  23059809.4534                   23059803.9264
   2445846.82046   1892530.05943  23979679.2504                   23979679.3164
   2640684.34448   2042133.94146  22220257.9694                   22220254.6724
    607922.71947    480420.85546  20797745.3984                   20797741.9614
 11  7 24 14 36  0.0000000  0  7G14G16G20G23G24G31G32
   2486574.79346   1925706.08643  24229924.2274                   24229922.7384
  -1472678.59847  -1120647.49646  21265009.4454                   21265005.8754
   -507270.43448   -367283.83246  21261523.0554                   21261519.5124
  -1294289.66847   -986162.81644  23039726.5944                   23039721.0784
   2480011.91846   1919152.12544  23986182.4534                   23986181.6564
   2681218.35248   2073718.85946  22227971.5474                   22227967.7274
    577438.89147    456667.22346  20791944.0394                   20791941.1884
 11  7 24 14 36 30.0000000  0  7G14G16G20G23G24G31G32
   2521463.62546   1952892.14543  24236562.5864                   24236561.3284
  -1578541.27048  -1203137.87146  21244864.4774                   21244860.6764
   -576692.80148   -421379.17246  21248312.6094                   21248308.9264
  -1399870.10247  -1068433.24644  23019635.3984                   23019629.7544
   2514259.58647   1945838.59044  23992698.9454                   23992699.4104
   2721773.66048   2105320.36746  22235689.1414                   22235685.4144
    547426.10547    433280.62546  20786233.3594                   20786230.0314
 11  7 24 14 37  0.0000000  0  7G14G16G20G23G24G31G32
   2556472.45746   1980171.71143  24243225.2344                   24243223.6524
  -1683990.08647  -1285305.76246  21224798.1174                   21224794.5314
   -645623.53948   -475091.42646  21235195.4454                   21235191.7344
  -1505496.14147  -1150739.23044  22999535.5004                   22999529.8404
   2548588.22747   1972588.13344  23999231.1564                   23999230.5594
   2762350.31648   2136938.51646  22243410.5164                   22243406.7234
    517885.94547    410262.30946  20780611.8134                   20780608.6884
 11  7 24 14 37 30.0000000  0  7G14G16G20G23G24G31G32
   2591602.14546   2007545.45343  24249910.4064                   24249907.7934
  -1789022.31248  -1367149.03546  21204811.1334                   21204807.2544
   -714061.27348   -528419.52346  21222172.4614                   21222168.5984
  -1611166.83647  -1233080.00444  22979426.6414                   22979421.6414
   2582995.15646   1999398.68043  24005777.7814                   24005777.2034
   2802946.65248   2168572.00846  22251135.6884                   22251131.8364
    488819.12547    387612.82846  20775080.6024                   20775077.5434
 11  7 24 14 38  0.0000000  0  7G14G16G20G23G24G31G32
   2626852.22346   2035013.01643  24256617.6484                   24256616.3134
  -1893635.91048  -1448666.10946  21184903.7974                   21184900.3554
   -782004.84848   -581362.56246  21209242.6724                   21209239.4454
  -1716881.70347  -1315455.19145  22959310.0314                   22959305.5474
   2617477.19147   2026267.73844  24012339.7974                   24012338.8404
   2843560.50048   2200219.14146  22258864.0474                   22258860.7814
    460225.48848    365332.06646  20769639.5004                   20769636.2034
 11  7 24 14 38 30.0000000  0  7G14G16G20G23G24G31G32
   2662223.46546   2062574.99643  24263349.3524                   24263346.9344
  -1997827.64148  -1529854.45746  21165076.9534                   21165073.0704
   -849452.21948   -633918.94946  21196408.0784                   21196404.4884
  -1822639.33247  -1397863.69945  22939185.2504                   22939180.6134
   2652031.75447   2053193.31644  24018915.9304                   24018914.9344
   2884191.28948   2231879.47346  22266596.1414                   22266592.9844
    432105.97348    343420.74646  20764288.4304                   20764285.5004
 11  7 24 14 39  0.0000000  0  7G14G16G20G23G24G31G32
   2697716.01646   2090231.46943  24270102.3444                   24270100.9344
  -2101595.22348  -1610712.30546  21145330.3594                   21145326.7974
   -916402.29748   -686087.84046  21183667.8594                   21183664.4064
  -1928438.85248  -1480304.85945  22919051.9924                   22919047.6134
   2686656.10246   2080173.28143  24025505.2974                   24025504.3094
   2924837.26647   2263551.63346  22274330.5554                   22274327.6804
    404460.94948    321879.15646  20759027.7194                   20759024.6214
 11  7 24 14 39 30.0000000  0  6G16G20G23G24G31G32
  -2204935.13348  -1691236.89846  21125665.5944                   21125661.9264
   -982852.30148   -737867.06246  21171022.8674                   21171019.1884
  -2034278.23047  -1562777.07445  22898911.5554                   22898906.8134
   2721348.12146   2107205.98844  24032106.3594                   24032106.3134
   2965498.09047   2295235.36345  22282068.1564                   22282064.9384
    377291.76248    300708.35546  20753857.8284                   20753854.5234
 11  7 24 14 40  0.0000000  0  6G16G20G23G24G31G32
  -2307844.86348  -1771426.27746  21106082.6884                   21106078.8714
  -1048801.25848   -789255.85546  21158473.1484                   21158469.5744
  -2140156.74647  -1645279.77745  22878763.2584                   22878759.1174
   2756104.95746   2134289.16043  24038720.5164                   24038720.2274
   3006172.07047   2326929.34846  22289807.8594                   22289805.2304
    350598.57848    279908.46546  20748778.0164                   20748774.9964
 11  7 24 14 40 30.0000000  0  6G16G20G23G24G31G32
  -2410315.00848  -1851273.12946  21086583.2814                   21086579.6254
  -1114241.13348   -840247.96146  21146020.4534                   21146016.7234
  -2246066.46147  -1727806.79745  22858609.3984                   22858604.8794
   2790930.62546   2161426.00443  24045347.0944                   24045346.5984
   3046864.37547   2358637.60946  22297551.9534                   22297548.3164
    324388.41448    259484.95346  20743790.6094                   20743787.7304
 11  7 24 14 41  0.0000000  0  6G16G20G23G24G31G32
  -2512339.20348  -1930772.49246  21067168.2734                   21067165.0314
  -1179166.11748   -890838.85546  21133665.9534                   21133661.7304
  -2352002.80547  -1810354.55544  22838450.1954                   22838445.1334
   2825826.16046   2188617.25843  24051987.9064                   24051986.7154
   3087578.02747   2390362.50446  22305299.3594                   22305296.1454
    298665.41448    239441.05546  20738895.4924                   20738892.4774
 11  7 24 14 41 30.0000000  0  6G16G20G23G24G31G32
  -2613913.41448  -2009921.21146  21047839.8284                   21047835.8164
  -1243573.63348   -941026.52346  21121409.2194                   21121405.5554
  -2457963.19947  -1892921.06645  22818286.5864                   22818281.5434
   2860790.33146   2215862.07443  24058641.6174                   24058640.8984
   3128312.83247   2422103.89145  22313050.8674                   22313047.5864
    273431.89548    219778.57046  20734093.7814                   20734090.8594
 11  7 24 14 42  0.0000000  0  6G16G20G23G24G31G32
  -2715039.79748  -2088720.98446  21028595.8984                   21028592.0784
  -1307467.02348   -990813.57046  21109250.7344                   21109246.9804
  -2563951.12547  -1975509.02044  22798117.5554                   22798112.3554
   2895816.02746   2243154.70743  24065305.2344                   24065306.6844
   3169062.85948   2453857.13746  22320805.2504                   22320802.2074
    248683.15648    200493.83646  20729384.0704                   20729381.2234
 11  7 24 14 42 30.0000000  0  6G16G20G23G24G31G32
  -2815714.30948  -2167168.64546  21009438.2274                   21009434.4454
  -1370843.01648  -1040197.45346  21097191.1414                   21097186.8874
  -2669963.91047  -2058116.36345  22777944.4064                   22777938.8594
   2930901.65646   2270494.05943  24071982.6884                   24071983.4414
   3209828.26647   2485622.37146  22328562.7504                   22328559.6214
    224421.11348    181588.33646  20724767.3594                   20724764.3364
 11  7 24 14 43  0.0000000  0  6G16G20G23G24G31G32
  -2915934.16048  -2245262.02346  20990366.9304                   20990363.3794
  -1433700.40648  -1089177.23046  21085229.3594                   21085225.4884
  -2776000.40247  -2140742.16845  22757766.6484                   22757761.1524
   2966044.69546   2297878.17643  24078671.0234                   24078670.1914
   3250608.10247   2517398.84046  22336323.0554                   22336319.9804
    200646.40248    163062.57846  20720243.1644                   20720240.0594
 11  7 24 14 43 30.0000000  0  6G16G20G23G24G31G32
  -3015697.41848  -2322999.61346  20971382.7274                   20971379.2304
  -1496038.35248  -1137752.25046  21073366.9064                   21073363.0004
  -2882059.96147  -2223385.94545  22737583.7274                   22737579.0044
   3001241.93046   2325304.52343  24085368.6954                   24085367.5124
   3291400.50447   2549185.09846  22344085.7424                   22344082.3404
    177358.46148    144916.12146  20715811.5944                   20715808.5204
 11  7 24 14 44  0.0000000  0  6G16G20G23G24G31G32
  -3115002.14148  -2400379.90246  20952485.7424                   20952482.0434
  -1557855.82048  -1185921.69946  21061603.4454                   21061599.6094
  -2988141.97747  -2306047.21945  22717396.7504                   22717392.1604
   3036490.14546   2352770.61743  24092076.6174                   24092075.9384
   3332203.34847   2580979.50446  22351850.2114                   22351847.0314
    154557.23048    127148.91446  20711472.6484                   20711469.7704
 11  7 24 14 44 30.0000000  0  6G16G20G23G24G31G32
  -3213843.03948  -2477398.77046  20933676.7034                   20933672.8634
  -1619148.89148  -1233682.53946  21049939.8364                   21049935.8834
  -3094242.22347  -2388722.69945  22697206.7034                   22697202.2464
   3071789.47746   2380276.53544  24098793.3204                   24098793.7384
   3373018.52047   2612783.51245  22359617.1024                   22359613.7154
    132245.59448    109763.21146  20707226.9384                   20707223.8134
 11  7 24 14 45  0.0000000  0  6G16G20G23G24G31G32
  -3312216.42248  -2554053.34046  20914956.9304                   20914953.0594
  -1679914.98448  -1281032.74646  21038376.4064                   21038372.4774
  -3200358.64547  -2471410.78545  22677013.3054                   22677009.0704
   3107138.27346   2407820.96543  24105520.0084                   24105520.6764
   3413845.89147   2644597.02345  22367386.3594                   22367382.8484
    110425.36748     92760.42246  20703074.6644                   20703071.6254
 11  7 24 14 45 30.0000000  0  6G16G20G23G24G31G32
  -3410119.82848  -2630341.69946  20896326.5314                   20896322.7424
  -1740152.94547  -1327971.41046  21026912.9454                   21026909.6454
  -3306489.94947  -2554110.46545  22656816.7974                   22656812.5824
   3142533.69546   2435401.74244  24112256.2274                   24112256.0474
   3454684.03947   2676418.93446  22375157.5004                   22375154.5204
     89096.46948     76140.49246  20699015.9774                   20699012.9304
 11  7 24 14 46  0.0000000  0  6G16G20G23G24G31G32
  -3507549.84048  -2706261.17246  20877786.0004                   20877782.0164
  -1799860.92647  -1374497.10546  21015551.5084                   21015547.5944
  -3412634.55547  -2636820.50845  22636618.3594                   22636613.8524
   3177973.83246   2463017.35944  24118999.6484                   24118998.8954
   3495532.90247   2708249.19945  22382930.9774                   22382927.6684
     68259.77048     59904.09846  20695050.7504                   20695047.9144
 11  7 24 14 46 30.0000000  0  6G16G20G23G24G31G32
  -3604507.57048  -2781812.63746  20859335.7034                   20859331.8714
  -1859040.53947  -1420611.09046  21004290.1254                   21004286.1174
  -3518794.06247  -2719542.17645  22616417.3284                   22616412.0394
   3213453.01647   2490663.43443  24125752.0314                   24125750.4144
   3536388.05147   2740084.36345  22390705.4144                   22390702.1214
     47912.84448     44049.33646  20691178.7274                   20691175.9654
 11  7 24 14 47  0.0000000  0  6G16G20G23G24G31G32
  -3700989.89548  -2856993.65646  20840975.6254                   20840971.8014
  -1917689.93448  -1466311.91446  20993129.1644                   20993125.0204
  -3624966.50447  -2802273.92245  22596213.0634                   22596207.7344
   3248968.88747   2518338.05944  24132509.8674                   24132508.8204
   3577248.67647   2771923.79345  22398480.6024                   22398477.5124
     28055.81348     28576.32046  20687400.2814                   20687397.0084
 11  7 24 14 47 30.0000000  0  6G16G20G23G24G31G32
  -3796991.23048  -2931799.87546  20822707.2424                   20822703.5944
  -1975804.82448  -1511596.23846  20982070.1094                   20982066.2234
  -3731147.85548  -2885012.62545  22576007.3594                   22576002.1134
   3284522.03947   2546041.75844  24139275.6564                   24139275.5554
   3618116.82047   2803769.08646  22406257.7664                   22406254.2854
      8692.19948     13487.78546  20683715.5784                   20683712.7384
 11  7 24 14 48  0.0000000  0  6G16G20G23G24G31G32
  -3892511.44548  -3006231.19546  20804530.3284                   20804526.6334
  -2033386.46148  -1556465.04746  20971112.9144                   20971108.9344
  -3837339.04347  -2967758.98045  22555800.0314                   22555794.5554
   3320107.53147   2573770.66044  24146047.0164                   24146048.0864
   3658989.06347   2835617.57046  22414035.7274                   22414032.1134
    -10180.27048     -1218.04746  20680124.3364                   20680121.1844
 11  7 24 14 48 30.0000000  0  6G16G20G23G24G31G32
  -3987548.67648  -3080286.17246  20786445.4614                   20786441.4534
  -2090433.95748  -1600917.63346  20960256.7814                   20960252.9264
  -3943539.14547  -3050512.28545  22535590.5784                   22535585.2344
   3355722.43446   2601522.44544  24152823.7114                   24152826.0274
   3699863.54747   2867467.80145  22421813.7894                   22421810.4024
    -28561.57848    -15541.14546  20676626.3674                   20676623.3594
 11  7 24 14 49  0.0000000  0  6G16G20G23G24G31G32
  -4082098.77048  -3153961.55546  20768453.0084                   20768449.2114
  -2146944.52348  -1644951.83246  20949503.6174                   20949499.9494
  -4049745.60547  -3133270.53545  22515380.0234                   22515375.0004
   3391365.53146   2629296.18843  24159607.3984                   24159608.8054
   3740741.23047   2899320.53145  22429592.4224                   22429589.3324
    -46450.23448    -29480.37146  20673222.2734                   20673219.3954
 11  7 24 14 49 30.0000000  0  6G16G20G23G24G31G32
  -4176161.26248  -3227256.98846  20750553.9224                   20750549.9924
  -2202919.00048  -1688568.31246  20938851.7584                   20938847.9304
  -4155958.96547  -3216034.16045  22495168.2734                   22495163.8674
   3427032.01646   2657088.18043  24166393.9384                   24166394.8284
   3781618.87147   2931173.20345  22437371.3364                   22437368.0594
    -63848.14548    -43037.19946  20669911.4064                   20669908.9264
 11  7 24 14 50  0.0000000  0  6G16G20G23G24G31G32
  -4269733.88348  -3300170.70346  20732747.5004                   20732743.5314
  -2258355.98448  -1731765.96146  20928302.5704                   20928299.0474
  -4262177.10247  -3298801.49645  22474955.5084                   22474950.9144
   3462719.91446   2684896.84043  24173186.0314                   24173185.2034
   3822495.90247   2963025.42245  22445149.6724                   22445146.8134
    -80754.64148    -56211.09846  20666694.4144                   20666691.5314
 11  7 24 14 50 30.0000000  0  6G16G20G23G24G31G32
  -4362814.57848  -3372701.10246  20715034.8984                   20715030.9344
  -2313254.87548  -1774544.31646  20917855.8134                   20917851.8834
  -4368399.56247  -3381572.21945  22454742.3204                   22454737.7584
   3498425.90646   2712719.62943  24179980.9614                   24179980.0594
   3863370.46147   2994875.71145  22452928.0394                   22452924.8834
    -97170.34848    -69002.56646  20663570.4694                   20663567.6024
 11  7 24 14 51  0.0000000  0  6G16G20G23G24G31G32
  -4455401.86348  -3444847.02746  20697416.0084                   20697412.1724
  -2367615.12148  -1816902.95746  20907511.1884                   20907507.6374
  -4474625.59047  -3464345.73445  22434528.0084                   22434523.4614
   3534146.94546   2740554.14543  24186777.4064                   24186778.5554
   3904240.93447   3026722.81645  22460705.7424                   22460702.3014
   -113096.03148    -81412.20346  20660539.9304                   20660536.8874
 11  7 24 14 51 30.0000000  0  6G16G20G23G24G31G32
  -4547491.79748  -3516605.40246  20679891.9774                   20679888.1134
  -2421434.24248  -1858839.93046  20897269.6724                   20897265.8364
  -4580852.31247  -3547119.78545  22414313.9224                   22414309.0984
   3569881.60946   2768399.21143  24193577.4144                   24193578.5434
   3945107.64847   3058566.98045  22468481.9534                   22468478.8914
   -128529.87148    -93438.58646  20657603.0314                   20657600.2074
 11  7 24 14 52  0.0000000  0  6G16G20G23G24G31G32
  -3063661.74248  -2360374.17646  20962255.2894                   20962251.5084
   -899292.38748   -672755.36746  21186923.7274                   21186919.9024
  -3111657.53547  -2402292.67645  22693892.2194                   22693887.7424
   5181043.42646   4023849.85543  24500172.1644                   24500173.3164
   5561385.60948   4318004.33645  22776049.6724                   22776046.5394
   1431945.53148   1122516.25846  20954551.8594                   20954548.8714
 11  7 24 14 52 30.0000000  0  6G16G20G23G24G31G32
  -3154757.41448  -2431357.79746  20944920.1334                   20944916.5664
   -952033.28148   -713852.16846  21176887.4774                   21176883.5744
  -3217888.76247  -2485070.23845  22673677.3204                   22673672.3874
   5216790.81646   4051704.89843  24506975.4844                   24506975.5864
   5602235.02348   4349835.01645  22783823.1024                   22783819.9534
   1417487.88748   1111250.55146  20951800.6884                   20951797.7704
 11  7 24 14 53  0.0000000  0  6G16G20G23G24G31G32
  -3245352.17648  -2501951.10546  20927680.7034                   20927676.9104
  -1004233.01248   -754527.27746  21166954.1334                   21166950.6294
  -3324119.70347  -2567847.56245  22653461.9534                   22653457.3914
   5252540.97746   4079562.12543  24513778.6644                   24513777.7464
   5643074.41048   4381657.89146  22791594.9144                   22791591.4574
   1403518.71548   1100365.48046  20949141.9924                   20949139.4264
 11  7 24 14 53 30.0000000  0  6G16G20G23G24G31G32
  -3335446.33248  -2572154.33246  20910535.9844                   20910532.4734
  -1055893.36348   -794782.10246  21157123.2194                   21157119.6134
  -3430351.54347  -2650625.59445  22633246.5554                   22633242.2464
   5288288.67646   4107417.44943  24520580.1174                   24520580.0704
   5683900.50847   4413470.40645  22799363.6644                   22799360.7344
   1390035.35548   1089858.95746  20946576.3204                   20946573.7074
 11  7 24 14 54  0.0000000  0  6G16G20G23G24G31G32
  -3425036.35948  -2641964.73046  20893487.7114                   20893483.9064
  -1107012.01248   -834614.80546  21147395.6414                   21147392.3204
  -3536581.55547  -2733402.19145  22613031.7814                   22613027.0204
   5324032.60246   4135269.74643  24527381.3284                   24527381.6954
   5724713.59047   4445272.77745  22807129.8364                   22807127.3324
   1377039.00848   1079731.92646  20944103.2034                   20944100.6214
 11  7 24 14 54 30.0000000  0  5G16G20G23G31G32
  -3514120.86348  -2711381.21146  20876535.5634                   20876531.9104
  -1157588.55148   -874025.09846  21137771.6954                   21137767.9064
  -3642808.93447  -2816176.73445  22592817.6254                   22592812.7274
   5765512.32847   4477063.96945  22814893.7424                   22814890.5824
   1364529.30548   1069984.09446  20941722.5084                   20941719.8324
 11  7 24 14 55  0.0000000  0  5G16G20G23G31G32
  -3602699.73048  -2780403.68746  20859679.5234                   20859675.5394
  -1207624.25048   -913013.94546  21128250.2974                   21128246.4924
  -3749034.19547  -2898949.64145  22572603.2894                   22572598.3594
   5806293.28947   4508841.30145  22822653.9774                   22822651.3914
   1352503.90248   1060613.64546  20939434.3444                   20939431.4454
 11  7 24 14 55 30.0000000  0  5G16G20G23G31G32
  -3690763.29348  -2849024.63746  20842921.3914                   20842917.5944
  -1257110.71548   -951574.82846  21118832.7734                   21118829.3984
  -3855248.35247  -2981713.87545  22552391.4144                   22552386.3674
   5847062.97747   4540609.87145  22830412.5084                   22830408.8954
   1340969.89148   1051626.09846  20937239.4224                   20937236.5824
 11  7 24 14 56  0.0000000  0  5G16G20G23G31G32
  -3778303.98448  -2917238.14546  20826263.0554                   20826259.4574
  -1306041.73848   -989702.89146  21109521.9144                   21109517.9844
  -3961444.93447  -3064464.43045  22532182.8754                   22532177.7114
   5887825.85547   4572373.12545  22838169.2194                   22838166.1684
   1329932.59848   1043025.59846  20935139.3594                   20935136.4224
 11  7 24 14 56 30.0000000  0  5G16G20G23G31G32
  -3865323.04348  -2985045.18446  20809704.0474                   20809700.3874
  -1354419.39848  -1027399.77046  21100315.4534                   21100312.2234
  -4067625.24647  -3147202.30545  22511977.5314                   22511972.6604
   5928578.03547   4604128.04345  22845924.0634                   22845920.7934
   1319388.79748   1034809.64546  20933132.9224                   20933130.0744
 11  7 24 14 57  0.0000000  0  5G16G20G23G31G32
  -3951820.89548  -3052446.09046  20793243.8524                   20793240.1764
  -1402245.81248  -1064667.10946  21091214.8524                   21091211.0514
  -4173790.37547  -3229928.34845  22491774.7194                   22491770.2074
   5969316.15647   4635872.02045  22853676.3674                   22853673.3524
   1309335.79748   1026976.12546  20931219.8054                   20931216.8914
 11  7 24 14 57 30.0000000  0  5G16G20G23G31G32
  -4037798.00048  -3119441.22746  20776883.3054                   20776879.0084
  -1449522.30548  -1101505.93046  21082218.1414                   21082214.7734
  -4279941.37547  -3312643.39145  22471575.3204                   22471570.6414
   6010036.44947   4667602.09445  22861425.3594                   22861422.1334
   1299770.94148   1019522.98446  20929399.6884                   20929396.8914
 11  7 24 14 58  0.0000000  0  5G16G20G23G31G32
  -4123253.24648  -3186029.70346  20760621.3754                   20760617.3594
  -1496249.16048  -1137916.47346  21073326.5234                   21073322.6334
  -4386077.97748  -3395347.21145  22451377.9614                   22451373.6054
   6050737.26247   4699316.98445  22869170.4224                   22869166.9614
   1290692.52348   1012448.87946  20927672.2974                   20927669.4024
 11  7 24 14 58 30.0000000  0  5G16G20G23G31G32
  -4208189.34848  -3252213.66846  20744458.6254                   20744454.8164
  -1542430.66848  -1173902.06646  21064538.2424                   21064534.4104
  -4492203.02048  -3478042.03145  22431182.7114                   22431178.0004
   6091413.10547   4731012.42245  22876910.4694                   22876907.5634
   1282095.90248   1005750.20346  20926036.1484                   20926033.2664
 11  7 24 14 59  0.0000000  0  5G16G20G23G31G32
  -4292600.13348  -3317988.27746  20728395.6644                   20728391.9224
  -1588062.44548  -1209459.29346  21055855.0084                   21055851.5864
  -4598311.63347  -3560724.04345  22410990.8284                   22410986.0824
   6132066.34047   4762690.23845  22884646.5084                   22884643.4534
   1273984.44148    999429.58246  20924493.0084                   20924490.0984
 11  7 24 14 59 30.0000000  0  5G16G20G23G31G32
  -4376484.98448  -3383353.08646  20712432.8284                   20712429.0004
  -1633143.57848  -1244587.45746  21047276.5864                   21047272.8754
  -4704402.49647  -3643392.21545  22390802.6884                   22390797.3754
   6172696.05947   4794349.72745  22892378.0164                   22892374.9654
   1266357.50448    993486.51246  20923041.4224                   20923038.5554
 11  7 24 15  0  0.0000000  0  5G16G20G23G31G32
  -4459842.77748  -3448307.18046  20696570.6564                   20696566.5634
  -1677674.95348  -1279287.23446  21038802.3204                   21038798.4964
  -4810475.18447  -3726046.23845  22370617.3054                   22370612.3364
   6213300.37947   4825989.42645  22900105.0864                   22900102.1914
   1259213.64848    987919.85946  20921681.8914                   20921679.2034
 11  7 24 15  0 30.0000000  0  5G16G20G23G31G32
  -4542672.60948  -3512849.89146  20680808.2344                   20680804.5004
  -1721656.76648  -1313558.77346  21030432.8444                   21030429.5554
  -4916528.92647  -3808685.50445  22350436.2194                   22350430.8954
   6253877.20347   4857607.68445  22907826.4064                   22907824.0204
   1252551.36348    982728.45746  20920413.7814                   20920411.5314
 11  7 24 15  1  0.0000000  0  5G16G20G23G31G32
  -4624971.61348  -3576978.96946  20665147.4694                   20665143.3714
  -1765087.64848  -1347401.02746  21022168.0164                   21022164.4454
  -5022561.51247  -3891308.27345  22330259.0084                   22330253.3834
   6294426.48447   4889204.49245  22915543.2664                   22915539.9064
   1246371.32448    977912.83246  20919238.3444                   20919235.5004
 11  7 24 15  1 30.0000000  0  5G16G20G23G31G32
  -4706738.62948  -3640693.50046  20649587.7584                   20649583.8594
  -1807967.58648  -1380813.96946  21014008.3594                   21014004.7734
  -5128572.10248  -3973913.90645  22310085.6884                   22310080.5234
   6334947.07847   4920778.95745  22923253.7504                   22923250.6644
   1240672.40648    973472.10546  20918153.4144                   20918150.9574
 11  7 24 15  2  0.0000000  0  5G16G20G23G31G32
  -4787973.32048  -3703993.24646  20634129.1414                   20634125.1054
  -1850297.44948  -1413798.27746  21005953.5004                   21005949.9694
  -5234560.44548  -4056502.18745  22289916.9454                   22289911.8874
   6375436.71947   4952329.30545  22930958.7344                   22930955.3094
   1235452.60548    969404.71146  20917160.2584                   20917157.9384
 11  7 24 15  2 30.0000000  0  5G16G20G23G31G32
  -4868671.71948  -3766875.09446  20618772.7664                   20618768.8524
  -1892075.08648  -1446352.28546  20998003.1174                   20997999.7114
  -5340522.87947  -4139070.27745  22269752.6804                   22269747.2584
   6415896.37947   4983856.28945  22938658.2114                   22938654.7234
   1230713.66448    965712.02346  20916258.4064                   20916255.8984
 11  7 24 15  3  0.0000000  0  6G06G16G20G23G31G32
   3018771.21956   2361787.12553  24205867.9614                   24205866.5944
  -4948832.00048  -3829337.63346  20603518.9844                   20603514.8054
  -1933299.27348  -1478475.03146  20990158.7734                   20990155.0354
  -5446457.78548  -4221616.92245  22249594.0314                   22249588.8164
   6456325.62547   5015359.57045  22946351.9774                   22946348.1994
   1226455.27048    962393.77746  20915448.1644                   20915445.7424
 11  7 24 15  3 30.0000000  0  6G06G16G20G23G31G32
   2913154.68846   2279488.60943  24185769.9774                   24185768.9304
  -5028457.93748  -3891383.80146  20588366.4614                   20588362.5234
  -1973975.42648  -1510170.73446  20982418.1414                   20982414.5474
  -5552369.09848  -4304145.19145  22229439.6484                   22229434.4614
   6496717.56347   5046833.79345  22954038.0704                   22954034.3914
   1222671.22748    959445.15646  20914728.2894                   20914725.5124
 11  7 24 15  4  0.0000000  0  6G06G16G20G23G31G32
   2807491.95746   2197154.06643  24165662.7664                   24165661.7504
  -5107554.79348  -3953017.69546  20573314.8594                   20573310.9344
  -2014109.76248  -1541444.23846  20974780.7584                   20974777.1254
  -5658261.93448  -4386659.06245  22209289.2504                   22209283.6374
   6537065.02747   5078273.34045  22961715.9224                   22961712.4224
   1219354.32848    956860.54746  20914096.9534                   20914094.0634
 11  7 24 15  4 30.0000000  0  6G06G16G20G23G31G32
   2701787.32846   2114786.87143  24145548.0084                   24145546.7274
  -5186119.40248  -4014236.85246  20558364.3054                   20558360.4694
  -2053700.49248  -1572294.16446  20967246.9384                   20967243.4104
  -5764133.48048  -4469156.34045  22189142.4614                   22189137.0664
   6577368.48047   5109678.60245  22969385.2734                   22969382.2504
   1216505.12148    954640.38346  20913554.7114                   20913551.7194
 11  7 24 15  5  0.0000000  0  6G06G16G20G23G31G32
   2596047.50446   2032392.28943  24125425.7734                   24125424.7624
  -5264146.58648  -4075037.23446  20543516.4304                   20543512.2304
  -2092744.06248  -1602717.71946  20959817.5394                   20959813.5634
  -5869978.65647  -4551633.08645  22169000.7664                   22168995.7704
   6617630.71147   5141051.73845  22977046.7974                   22977043.5944
   1214126.93448    952787.23846  20913102.3834                   20913099.5274
 11  7 24 15  5 30.0000000  0  6G06G16G20G23G31G32
   2490280.07846   1949976.19143  24105298.6484                   24105297.3984
  -5341629.64148  -4135413.62546  20528771.5554                   20528767.9184
  -2131234.78548  -1632710.49246  20952492.3444                   20952489.2304
  -5975790.63747  -4634083.94945  22148865.4144                   22148860.6024
   6657855.92247   5172396.02345  22984701.3134                   22984698.4184
   1212224.10948    951304.50446  20912740.2814                   20912737.1024
 11  7 24 15  6  0.0000000  0  6G06G16G20G23G31G32
   2384487.37546   1867540.36343  24085167.6564                   24085166.3094
  -5418568.06248  -4195365.62546  20514130.8594                   20514127.1094
  -2169173.18048  -1662272.87546  20945273.5704                   20945269.8164
  -6081568.66447  -4716508.35245  22128736.0474                   22128731.5004
   6698042.32047   5203710.07045  22992348.9534                   22992345.6294
   1210794.85248    950190.78946  20912467.9774                   20912465.3444
 11  7 24 15  6 30.0000000  0  6G06G16G20G23G31G32
   2278676.89846   1785090.71143  24065033.1564                   24065030.5984
  -5494955.59048  -4254888.36346  20499594.7734                   20499590.7234
  -2206554.52048  -1691401.19946  20938159.9144                   20938156.6254
  -6187306.73847  -4798901.62945  22108615.0004                   22108609.8014
   6738193.96947   5234997.02045  22999989.2194                   22999986.4224
   1209843.22348    949449.24646  20912287.3054                   20912284.2274
 11  7 24 15  7  0.0000000  0  6G06G16G20G23G31G32
   2172849.78146   1702628.06343  24044894.2194                   24044892.6254
  -5570792.30548  -4313981.89146  20485163.4844                   20485159.4844
  -2243380.41848  -1720096.70746  20931152.1954                   20931148.9654
  -6293004.70347  -4881263.66045  22088501.1334                   22088496.6764
   6778308.22347   5266254.85245  23007622.6024                   23007619.8634
   1209367.02748    949078.16846  20912196.5864                   20912194.0634
 11  7 24 15  7 30.0000000  0  6G06G16G20G23G31G32
   2067008.50846   1620154.42243  24024753.1724                   24024751.9224
  -5646077.57448  -4372645.72746  20470837.0554                   20470833.1914
  -2279650.73048  -1748359.29346  20924250.4224                   20924246.8164
  -6398661.38347  -4963593.52045  22068395.6414                   22068390.5474
   6818383.92247   5297482.61745  23015248.8984                   23015246.1604
   1209364.78548    949076.40646  20912196.2274                   20912193.7894
 11  7 24 15  8  0.0000000  0  6G06G16G20G23G31G32
   1961156.56346   1537672.43043  24004609.9064                   24004608.9414
  -5720809.23848  -4430878.17646  20456616.4694                   20456612.4144
  -2315365.16448  -1776188.73846  20917453.9534                   20917450.2624
  -6504275.31247  -5045890.06645  22048297.6644                   22048292.7774
   6858420.58647   5328679.98045  23022867.9614                   23022865.0514
   1209836.14148    949443.68846  20912285.6564                   20912283.4384
 11  7 24 15  8 30.0000000  0  7G06G16G20G23G03G31G32
   1855296.53946   1455184.16843  23984465.3834                   23984464.3984
  -5794985.55148  -4488677.89546  20442500.8674                   20442497.1174
  -2350523.41448  -1803584.77346  20910763.2504                   20910759.9384
  -6609844.10547  -5128151.44945  22028208.5164                   22028203.8674
   2998799.36356   2347637.89553  24145837.9304                   24145836.3404
   6898417.48047   5359846.33645  23030479.1724                   23030475.8554
   1210780.62948    950179.64146  20912465.5784                   20912463.3324
 11  7 24 15  9  0.0000000  0  7G06G16G20G23G03G31G32
   1749427.06346   1372688.52343  23964319.3834                   23964317.8134
  -5868610.38748  -4546047.88746  20428490.9534                   20428486.4924
  -2385130.35547  -1830551.21946  20904178.4384                   20904174.6484
  -6715371.19147  -5210380.32845  22008127.7664                   22008122.6214
   2877159.17246   2252853.39143  24122690.1884                   24122689.3364
   6938369.30147   5390977.59445  23038081.9694                   23038078.5864
   1212192.37548    951279.68846  20912734.3524                   20912731.2584
 11  7 24 15  9 30.0000000  0  8G06G16G20G23G03G31G32G13
   1643548.97746   1290186.16043  23944171.4224                   23944170.3554
  -5941684.32048  -4602988.60246  20414585.0864                   20414580.9224
  -2419187.62148  -1857089.34846  20897697.2274                   20897693.6844
  -6820856.97747  -5292577.02045  21988054.2034                   21988049.4104
   2755395.03546   2157972.30543  24099519.2114                   24099518.1724
   6978272.89847   5422071.26245  23045675.3984                   23045672.1134
   1214068.78148    952741.80946  20913091.6024                   20913088.7544
   3004809.62156   2347405.15653  24159552.1094                   24159550.6174
 11  7 24 15 10  0.0000000  0  8G06G16G20G23G03G31G32G13
   1537656.60546   1207672.68043  23924020.5634                   23924019.2114
  -6014214.11748  -4659505.32446  20400783.3524                   20400779.1994
  -2452703.71548  -1883205.78146  20891319.2344                   20891315.8794
  -6926308.31647  -5374746.87145  21967987.6644                   21967982.6524
   2633501.72346   2062990.55143  24076324.4924                   24076323.0084
   7018119.39147   5453120.44545  23053257.8134                   23053254.0744
   1216400.57048    954558.77346  20913535.1414                   20913532.5204
   2888187.37146   2256530.74244  24137359.2274                   24137358.2664
 11  7 24 15 10 30.0000000  0  8G06G16G20G23G03G31G32G13
   1431750.65646   1125148.58643  23903868.0394                   23903866.2384
  -6086200.90648  -4715598.91846  20387084.7344                   20387080.4734
  -2485680.80148  -1908902.21946  20885043.7424                   20885040.4534
  -7031725.67247  -5456890.23045  21947927.4224                   21947922.3524
   2511479.37146   1967908.26243  24053103.9454                   24053102.9454
   7057905.72347   5484122.74245  23060829.0234                   23060825.0864
   1219184.32448    956727.92646  20914064.8134                   20914062.0864
   2771463.11346   2165576.82843  24115147.4844                   24115146.4774
 11  7 24 15 11  0.0000000  0  8G06G16G20G23G03G31G32G13
   1325840.53146   1042621.28543  23883713.4304                   23883711.6644
  -6157637.33648  -4771263.65646  20373490.9384                   20373487.0434
  -2518112.73848  -1934173.85946  20878872.5164                   20878868.9264
  -7137100.95347  -5539000.81245  21927875.0394                   21927870.2234
   2389337.17246   1872732.57043  24029860.8364                   24029860.5234
   7097637.51647   5515082.56345  23068389.8674                   23068386.4654
   1222425.75448    959253.70346  20914681.8134                   20914678.7894
   2654643.82846   2074548.84843  24092917.1644                   24092916.2974
 11  7 24 15 11 30.0000000  0  8G06G16G20G23G03G31G32G13
   1219935.74246    960098.11743  23863560.1174                   23863558.8324
  -6228514.98448  -4826492.98446  20360003.0634                   20359999.0474
  -2549992.55948  -1959015.27346  20872805.9694                   20872802.2814
  -7242426.03147  -5621072.27045  21907832.2584                   21907827.3134
   2267084.99646   1777471.17644  24006596.9534                   24006596.3164
   7137320.45747   5546004.31345  23075940.8054                   23075937.6134
   1226130.58648    962140.57046  20915386.8054                   20915383.5434
   2537736.66846   1983452.43443  24070670.3444                   24070669.9264
 11  7 24 15 12  0.0000000  0  8G06G16G20G23G03G31G32G13
   1114042.00846    877583.56643  23843408.9144                   23843408.0744
  -6298830.25048  -4881284.09046  20346622.4694                   20346618.8484
  -2581317.87948  -1983424.62946  20866845.2194                   20866841.2114
  -7347696.43448  -5703101.13345  21887800.1884                   21887794.7034
   2144727.85546   1682127.99244  23983314.0554                   23983312.4024
   7176956.73047   5576889.70345  23083483.6024                   23083480.0514
   1230300.31348    965389.69946  20916180.0704                   20916177.2814
   2420745.50446   1892290.55143  24048407.8674                   24048407.1844
 11  7 24 15 12 30.0000000  0  8G06G16G20G23G03G31G32G13
   1008164.55146    795081.65643  23823261.1804                   23823260.3714
  -6368579.80947  -4935634.39146  20333349.6414                   20333345.4304
  -2612086.39148  -2007400.09046  20860990.0784                   20860986.6524
  -7452908.27348  -5785084.36345  21867778.6254                   21867773.5204
   2022270.88746   1586707.02043  23960010.7424                   23960009.2234
   7216547.77047   5607739.84045  23091017.1484                   23091014.3954
   1234936.41448    969002.23046  20917062.2424                   20917059.6134
   2303673.44946   1801065.63743  24026129.0554                   24026129.0784
 11  7 24 15 13  0.0000000  0  8G06G16G20G23G03G31G32G13
    902307.45346    712595.64843  23803117.3984                   23803116.7424
  -6437761.10948  -4989541.87946  20320184.9224                   20320181.1414
  -2642297.19547  -2030940.98446  20855241.1414                   20855237.5744
  -7558058.63348  -5867019.69145  21847769.2584                   21847764.6134
   1899718.17246   1491211.43443  23936689.2274                   23936688.4844
   7256094.31647   5638555.30145  23098542.6884                   23098539.8444
   1240039.10948    972978.33646  20918033.5634                   20918030.8594
   2186522.96546   1709779.62543  24003835.7344                   24003835.6024
 11  7 24 15 13 30.0000000  0  8G06G16G20G23G03G31G32G13
    796473.27747    630127.47344  23782978.2274                   23782976.8594
  -6506373.35248  -5043005.95346  20307128.3134                   20307124.3714
  -2671950.57048  -2054047.51646  20849598.0394                   20849594.4774
  -7663146.16048  -5948906.06645  21827771.6254                   21827766.9654
   1777071.87546   1395642.91443  23913350.8204                   23913349.8634
   7295594.99247   5669335.02345  23106060.0164                   23106056.6254
   1245607.11748    977317.02046  20919092.8754                   20919090.0594
   2069294.27746   1618432.69143  23981527.9064                   23981527.2734
 11  7 24 15 14  0.0000000  0  8G06G16G20G23G03G31G32G13
    690666.39147    547680.55543  23762843.9534                   23762842.6414
  -6574414.38348  -5096024.93046  20294180.5164                   20294176.5944
  -2701045.49648  -2076718.89546  20844061.4534                   20844058.0164
  -7768167.84048  -6030741.11345  21807786.8054                   21807781.8794
   1654336.59446   1300005.05943  23889994.2814                   23889993.7774
   7335050.31347   5700079.39145  23113567.8594                   23113564.5474
   1251640.54748    982018.37946  20920241.1094                   20920238.4534
   1951989.52746   1527026.49243  23959205.0944                   23959203.6604
 11  7 24 15 14 30.0000000  0  8G06G16G20G23G03G31G32G13
    584893.77747    465260.36344  23742715.1954                   23742714.7704
  -6641878.85547  -5148594.63346  20281342.5864                   20281338.6724
  -2729578.26648  -2098952.23046  20838632.1334                   20838628.3364
  -7873117.89848  -6112520.35945  21787815.7974                   21787810.1454
   1531518.89846   1204302.98043  23866623.0394                   23866621.6374
   7374464.04747   5730791.35945  23121068.1024                   23121064.6914
   1258142.43048    987084.76646  20921478.2114                   20921475.5314
   1834613.25446   1435564.54343  23936869.8364                   23936867.5944
 11  7 24 15 15  0.0000000  0  8G06G16G20G23G03G31G32G13
    479155.78546    382867.13743  23722594.0394                   23722592.7424
  -6708768.04748  -5200716.07446  20268613.8524                   20268609.9924
  -2757551.57848  -2120749.62146  20833308.6334                   20833304.7034
  -7977997.27348  -6194244.53545  21767857.7734                   21767852.3914
   1408619.17646   1108536.96543  23843236.0164                   23843234.8874
   7413832.66847   5761468.18445  23128559.5704                   23128556.2664
   1265109.18048    992513.37546  20922804.0554                   20922801.4024
   1717164.09046   1344045.81343  23914519.6954                   23914517.2034
 11  7 24 15 15 30.0000000  0  8G06G16G20G23G03G31G32G13
    373458.07047    300505.27743  23702480.9534                   23702480.1454
  -6775078.73447  -5252386.72346  20255995.2114                   20255991.1564
  -2784962.92248  -2142109.12546  20828092.7424                   20828088.5084
  -8082801.60548  -6275910.22345  21747914.0784                   21747908.6024
   1285643.11746   1012711.49643  23819834.2664                   23819833.0554
   7453158.25447   5792111.48845  23136042.8444                   23136040.0394
   1272542.36348    998305.45346  20924218.6414                   20924216.0394
   1599645.68446   1252473.10243  23892156.9694                   23892153.8204
 11  7 24 15 16  0.0000000  0  8G06G16G20G23G03G31G32G13
    267800.51647    218174.74643  23682374.4924                   23682373.6604
  -6840812.83248  -5303608.08646  20243486.8984                   20243482.4494
  -2811815.64548  -2163033.32046  20822982.7424                   20822978.9024
  -8187532.08248  -6357518.36745  21727984.4454                   21727979.3164
   1162590.48846    916826.34443  23796418.1644                   23796417.2504
   7492437.13747   5822718.37945  23143517.4144                   23143514.8054
   1280437.55948   1004457.53146  20925721.1414                   20925718.2974
   1482055.90646   1160844.74643  23869780.0634                   23869777.4734
 11  7 24 15 16 30.0000000  0  8G06G16G20G23G03G31G32G13
    162187.71546    135879.07443  23662277.4534                   23662275.8714
  -6905967.82848  -5354378.19946  20231087.9454                   20231083.8094
  -2838108.69948  -2183521.42246  20817979.3204                   20817975.7894
  -8292185.39848  -6439066.37946  21708069.5554                   21708064.8134
   1039465.13746    820884.52744  23772988.4534                   23772987.5394
   7531670.09447   5853289.48845  23150983.1414                   23150980.6564
   1288795.48048   1010970.18046  20927311.5554                   20927308.6214
   1364397.21146   1069162.70743  23847390.2814                   23847387.8164
 11  7 24 15 17  0.0000000  0  8G06G16G20G23G03G31G32G13
   1632045.61347   1281222.90643  23941982.0474                   23941980.3404
  -5395120.78548  -4177094.77746  20518592.7814                   20518588.3794
  -1288421.78948   -975973.18746  21112875.0864                   21112871.1914
  -6821337.02348  -5292950.73846  21987962.7344                   21987957.7304
   2491694.05146   1952491.51243  24049338.3284                   24049337.1764
   9146274.96547   7111423.11745  23458232.1954                   23458229.9804
   2873034.04348   2245441.77046  21228782.0704                   21228779.4414
   2822093.96146   2205030.36743  24124781.2034                   24124778.4654
 11  7 24 15 17 30.0000000  0  8G06G16G20G23G03G31G32G13
   1526527.57046   1199001.06643  23921902.6094                   23921901.0634
  -5459118.26648  -4226962.92646  20506414.1564                   20506410.3554
  -1313599.68048   -995592.32046  21108083.5164                   21108080.0514
  -6925834.53548  -5374377.35246  21968077.3834                   21968072.5474
   2368429.28546   1856441.07043  24025881.9064                   24025880.8674
   9185410.51647   7141918.32445  23465679.4614                   23465677.2034
   2882310.07848   2252669.82446  21230547.0784                   21230544.2894
   2704296.58247   2113240.25043  24102364.7424                   24102362.9734
 11  7 24 15 18  0.0000000  0  8G06G16G20G23G03G31G32G13
   1421059.91846   1116818.52743  23901832.3284                   23901831.1214
  -5522537.27747  -4276380.33246  20494345.8674                   20494341.9884
  -1338222.05948  -1014778.60246  21103398.1254                   21103394.4884
  -7030252.91448  -5455742.30145  21948207.2814                   21948202.4344
   2245097.23446   1760338.23443  24002412.4844                   24002410.7774
   9224495.05547   7172373.77045  23473117.1174                   23473114.6054
   2892041.78148   2260252.95746  21232399.1024                   21232396.3874
   2586429.88747   2021396.13743  24079935.7344                   24079933.5744
 11  7 24 15 18 30.0000000  0  8G06G16G20G23G03G31G32G13
   1315645.59446   1034677.52743  23881772.7344                   23881771.2464
  -5585376.91047  -4325346.26646  20482388.2584                   20482383.2624
  -1362289.34848  -1033532.34446  21098818.1804                   21098815.0984
  -7134590.24648  -5537044.10245  21928352.6024                   21928347.2074
   2121701.34846   1664185.62143  23978931.0944                   23978929.6914
   9263528.14147   7202789.12945  23480544.8284                   23480541.9734
   2902228.09848   2268190.32446  21234337.6094                   21234335.0164
   2468494.55546   1929498.53543  24057492.7424                   24057491.4884
 11  7 24 15 19  0.0000000  0  8G06G16G20G23G03G31G32G13
   1210288.05146    952580.78543  23861724.0084                   23861722.7584
  -5647635.70747  -4373859.60246  20470540.4144                   20470536.4494
  -1385801.80548  -1051853.75046  21094344.0784                   21094340.3714
  -7238844.52748  -5618281.18045  21908513.3054                   21908508.3444
   1998244.76246   1567985.73843  23955437.1414                   23955436.6954
   9302509.39147   7233164.08245  23487962.3204                   23487959.9454
   2912868.16848   2276481.27046  21236361.9924                   21236359.7074
   2350492.39846   1837548.88343  24035037.9064                   24035036.4024
 11  7 24 15 19 30.0000000  0  8G06G16G20G23G03G31G32G13
   1104991.73446    870531.74643  23841686.7424                   23841684.8714
  -5709311.85248  -4421918.92646  20458803.8284                   20458800.1134
  -1408758.12948  -1069741.79346  21089975.7734                   21089971.9844
  -7343012.77747  -5699451.21145  21888690.8284                   21888685.6684
   1874731.83646   1471741.98044  23931934.0234                   23931933.1294
   9341439.36347   7263499.10245  23495370.8444                   23495368.2194
   2923962.09048   2285125.86746  21238473.6414                   21238470.6764
   2232425.58246   1745548.84443  24012569.8834                   24012568.4924
 11  7 24 15 20  0.0000000  0  8G06G16G20G23G03G31G32G13
    999758.18446    788531.62144  23821661.6954                   23821660.2194
  -5770405.76647  -4469524.56246  20447178.0554                   20447174.1024
  -1431160.32848  -1087198.07046  21085712.7034                   21085708.7544
  -7447094.19548  -5780553.59045  21868885.0394                   21868879.5274
   1751163.91446   1375455.30944  23908419.4844                   23908418.8634
   9380316.52347   7293792.96545  23502769.4694                   23502766.3364
   2935507.29348   2294122.10546  21240670.5164                   21240667.8984
   2114293.89146   1653498.27343  23990090.0784                   23990089.1994
 11  7 24 15 20 30.0000000  0  8G06G16G20G23G03G31G32G13
    894588.16847    706581.01243  23801648.5944                   23801646.6994
  -5830918.87547  -4516677.63746  20435662.6564                   20435659.3874
  -1453011.11348  -1104224.66046  21081554.7344                   21081551.1684
  -7551089.10248  -5861588.55945  21849095.5004                   21849089.9064
   1627541.90646   1279126.53144  23884895.0234                   23884894.5704
   9419137.97347   7324043.42245  23510156.4774                   23510153.5164
   2947500.26248   2303467.26246  21242952.7504                   21242949.9184
   1996095.69946   1561395.86743  23967597.6644                   23967596.3834
 11  7 24 15 21  0.0000000  0  8G06G16G20G23G03G31G32G13
    789487.14547    624684.14543  23781648.2504                   23781646.2624
  -5890847.66448  -4563375.39146  20424258.6804                   20424254.6294
  -1474308.71948  -1120820.19946  21077502.0234                   21077498.1954
  -7654993.58648  -5942553.06645  21829322.9614                   21829317.3324
   1503871.19946   1182759.81343  23861361.4064                   23861360.4104
   9457905.48447   7354251.84445  23517534.2034                   23517530.6764
   2959942.02348   2313162.12146  21245320.1174                   21245317.6374
   1877834.82446   1469244.57843  23945093.7274                   23945092.5514
 11  7 24 15 21 30.0000000  0  8G06G16G20G23G03G31G32G13
    684460.74646    542845.42244  23761662.3444                   23761660.8954
  -5950189.53547  -4609615.80146  20412966.5084                   20412962.2584
  -1495050.91048  -1136982.95746  21073554.5634                   21073551.2424
  -7758803.12148  -6023443.57445  21809568.7194                   21809563.4884
   1380157.08246   1086359.25844  23837818.9844                   23837818.3164
   9496621.06347   7384419.82045  23524901.5314                   23524898.1724
   2972833.96548   2323207.77046  21247773.3754                   21247770.8134
   1759514.75046   1377047.18043  23922577.6884                   23922576.7974
 11  7 24 15 22  0.0000000  0  8G06G16G20G23G03G31G32G13
    579512.83646    461067.86743  23741691.4534                   23741690.0044
  -6008942.83648  -4655397.59446  20401785.8364                   20401782.1334
  -1515237.48448  -1152712.76246  21069713.4064                   21069709.5394
  -7862514.68748  -6104257.75845  21789832.8134                   21789827.7114
   1256403.86746    989928.23044  23814269.4844                   23814268.8634
   9535285.13347   7414547.66044  23532259.0004                   23532255.7584
   2986175.55948   2333603.78946  21250312.3754                   21250309.6334
   1641137.28546   1284805.05143  23900051.3364                   23900050.1994
 11  7 24 15 22 30.0000000  0  8G06G16G20G23G03G31G32G13
    474643.69146    379351.71143  23721735.6414                   23721734.0124
  -6067108.97347  -4700721.85546  20390717.1954                   20390713.5164
  -1534872.05548  -1168012.43446  21065976.9924                   21065973.3444
  -7966129.68748  -6184996.69545  21770115.4534                   21770110.6254
   1132611.30946    893466.55143  23790712.8284                   23790711.9064
   9573894.36347   7444632.76645  23539606.0784                   23539602.6094
   2999962.66448   2344346.96146  21252935.9924                   21252933.1994
   1522700.99646   1192517.07443  23877514.7664                   23877512.4224
 11  7 24 15 23  0.0000000  0  8G06G16G20G23G03G31G32G13
    369857.30546    297700.01643  23701795.4774                   23701793.8524
  -6124687.51248  -4745588.24247  20379760.5394                   20379756.4414
  -1553953.73848  -1182881.29346  21062345.7974                   21062342.3244
  -8069644.88347  -6265657.86746  21750417.2584                   21750412.2814
   1008783.44946    796977.37144  23767149.1804                   23767147.9304
   9612449.13747   7474675.43445  23546942.4534                   23546939.5164
   3014194.76248   2355436.88746  21255644.5554                   21255641.7384
   1404207.72346   1100184.70343  23854965.4844                   23854963.5084
 11  7 24 15 23 30.0000000  0  8G06G16G20G23G03G31G32G13
    265158.82046    216116.83643  23681871.8754                   23681869.8404
  -6181675.07448  -4789994.13746  20368916.5944                   20368912.0704
  -1572481.52348  -1197318.54746  21058820.0084                   21058816.7624
  -8173056.38748  -6346238.23446  21730738.5864                   21730733.4534
    884925.45747    700464.69144  23743579.7974                   23743579.1414
   9650951.03147   7504676.89545  23554269.6174                   23554266.3954
   3028872.68848   2366874.21546  21258437.3594                   21258434.6334
   1285660.58246   1007810.32843  23832407.0474                   23832404.4694
 11  7 24 15 24  0.0000000  0  8G06G16G20G23G03G31G32G13
    160550.52346    134603.92243  23661965.7974                   23661963.7974
  -6238071.68748  -4833939.54346  20358184.3444                   20358180.0554
  -1590456.58248  -1211325.09046  21055399.5704                   21055395.9384
  -8276362.68747  -6426736.62946  21711080.1174                   21711075.1414
    761039.87947    603930.53544  23720005.4454                   23720003.8134
   9689399.28547   7534636.55145  23561585.8524                   23561583.3164
   3043994.50847   2378657.43046  21261314.8524                   21261312.4384
   1167060.16846    915394.47743  23809838.9454                   23809834.8014
 11  7 24 15 24 30.0000000  0  8G06G16G20G23G03G31G32G13
     56035.06346     53163.32444  23642076.4454                   23642075.6884
  -6293877.51648  -4877424.60246  20347564.3674                   20347560.7344
  -1607880.43048  -1224902.12946  21052083.8524                   21052080.7234
  -8379562.72747  -6507152.23046  21691441.8754                   21691436.8714
    637129.01246    507376.66843  23696425.5944                   23696424.6294
   9727792.27747   7564553.14144  23568891.8754                   23568889.1294
   3059558.00047   2390784.80546  21264276.1484                   21264273.8484
   1048407.09046    822937.55543  23787259.3834                   23787256.2194
 11  7 24 15 25  0.0000000  0  8G06G16G20G23G03G31G32G13
    -48384.50846    -28202.51244  23622206.0004                   23622204.9384
  -6349091.87948  -4920448.76646  20337057.8284                   20337053.9104
  -1624753.30548  -1238049.82846  21048872.9844                   21048869.6954
  -8482654.71147  -6587483.63346  21671824.2664                   21671819.2934
    513195.83246    410805.41444  23672842.0394                   23672839.9414
   9766129.81647   7594426.50444  23576187.1174                   23576184.1994
   3075561.95348   2403255.40246  21267322.2814                   21267319.4264
    929702.60946    730440.63743  23764670.4144                   23764667.4774
 11  7 24 15 25 30.0000000  0  8G06G16G20G23G03G31G32G13
   -152705.10546   -109491.24643  23602355.0634                   23602353.0234
  -6403714.35548  -4963011.73047  20326663.7424                   20326659.7074
  -1641076.03148  -1250768.84446  21045767.1414                   21045763.4384
  -8585636.23048  -6667728.96546  21652227.2894                   21652222.1764
    389243.58246    314219.31644  23649254.7194                   23649253.5044
   9804411.91447   7624256.67645  23583471.7584                   23583469.4924
   3092005.04348   2416068.17246  21270450.9304                   21270448.8484
    810947.96946    637904.64143  23742071.6024                   23742068.2624
 11  7 24 15 26  0.0000000  0  8G06G16G20G23G03G31G32G13
   -256922.93046   -190699.90244  23582522.6334                   23582521.6294
  -6457743.65648  -5005112.46946  20316382.0864                   20316378.1134
  -1656848.70348  -1263059.25046  21042765.9224                   21042762.1844
  -8688505.01648  -6747886.43446  21632652.4774                   21632647.1764
    265276.35947    217621.53544  23625664.9064                   23625663.2544
   9842638.61747   7654043.66445  23590746.6724                   23590743.8244
   3108886.30148   2429222.37146  21273663.5004                   21273660.7664
    692144.98046    545330.96543  23719463.6564                   23719460.6484
 11  7 24 15 26 30.0000000  0  8G06G16G20G23G03G31G32G13
   -361033.22346   -271824.76644  23562711.0474                   23562709.2734
  -6511177.79748  -5046749.45346  20306213.5784                   20306210.1094
  -1672070.39548  -1274920.32446  21039868.8284                   21039865.1684
  -8791257.00848  -6827952.89846  21613099.0164                   21613094.1094
    141298.36346    121015.37144  23602072.4454                   23602071.0164
   9880810.87147   7683788.24645  23598009.8444                   23598007.8014
   3126206.07448   2442718.28146  21276959.4144                   21276956.4734
    573296.18846    452721.60243  23696848.1954                   23696844.5234
 11  7 24 15 27  0.0000000  0  8G06G16G20G23G03G31G32G13
   -465035.06246   -352865.11344  23542919.6884                   23542918.6174
  -6564018.02048  -5087923.63747  20296158.7974                   20296154.7854
  -1686743.80948  -1286354.16446  21037076.6804                   21037072.9614
  -8893892.62947  -6907928.68046  21593568.5004                   21593563.0234
     17310.62146     24401.59044  23578478.1954                   23578476.5824
   9918926.30947   7713488.54345  23605262.9224                   23605261.1564
   3143960.70348   2456553.02746  21280338.0634                   21280335.2464
    454400.44146    360075.63743  23674223.0554                   23674219.4384
 11  7 24 15 27 30.0000000  0  8G06G16G20G23G03G31G32G13
   -568923.28946   -433816.93044  23523150.7974                   23523149.2424
  -6616262.52748  -5128633.63346  20286216.8984                   20286212.7074
  -1700868.05547  -1297360.08246  21034389.0864                   21034385.3054
  -8996407.59047  -6987810.44546  21574060.1644                   21574054.9734
   -106681.60246    -72215.62544  23554882.6414                   23554881.4804
   9956986.85547   7743146.06345  23612506.4614                   23612503.4734
   3162150.81347   2470727.11346  21283799.6484                   21283796.9104
    335461.72746    267396.21544  23651589.6414                   23651586.8674
 11  7 24 15 28  0.0000000  0  8G06G16G20G23G03G31G32G13
   -672696.40246   -514679.03544  23503403.1804                   23503402.2624
  -6667912.21948  -5168880.13747  20276388.2734                   20276384.4264
  -1714445.39547  -1307939.84046  21031805.3134                   21031801.8674
  -9098801.72347  -7067598.05946  21554575.1724                   21554569.9224
   -230676.82046   -168835.19944  23531287.4614                   23531286.3404
   9994990.37146   7772759.14545  23619738.5704                   23619735.3834
   3180773.09847   2485237.96146  21287343.5084                   21287340.6414
    216479.49647    174682.82844  23628948.2114                   23628945.5274
 11  7 24 15 28 30.0000000  0  8G06G16G20G23G03G31G32G13
   -776349.66046   -595447.74644  23483678.7424                   23483677.0204
  -6718965.33248  -5208661.77046  20266673.1484                   20266669.3364
  -1727475.14147  -1318092.90246  21029326.0004                   21029322.1454
  -9201071.35547  -7147288.66846  21535113.7034                   21535108.1484
   -354670.00446   -265453.17244  23507691.8134                   23507690.9964
  10032938.10247   7802328.78144  23626959.3444                   23626956.7704
   3199827.99248   2500085.91046  21290969.3364                   21290966.5784
     97456.55147     81937.74244  23606298.2894                   23606296.4224
 11  7 24 15 29  0.0000000  0  8G06G16G20G23G03G31G32G13
   -879881.94946   -676122.20344  23463977.6334                   23463976.0394
  -6769423.28148  -5247979.63747  20257071.4224                   20257067.6454
  -1739959.91048  -1327821.31646  21026950.2344                   21026946.7034
  -9303216.35547  -7226882.15646  21515676.1804                   21515670.9694
   -478660.08646   -362068.74644  23484097.2504                   23484096.1174
  10070827.81346   7831853.19545  23634169.8754                   23634166.6374
   3219311.78547   2515268.06346  21294676.9924                   21294674.1484
    -21607.82847    -10839.64144  23583641.4304                   23583639.4344
 11  7 24 15 29 30.0000000  0  8G06G16G20G23G03G31G32G13
   -983289.23046   -756699.25844  23444299.3054                   23444298.0784
  -6819284.75848  -5286832.73847  20247583.0634                   20247579.0434
  -1751899.99248  -1337125.28946  21024678.0394                   21024674.5084
  -9405233.58248  -7306376.07446  21496262.9304                   21496257.4924
   -602643.31246   -458678.95744  23460504.1484                   23460502.7934
  10108659.90247   7861332.70745  23641368.7894                   23641365.7304
   3239224.02047   2530784.06646  21298465.8524                   21298463.2544
   -140711.54747   -103647.69544  23560976.5864                   23560975.0744
 11  7 24 15 30  0.0000000  0  8G06G16G20G23G03G31G32G13
  -1086565.77747   -837174.43744  23424646.5004                   23424645.5354
  -6868547.01648  -5325218.90246  20238208.6174                   20238204.8364
  -1763293.47347  -1346003.34846  21022509.8594                   21022506.3914
  -9507118.80548  -7385767.12946  21476874.8674                   21476869.3284
   -726614.05946   -555279.46544  23436913.0784                   23436912.0704
  10146436.74647   7890769.17244  23648557.4384                   23648554.7274
   3259565.22747   2546634.33646  21302337.0234                   21302334.0904
   -259850.77747   -196483.41444  23538305.0164                   23538303.6564
 11  7 24 15 30 30.0000000  0  8G06G16G20G23G03G31G32G13
  -1189710.52746   -917546.90244  23405018.5004                   23405017.4884
  -6917211.48448  -5363139.26647  20228947.8364                   20228944.2704
  -1774143.29347  -1354457.76246  21020445.0314                   21020441.7384
  -9608871.74648  -7465055.11746  21457512.0004                   21457506.8524
   -850570.57846   -651868.88344  23413325.4304                   23413323.8244
  10184155.69147   7920160.52744  23655734.9384                   23655732.2854
   3280332.52048   2562816.62546  21306288.9224                   21306286.2074
   -379025.83647   -289347.05144  23515626.7734                   23515625.5044
 11  7 24 15 31  0.0000000  0  8G06G16G20G23G03G31G32G13
  -1292719.25046   -997813.36744  23385416.6644                   23385415.3444
  -6965277.34048  -5400593.17646  20219801.6334                   20219797.5904
  -1784449.56647  -1362488.64146  21018484.2974                   21018480.5434
  -9710489.21548  -7544237.54346  21438174.6174                   21438169.5984
   -974509.03546   -748444.23844  23389740.2274                   23389739.3284
  10221818.06347   7949507.78944  23662901.9454                   23662899.2814
   3301525.02347   2579330.24646  21310321.4844                   21310318.8014
   -498234.69147   -382237.04344  23492942.3444                   23492940.7274
 11  7 24 15 31 30.0000000  0  8G06G16G20G23G03G31G32G13
  -1395587.48846  -1077970.38344  23365842.1094                   23365839.8134
  -7012742.71148  -5437579.16846  20210768.9144                   20210765.1094
  -1794211.80148  -1370095.58646  21016626.3674                   21016622.8054
  -9811967.54348  -7623311.53946  21418864.1174                   21418858.6914
  -1098424.61346   -845001.75044  23366159.9844                   23366158.3134
  10259424.89847   7978811.77744  23670057.9384                   23670055.4774
   3323142.59448   2596175.08246  21314435.2584                   21314432.8754
   -617474.43747   -475151.06643  23470251.2504                   23470249.6564
 11  7 24 15 32  0.0000000  0  8G06G16G20G23G03G31G32G13
  -1498313.82047  -1158016.84044  23346293.4224                   23346291.8754
  -7059609.26648  -5474098.56647  20201850.7974                   20201846.8244
  -1803432.62947  -1377280.66446  21014871.6254                   21014868.1644
  -9913306.44948  -7702276.89846  21399579.7504                   21399574.7934
  -1222316.02046   -941540.45344  23342584.6174                   23342582.7344
  10296974.04747   8008070.81344  23677203.8834                   23677200.6644
   3345181.80948   2613348.47746  21318629.3674                   21318626.7034
   -736745.64846   -568089.61743  23447554.5704                   23447553.2304
 11  7 24 15 32 30.0000000  0  8G06G16G20G23G03G31G32G13
  -1600894.85547  -1237950.04744  23326772.8284                   23326771.1954
  -7105876.50048  -5510150.94546  20193046.2034                   20193042.3324
  -1812112.94547  -1384044.55946  21013219.7194                   21013216.2304
 -10014503.79348  -7781131.95346  21380322.7344                   21380317.2274
  -1346179.69546  -1038057.52744  23319013.4774                   23319011.9614
  10334465.59447   8037284.95744  23684338.2194                   23684335.6254
   3367641.34847   2630849.39146  21322903.2664                   21322900.9304
   -856046.78147   -661051.50443  23424852.5554                   23424851.2974
 11  7 24 15 33  0.0000000  0  8G06G16G20G23G03G31G32G13
  -1703329.11347  -1317768.89544  23307280.0394                   23307278.8054
  -7151545.98848  -5545737.56246  20184355.8914                   20184352.0514
  -1820255.80947  -1390389.65646  21011670.5474                   21011667.2344
 -10115559.30948  -7859876.49246  21361092.3984                   21361087.3674
  -1470014.21546  -1134551.91044  23295448.5864                   23295447.1334
  10371897.38747   8066452.55144  23691461.3754                   23691458.4024
   3390517.84048   2648675.21146  21327256.4144                   21327253.8984
   -975378.37147   -754037.09843  23402144.6724                   23402142.4964
 11  7 24 15 33 30.0000000  0  8G06G16G20G23G03G31G32G13
  -1805612.40646  -1397470.10944  23287816.3134                   23287814.7544
  -7196616.51248  -5580857.44147  20175779.1954                   20175774.8164
  -1827860.43048  -1396315.35246  21010223.2814                   21010219.7934
 -10216468.89148  -7938507.31246  21341889.9304                   21341884.8404
  -1593814.88746  -1231019.90244  23271889.7034                   23271889.1764
  10409270.53947   8095574.44544  23698573.4694                   23698570.5434
   3413810.96148   2666825.66846  21331688.9064                   21331686.5904
  -1094737.06647   -847043.83243  23379431.6484                   23379428.8524
 11  7 24 15 34  0.0000000  0  8G06G16G20G23G03G31G32G13
  -1907737.85946  -1477048.33244  23268382.3674                   23268380.5704
  -7241084.39148  -5615507.73447  20167317.3524                   20167313.3244
  -1834924.61347  -1401819.93746  21008879.3134                   21008875.8094
 -10317227.54348  -8017020.52746  21322716.1954                   21322710.7464
  -1717574.82846  -1327456.16044  23248338.8754                   23248338.0864
  10446588.43447   8124653.27344  23705674.8914                   23705671.9964
   3437522.59447   2685302.24246  21336201.6724                   21336199.0234
  -1214118.49247   -940068.28144  23356713.9384                   23356711.1174
 11  7 24 15 34 30.0000000  0  8G06G16G20G23G03G31G32G13
  -2009701.69546  -1556500.63744  23248979.3284                   23248977.4924
  -7284948.72748  -5649687.71947  20158969.7814                   20158965.9574
  -1841448.35548  -1406903.38746  21007637.6724                   21007633.8164
 -10417831.82448  -8095413.46546  21303572.0474                   21303566.3984
  -1841290.54746  -1423857.96544  23224796.9534                   23224795.8524
  10483851.55947   8153689.44544  23712765.5474                   23712763.0784
   3461651.59848   2704104.03546  21340792.9774                   21340790.5704
  -1333520.19546  -1033108.49644  23333991.5004                   23333989.3714
 11  7 24 15 35  0.0000000  0  8G06G16G20G23G03G31G32G13
  -2111500.39146  -1635824.24644  23229607.8284                   23229605.9844
  -7328208.91848  -5683396.95746  20150737.7424                   20150733.8134
  -1847433.02347  -1411566.78546  21006498.5784                   21006495.2034
 -10518279.79748  -8173684.59446  21284457.0944                   21284452.0274
  -1964958.25046  -1520222.36744  23201263.5164                   23201262.2774
  10521060.16047   8182683.12544  23719846.3134                   23719843.8674
   3486196.80948   2723230.14846  21345463.3834                   21345461.0744
  -1452940.44147  -1126163.18443  23311267.4384                   23311264.6134
 11  7 24 15 35 30.0000000  0  8G06G16G20G23G03G31G32G13
  -2213134.54746  -1715019.64544  23210267.3674                   23210265.2664
  -7370869.10548  -5716638.65646  20142619.7194                   20142615.8634
  -1852883.14547  -1415813.65646  21005461.7814                   21005458.2704
 -10618572.72748  -8251834.91846  21265371.8834                   21265366.8554
  -2088578.24646  -1616549.59844  23177739.1644                   23177737.5354
  10558209.91847   8211630.94544  23726915.3054                   23726913.0394
   3511152.75047   2742676.31346  21350212.6174                   21350210.2734
  -1572381.87946  -1219234.39543  23288538.2584                   23288535.5784
 11  7 24 15 36  0.0000000  0  8G06G16G20G23G03G31G32G13
  -2314600.81647  -1794084.23444  23190958.9144                   23190956.9264
  -7412929.08648  -5749412.66046  20134615.9304                   20134612.2544
  -1857799.62548  -1419644.69946  21004526.2814                   21004522.8014
 -10718708.24648  -8329862.58246  21246316.8594                   21246311.6764
  -2212147.05146  -1712836.93044  23154225.2194                   23154224.2854
  10595301.09047   8240533.10944  23733974.2274                   23733971.1994
   3536517.74247   2762441.21946  21355039.5314                   21355037.0274
  -1691842.51246  -1312320.54344  23265804.8284                   23265803.5234
 11  7 24 15 36 30.0000000  0  8G06G16G20G23G03G31G32G13
  -2415895.72746  -1873015.28944  23171682.5864                   23171681.2774
  -7454388.52347  -5781718.71546  20126726.8204                   20126722.7274
  -1862183.61748  -1423060.81246  21003691.9694                   21003688.5394
 -10818683.81248  -8407765.60946  21227292.0784                   21227286.8364
  -2335661.32846  -1809081.77744  23130721.6024                   23130719.7664
  10632333.87147   8269389.77044  23741020.6334                   23741018.5634
   3562290.65647   2782523.98046  21359943.7424                   21359941.4574
  -1811320.66446  -1405420.35244  23243069.4064                   23243067.8834
 11  7 24 15 37  0.0000000  0  8G06G16G20G23G03G31G32G13
  -2517015.83246  -1951810.13344  23152440.7274                   23152438.2584
  -7495247.40248  -5813556.80546  20118951.5084                   20118947.4694
  -1866036.32047  -1426062.93446  21002958.6484                   21002955.1414
 -10918497.03948  -8485542.13746  21208298.3674                   21208292.9494
  -2459117.69146  -1905281.51244  23107228.0394                   23107226.5474
  10669308.22747   8298200.92644  23748057.2114                   23748053.7704
   3588469.68447   2802923.19546  21364925.6564                   21364923.2934
  -1930814.66846  -1498532.48044  23220330.5234                   23220328.9844
 11  7 24 15 37 30.0000000  0  8G06G16G20G23G03G31G32G13
  -2617957.75046  -2030466.12944  23133231.4384                   23133229.8984
  -7535505.07448  -5844926.41446  20111290.5314                   20111286.6764
  -1869358.30947  -1428651.52046  21002326.7424                   21002322.9384
 -11018145.41448  -8563190.20346  21189336.0084                   21189330.4534
  -2582512.18046  -2001433.03544  23083747.2814                   23083745.5864
  10706224.41447   8326966.75044  23755081.9844                   23755079.4964
   3615053.58647   2823637.89846  21369984.1884                   21369981.8914
  -2050322.77346  -1591655.64844  23197589.1094                   23197587.1214
 11  7 24 15 38  0.0000000  0  8G06G16G20G23G03G31G32G13
  -2718719.80546  -2108981.97344  23114057.3364                   23114055.0514
  -7575163.14548  -5875828.80946  20103743.9614                   20103739.9924
  -1872152.34047  -1430828.69546  21001794.8834                   21001790.9654
 -11117628.08648  -8640709.16446  21170404.9224                   21170399.8284
  -2705842.84046  -2097534.80944  23060278.1334                   23060276.5594
  10743080.82447   8355685.97744  23762095.4384                   23762092.2234
   3642039.09447   2844665.54746  21375119.5864                   21375117.3324
  -2169844.76247  -1684789.60244  23174844.5704                   23174842.6374
 11  7 24 15 38 30.0000000  0  8G06G16G20G23G03G31G32G13
  -2819298.42247  -2187354.87944  23094917.9924                   23094915.9964
  -7614221.82848  -5906264.15246  20096311.2664                   20096307.3954
  -1874418.93047  -1432594.88746  21001363.4694                   21001360.1134
 -11216942.53548  -8718097.03546  21151506.0084                   21151500.8914
  -2829106.45346  -2193584.35544  23036821.4224                   23036820.1884
  10779877.82047   8384358.91845  23769097.8444                   23769095.3754
   3669424.83247   2866005.05146  21380330.7894                   21380328.1484
  -2289378.62546  -1777932.82044  23152098.3364                   23152095.9924
 11  7 24 15 39  0.0000000  0  8G06G16G20G23G03G31G32G13
  -2919690.34446  -2265582.31644  23075814.0314                   23075812.0314
  -7652680.85248  -5936232.21947  20088992.8444                   20088989.0784
  -1876159.55547  -1433951.23446  21001032.4454                   21001028.8284
 -11316086.31648  -8795351.91046  21132639.7584                   21132634.1644
  -2952299.23846  -2289578.71144  23013378.5634                   23013377.3794
  10816615.24647   8412985.45344  23776088.7664                   23776086.0554
   3697209.19948   2887655.17646  21385617.8674                   21385615.5234
  -2408923.03547  -1871084.27344  23129349.7814                   23129347.0164
 11  7 24 15 39 30.0000000  0  8G06G16G20G23G03G31G32G13
  -3019891.61746  -2343661.18444  23056745.7504                   23056744.4654
  -7690539.63747  -5965732.57046  20081788.3754                   20081784.9534
  -1877374.86347  -1434898.24646  21000800.9534                   21000797.5594
 -11415056.62948  -8872471.60946  21113806.0864                   21113800.9144
  -3075416.98446  -2385514.57844  22989950.7034                   22989948.8954
  10853293.93847   8441566.18844  23783068.5704                   23783066.2304
   3725390.87147   2909614.88346  21390980.7894                   21390978.6414
  -2528475.68047  -1964242.13744  23106599.6804                   23106597.0984
 11  7 24 15 40  0.0000000  0  8G06G16G20G23G03G31G32G13
  -3119898.73046  -2421588.76244  23037715.1954                   23037713.1374
  -7727798.42247  -5994765.38746  20074698.5084                   20074694.4224
  -1878066.08647  -1435436.87946  21000669.4534                   21000666.1134
 -11513850.66848  -8949453.95746  21095006.1174                   21095000.8674
  -3198456.64846  -2481389.60944  22966536.0474                   22966534.7854
  10889913.81647   8470101.11744  23790037.0394                   23790034.5474
   3753968.40247   2931883.06346  21396419.0784                   21396416.8244
  -2648034.48446  -2057404.79344  23083847.7584                   23083844.8164
 11  7 24 15 40 30.0000000  0  8G06G16G20G23G03G31G32G13
  -3219711.23046  -2499364.68044  23018721.7584                   23018719.0864
  -7764459.58247  -6023332.52746  20067722.1724                   20067718.0784
  -1878236.74647  -1435569.88746  21000637.0474                   21000633.5984
 -11612468.75047  -9026299.21546  21076239.6804                   21076234.4104
  -3321416.29746  -2577202.28544  22943138.0864                   22943136.5474
  10926472.65647   8498588.46944  23796993.8834                   23796991.8484
   3782937.77047   2954456.57046  21401931.7814                   21401929.3874
  -2767600.46546  -2150573.06244  23061095.7814                   23061092.5314
 11  7 24 15 41  0.0000000  0  8G06G16G20G23G03G31G32G13
  -3319325.81246  -2576986.40244  22999765.1724                   22999763.2194
  -7800523.70748  -6051434.43746  20060859.3594                   20060855.5704
  -1877888.16847  -1435298.28146  21000703.8134                   21000700.3674
 -11710908.69147  -9103005.65246  21057507.6174                   21057502.1684
  -3444293.52547  -2672950.78944  22919755.1174                   22919754.2704
  10962970.02347   8527027.95344  23803939.1484                   23803936.7974
   3812296.83247   2977333.73846  21407518.5554                   21407516.5274
  -2887171.99247  -2243745.64844  23038341.8834                   23038338.7034
 11  7 24 15 41 30.0000000  0  8G06G16G20G23G03G31G32G13
  -1843318.21946  -1426850.58244  23280640.1954                   23280638.8364
  -6260571.60247  -4851471.75847  20353902.8674                   20353898.6024
   -301604.08647   -207024.99646  21300660.2114                   21300657.1414
 -10233746.98048  -7951970.53546  21338601.8524                   21338596.8954
  -1991663.16446  -1541030.95744  23196181.6484                   23196180.7074
  12574822.65247   9783016.94144  24110665.0554                   24110662.0474
   5417460.71947   4228110.76246  21712971.0704                   21712968.8954
  -1431325.64546  -1109319.86344  23315379.9144                   23315377.6564
 11  7 24 15 42  0.0000000  0  8G06G16G20G23G03G31G32G13
  -1942531.13347  -1504159.29744  23261760.7664                   23261759.2464
  -6295445.82048  -4878646.46546  20347266.2734                   20347262.1134
   -300225.16848   -205950.53546  21300922.6414                   21300919.6764
 -10331827.03947  -8028396.55146  21319937.8364                   21319932.7584
  -2114368.64846  -1636645.58244  23172830.9534                   23172830.2154
  12611193.61747   9811357.92644  24117585.8834                   24117583.4064
   5447590.29748   4251588.32046  21718704.7734                   21718702.5044
  -1550906.94547  -1202500.05944  23292624.2664                   23292621.5904
 11  7 24 15 42 30.0000000  0  8G06G16G20G23G03G31G32G13
  -2041539.28147  -1581308.46944  23242920.1564                   23242918.1134
  -6329726.34448  -4905358.55946  20340743.0084                   20340738.5164
   -298334.01648   -204476.92646  21301282.7344                   21301279.2304
 -10429724.72747  -8104680.44946  21301308.5474                   21301303.2274
  -2236984.04747  -1732190.01244  23149498.4614                   23149496.5984
  12647500.49247   9839648.94944  24124494.8444                   24124492.3594
   5478101.35547   4275363.14146  21724510.6024                   21724508.5314
  -1670491.77746  -1295682.98444  23269867.6804                   23269865.1954
 11  7 24 15 43  0.0000000  0  8G06G16G20G23G03G31G32G13
  -2140337.69147  -1658294.20744  23224119.7504                   23224117.7034
  -6363411.62548  -4931606.82446  20334332.6804                   20334328.8594
   -295930.14548   -202603.80546  21301740.3284                   21301736.5944
 -10527435.69947  -8180818.85946  21282714.5634                   21282709.6644
  -2359504.12546  -1827660.18744  23126184.0864                   23126182.0394
  12683745.46547   9867891.73444  24131391.7034                   24131389.7734
   5508994.06347   4299435.35246  21730389.4384                   21730387.0784
  -1790076.48846  -1388865.81244  23247111.4844                   23247109.3404
 11  7 24 15 43 30.0000000  0  8G06G16G20G23G03G31G32G13
  -2238923.85547  -1735114.55544  23205359.2114                   23205357.5474
  -6396502.78548  -4957392.14146  20328035.6564                   20328031.6174
   -293015.74647   -200332.85546  21302294.8914                   21302291.4694
 -10624958.39148  -8256810.55946  21264156.6884                   21264151.4184
  -2481925.98046  -1923053.79344  23102887.4534                   23102885.7544
  12719927.39847   9896085.39844  24138277.6174                   24138275.2234
   5540265.68447   4323802.82046  21736340.3364                   21736337.9304
  -1909660.02746  -1482047.73044  23224355.7194                   23224352.9104
 11  7 24 15 44  0.0000000  0  8G06G16G20G23G03G31G32G13
  -2337291.43446  -1811764.58244  23186640.0394                   23186638.5704
  -6428997.03948  -4982712.34046  20321852.2974                   20321848.3204
   -289589.35248   -197662.95346  21302946.7424                   21302943.2304
 -10722287.18448  -8332651.16846  21245635.6804                   21245630.4144
  -2604242.90247  -2018365.65244  23079611.2894                   23079609.8984
  12756049.34447   9924232.30944  24145151.2034                   24145148.4344
   5571917.54347   4348466.57046  21742363.7274                   21742361.3794
  -2029237.73847  -1575225.10544  23201601.6174                   23201597.8324
 11  7 24 15 44 30.0000000  0  8G06G16G20G23G03G31G32G13
  -2435440.09047  -1888244.02344  23167963.2734                   23167961.6484
  -6460897.90648  -5007570.15647  20315781.6804                   20315777.4654
   -285654.97348   -194597.22346  21303695.3204                   21303692.1454
 -10819422.60948  -8408341.09846  21227151.3754                   21227146.2194
  -2726454.56247  -2113595.47344  23056355.1334                   23056353.6484
  12792108.80947   9952330.54344  24152012.7734                   24152011.1884
   5603944.89147   4373422.91046  21748458.0474                   21748455.7384
  -2148810.50047  -1668398.62544  23178846.7034                   23178843.4694
 11  7 24 15 45  0.0000000  0  8G06G16G20G23G03G31G32G13
  -2533369.75846  -1964552.81644  23149327.8284                   23149326.0554
  -6492208.78548  -5031968.23847  20309823.2584                   20309819.5984
   -281217.34848   -191139.35546  21304540.0634                   21304536.4964
 -10916365.51647  -8483881.00846  21208703.8984                   21208698.5984
  -2848560.75447  -2208743.10944  23033119.2344                   23033117.6484
  12828102.70747   9980377.69544  24158862.5314                   24158860.1644
   5636342.85548   4398668.04345  21754623.4224                   21754621.0234
  -2268379.89547  -1761569.55544  23156093.9064                   23156089.8874
 11  7 24 15 45 30.0000000  0  8G06G16G20G23G03G31G32G13
  -2631076.92247  -2040688.22744  23130734.8984                   23130732.8484
  -6522929.75447  -5055906.65246  20303977.1564                   20303973.0164
   -276277.63348   -187290.25446  21305479.6564                   21305476.4344
 -11013113.05548  -8559268.68746  21190293.1884                   21190288.1484
  -2970557.45747  -2303805.42644  23009903.9224                   23009902.4494
  12864031.44146  10008374.06344  24165699.6724                   24165696.5204
   5669109.72348   4424200.63345  21760858.6954                   21760856.4144
  -2387944.08647  -1854736.41444  23133340.9614                   23133337.2664
 11  7 24 15 46  0.0000000  0  8G06G16G20G23G03G31G32G13
  -2728559.38347  -2116648.55144  23112184.3754                   23112182.7304
  -6553061.97347  -5079386.29746  20298243.6174                   20298239.3094
   -270837.91848   -183051.53946  21306515.3754                   21306511.8484
 -11109663.63347  -8634502.89546  21171920.4384                   21171915.0394
  -3092441.93747  -2398780.28944  22986710.0394                   22986708.5744
  12899894.23046  10036319.06644  24172523.9064                   24172521.3444
   5702242.62148   4450018.44946  21767163.5394                   21767161.3634
  -2507501.96147  -1947898.36344  23110590.3984                   23110586.3914
 11  7 24 15 46 30.0000000  0  8G06G16G20G23G03G31G32G13
  -2825814.06647  -2192431.37544  23093677.4384                   23093675.5234
  -6582606.44547  -5102407.95747  20292621.2344                   20292616.9774
   -264900.54748   -178425.03946  21307645.0944                   21307641.5044
 -11206015.10548  -8709581.94146  21153585.5944                   21153579.8834
  -3214211.38347  -2493665.50444  22963538.3594                   22963536.2194
  12935690.70747  10064212.38344  24179336.0164                   24179333.3324
   5735739.55948   4476119.93046  21773537.8754                   21773535.4344
  -2627051.64847  -2041053.93044  23087840.4304                   23087837.5004
 11  7 24 15 47  0.0000000  0  8G06G16G20G23G03G31G32G13
  -2922837.13747  -2268033.73044  23075214.5394                   23075212.5204
  -6611562.80948  -5124971.35947  20287110.8674                   20287106.9264
   -258465.93448   -173411.07446  21308869.3754                   21308866.1374
 -11302164.46548  -8784503.50446  21135288.8674                   21135283.1094
  -3335861.61347  -2588457.83644  22940388.8444                   22940386.9924
  12971421.79347  10092054.73044  24186134.9144                   24186133.1134
   5769599.28948   4502504.10245  21779981.0234                   21779978.6724
  -2746590.97746  -2134201.40244  23065092.7664                   23065089.9844
 11  7 24 15 47 30.0000000  0  8G06G16G20G23G03G31G32G13
  -3019627.05547  -2343454.39844  23056795.7274                   23056793.8014
  -6639933.37548  -5147078.29346  20281712.1804                   20281708.4304
   -251537.48048   -168012.29746  21310188.0554                   21310184.8164
 -11398110.80548  -8859266.87146  21117030.7664                   21117025.2504
  -3457390.71147  -2683155.78544  22917262.8754                   22917260.9414
  13007085.85947  10119844.83244  24192922.1804                   24192920.2304
   5803818.28548   4529168.21945  21786492.6954                   21786490.4844
  -2866119.84447  -2227340.70744  23042346.7894                   23042345.1724
 11  7 24 15 48  0.0000000  0  8G06G16G20G23G03G31G32G13
  -3116181.46147  -2418691.57044  23038422.2814                   23038420.6914
  -6667719.80948  -5168730.05546  20276424.4304                   20276420.8594
   -244117.74648   -162230.70346  21311600.1414                   21311596.6994
 -11493852.43748  -8933870.71946  21098811.6884                   21098806.3404
  -3578795.59447  -2777756.92644  22894159.7734                   22894158.4384
  13042682.43847  10147582.39544  24199695.0784                   24199693.8054
   5838393.62947   4556110.01646  21793072.2114                   21793070.0274
  -2985637.25047  -2320471.10945  23019604.2034                   23019601.8914
 11  7 24 15 48 30.0000000  0  8G06G16G20G23G03G31G32G13
  -3212496.21147  -2493741.96544  23020093.8054                   23020092.2274
  -6694921.47748  -5189926.16846  20271248.3134                   20271244.3364
   -236207.28548   -156066.73046  21313105.2424                   21313101.9844
 -11589386.43748  -9008312.78546  21080631.9774                   21080626.6644
  -3700072.24246  -2872258.14844  22871081.6564                   22871080.2704
  13078212.15247  10175267.83244  24206456.8674                   24206455.0354
   5873324.18447   4583328.59845  21799719.3594                   21799717.0164
  -3105140.39147  -2413590.38344  22996863.5474                   22996861.0084
 11  7 24 15 49  0.0000000  0  8G06G16G20G23G03G31G32G13
  -3308565.62947  -2568601.21144  23001812.5784                   23001810.6764
  -6721536.52048  -5210665.16446  20266183.9144                   20266179.4384
   -227805.55148   -149519.94546  21314703.9844                   21314701.0864
 -11684707.68748  -9082589.06646  21062493.0634                   21062487.9844
  -3821214.98846  -2966655.02744  22848028.1724                   22848026.9734
  13113677.91047  10202903.44544  24213206.6724                   24213203.2544
   5908610.56647   4610824.44545  21806434.4224                   21806432.1294
  -3224625.09447  -2506695.30545  22974126.4844                   22974123.6604
 11  7 24 15 49 30.0000000  0  8G06G16G20G23G03G31G32G13
  -3404386.27747  -2643266.60944  22983578.2664                   22983576.8014
  -6747565.28547  -5230947.32046  20261230.6414                   20261226.4184
   -218913.09848   -142590.78546  21316396.1804                   21316393.0514
 -11779813.08248  -9156697.16046  21044395.1724                   21044389.8484
  -3942219.22346  -3060943.97344  22825002.4304                   22825001.1094
  13149080.48847  10230489.82044  24219943.2584                   24219940.6524
   5944251.39147   4638596.48046  21813216.5084                   21813214.5234
  -3344088.81647  -2599783.88344  22951392.7734                   22951390.4694
 11  7 24 15 50  0.0000000  0  8G06G16G20G23G03G31G32G13
  -3499954.72347  -2717735.48844  22965392.6094                   22965390.5084
  -6773008.23848  -5250773.00447  20256388.8204                   20256384.8914
   -209532.07848   -135280.91846  21318181.7584                   21318178.5124
 -11874700.26248  -9230635.21146  21026338.5474                   21026333.2704
  -4063081.63746  -3155122.42244  22802003.2974                   22802001.0084
  13184419.89847  10258026.96544  24226668.3204                   24226665.3754
   5980244.75048   4666643.21946  21820065.9304                   21820063.8204
  -3463529.60947  -2692854.58244  22928663.8754                   22928661.2274
 11  7 24 15 50 30.0000000  0  8G06G16G20G23G03G31G32G13
  -3595266.90647  -2792004.66444  22947254.9694                   22947253.1054
  -6797865.00447  -5270141.91446  20251658.9844                   20251654.5864
   -199663.04348   -127590.78546  21320059.4534                   21320056.2734
 -11969365.80548  -9304400.55946  21008324.8204                   21008319.5984
  -4183797.60246  -3249186.75444  22779031.2894                   22779029.9884
  13219697.34047  10285515.83644  24233381.5634                   24233378.7894
   6016589.26647   4694963.57845  21826981.3134                   21826979.4454
  -3582944.88746  -2785905.42244  22905939.3754                   22905936.7814
 11  7 24 15 51  0.0000000  0  8G06G16G20G23G03G31G32G13
  -3690321.85947  -2866073.41844  22929166.5314                   22929164.9384
  -6822138.69948  -5289056.49647  20247039.9534                   20247035.5124
   -189309.82048   -119523.36746  21322029.4304                   21322026.2034
 -12063809.54748  -9377993.07446  20990352.4454                   20990347.1884
  -4304366.14547  -3343136.21944  22756087.8524                   22756086.7934
  13254910.39846  10312954.53144  24240082.0474                   24240080.3244
   6053280.84047   4723554.37945  21833963.6954                   21833962.0664
  -3702334.88746  -2878936.54344  22883220.1414                   22883217.4024
 11  7 24 15 51 30.0000000  0  8G06G16G20G23G03G31G32G13
  -3785114.70347  -2939937.93044  22911128.4774                   22911126.0234
  -6845828.26248  -5307515.89847  20242531.7664                   20242527.7234
   -178472.18448   -111078.48046  21324091.8594                   21324088.7974
 -12158027.02748  -9451409.28146  20972423.3834                   20972417.8204
  -4424781.61747  -3436966.39544  22733173.5554                   22733172.1994
  13290061.38346  10340344.84044  24246771.3134                   24246768.7034
   6090319.52048   4752415.65646  21841012.5314                   21841009.6214
  -3821695.91846  -2971945.10244  22860506.7584                   22860503.8874
 11  7 24 15 52  0.0000000  0  8G06G16G20G23G03G31G32G13
  -3879641.84447  -3013595.41044  22893140.1334                   22893138.0664
  -6868933.98048  -5325520.35946  20238134.8284                   20238130.9654
   -167151.78148   -102257.41446  21326246.2894                   21326242.8874
 -12252015.29748  -9524646.88746  20954537.8524                   20954532.2384
  -4545040.29747  -3530674.42244  22710289.6094                   22710287.1994
  13325150.80946  10367687.19144  24253448.2894                   24253445.8284
   6127703.32047   4781545.85245  21848126.3914                   21848124.0394
  -3941025.52347  -3064929.14544  22837798.7344                   22837796.2384
 11  7 24 15 52 30.0000000  0  8G06G16G20G23G03G31G32G13
  -3973900.25447  -3087043.49644  22875203.4614                   22875201.3404
  -6891456.80948  -5343070.61746  20233848.7974                   20233845.1374
   -155350.67248    -93061.77346  21328491.6954                   21328488.6374
 -12345772.10248  -9597704.12546  20936696.6024                   20936690.9694
  -4665138.87546  -3624257.68744  22687435.5864                   22687434.0234
  13360178.91446  10394981.77744  24260113.7584                   24260111.4884
   6165430.44147   4810943.56346  21855305.6334                   21855303.5744
  -4060321.88747  -3157887.31244  22815097.6564                   22815094.6764
 11  7 24 15 53  0.0000000  0  8G06G16G20G23G03G31G32G13
  -4067888.38747  -3160280.95744  22857317.9144                   22857315.8714
  -6913399.21548  -5360168.60546  20229673.7894                   20229669.4844
   -143072.20348    -83494.15646  21330828.3594                   21330825.0824
 -12439296.79748  -9670580.50046  20918899.5314                   20918894.3054
  -4785075.35547  -3717714.63744  22664612.1564                   22664610.1414
  13395144.18446  10422227.37944  24266767.5474                   24266764.8834
   6203496.83248   4840605.64845  21862549.2344                   21862547.2274
  -4179584.92647  -3250819.50844  22792402.5234                   22792399.4414
 11  7 24 15 53 30.0000000  0  8G06G16G20G23G03G31G32G13
  -4161602.72747  -3233305.09044  22839484.5474                   22839482.3554
  -6934761.54348  -5376814.58246  20225608.5634                   20225604.3674
   -130317.39548    -73555.37146  21333255.6174                   21333252.1804
 -12532586.30548  -9743273.62546  20901147.1024                   20901141.7464
  -4904845.60247  -3811042.05544  22641820.3364                   22641818.7704
  13430047.34846  10449424.59844  24273409.2974                   24273407.0124
   6241901.00048   4870530.93445  21869857.7894                   21869855.3164
  -4298812.22746  -3343723.85944  22769714.4844                   22769711.1214
 11  7 24 15 54  0.0000000  0  8G06G16G20G23G03G31G32G13
  -4255042.12947  -3306114.96944  22821703.3204                   22821701.7894
  -6955546.45348  -5393010.61346  20221653.2034                   20221649.0434
   -117090.06648    -63248.38346  21335772.7034                   21335769.0944
 -12625639.72748  -9815782.78146  20883439.6484                   20883434.1524
  -5024448.15647  -3904238.79344  22619060.7814                   22619058.9574
  13464886.40647  10476571.85244  24280039.2194                   24280037.1174
   6280639.07447   4900716.39546  21877229.2664                   21877226.9774
  -4418003.76647  -3436600.34444  22747033.5004                   22747029.7344
 11  7 24 15 54 30.0000000  0  8G06G16G20G23G03G31G32G13
  -4348205.74247  -3378709.94544  22803975.2194                   22803973.0204
  -6975757.69947  -5408759.64547  20217807.0234                   20217802.8634
   -103394.75048    -52576.71946  21338378.6484                   21338375.6024
 -12718457.39148  -9888108.23046  20865777.1334                   20865771.3834
  -5143882.05547  -3997304.14544  22596333.4064                   22596331.2154
  13499659.39147  10503667.61344  24286656.3134                   24286653.9494
   6319706.32447   4931158.36345  21884663.6804                   21884661.1764
  -4537160.35247  -3529449.58644  22724358.4304                   22724354.7464
 11  7 24 15 55  0.0000000  0  8G06G16G20G23G03G31G32G13
  -4441092.41047  -3451089.12944  22786299.6804                   22786297.1134
  -6995397.89148  -5424063.68747  20214069.6724                   20214065.8444
    -89235.08248    -41543.23846  21341073.0474                   21341070.4344
 -12811038.57048  -9960249.39846  20848159.3524                   20848154.0744
  -5263145.76247  -4090236.86744  22573638.2344                   22573636.1884
  13534364.34847  10530710.36744  24293260.6024                   24293257.7734
   6359098.90647   4961853.84045  21892159.4774                   21892157.0664
  -4656281.35547  -3622271.10944  22701690.4844                   22701687.0984
 11  7 24 15 55 30.0000000  0  8G06G16G20G23G03G31G32G13
  -4533696.89147  -3523248.43744  22768677.3204                   22768675.1604
  -7014465.56648  -5438921.61747  20210441.0784                   20210437.1134
    -74610.50848    -30147.50046  21343856.3134                   21343853.4494
 -12903378.46548 -10032202.55146  20830587.6334                   20830582.2934
  -5382232.99647  -4183032.08244  22550976.1484                   22550974.3204
  13569004.10947  10557702.33244  24299852.5314                   24299850.4384
   6398816.98447   4992802.94545  21899717.5634                   21899715.5904
  -4775362.57847  -3715061.64144  22679030.2894                   22679026.6724
 11  7 24 15 56  0.0000000  0  8G06G16G20G23G03G31G32G13
  -4626015.70747  -3595185.14144  22751109.6024                   22751108.1024
  -7032961.48048  -5453334.02047  20206921.7894                   20206917.6804
    -59522.69148    -18390.78546  21346727.7894                   21346724.3834
 -12995474.57448 -10103965.73046  20813062.4844                   20813057.0434
  -5501140.34447  -4275687.11345  22528349.1094                   22528347.3484
  13603578.87947  10584643.65244  24306431.4454                   24306429.6024
   6438858.51647   5024004.09445  21907337.6884                   21907335.3714
  -4894402.18747  -3807819.74644  22656378.1094                   22656374.4414
 11  7 24 15 56 30.0000000  0  8G06G16G20G23G03G31G32G13
  -4718048.04346  -3666898.61744  22733596.4614                   22733594.4884
  -7050888.70748  -5467303.29746  20203509.9304                   20203506.0274
    -43976.12948     -6276.61346  21349686.2584                   21349682.8324
 -13087326.51648 -10175538.65646  20795583.4534                   20795578.0554
  -5619866.14547  -4368200.68745  22505756.6564                   22505754.7584
  13638087.18047  10611533.17244  24312998.2664                   24312996.5164
   6479219.19147   5055453.93045  21915017.7974                   21915015.7854
  -5013399.96147  -3900545.24645  22633733.4224                   22633729.9144
 11  7 24 15 57  0.0000000  0  8G06G16G20G23G03G31G32G13
  -4809789.84847  -3738385.69144  22716138.2584                   22716136.6024
  -7068247.60948  -5480829.72347  20200206.8054                   20200203.0274
    -27971.19548      6194.73446  21352731.6954                   21352728.3484
 -13178930.58248 -10246918.43446  20778151.8364                   20778146.6024
  -5738406.26247  -4460569.57445  22483199.0634                   22483196.8204
  13672529.68047  10638371.40644  24319552.4694                   24319550.2814
   6519897.96947   5087151.62945  21922758.7584                   21922756.7584
  -5132353.21947  -3993236.07045  22611097.4304                   22611094.3284
 11  7 24 15 57 30.0000000  0  8G06G16G20G23G03G31G32G13
  -4901237.35947  -3809643.46544  22698736.7274                   22698734.6334
  -7085038.60248  -5493913.61747  20197011.7194                   20197007.0594
    -11509.64848     19021.88346  21355864.3594                   21355860.6684
 -13270283.80948 -10318102.75046  20760768.2664                   20760762.6134
  -5856756.49247  -4552790.50445  22460677.4064                   22460675.6094
  13706907.65246  10665159.38743  24326094.6254                   24326092.6054
   6560893.37947   5119096.06645  21930559.9774                   21930557.6414
  -5251259.10247  -4085889.95345  22588470.0554                   22588467.4774
 11  7 24 15 58  0.0000000  0  8G06G16G20G23G03G31G32G13
  -4992390.59047  -3880671.91445  22681391.1334                   22681388.4104
  -7101265.41048  -5506557.88747  20193923.7504                   20193919.7154
      5403.87948     32201.23446  21359082.8204                   21359079.4534
 -13361386.35948 -10389091.75046  20743431.4144                   20743426.5864
  -5974915.87947  -4644862.72345  22438192.5784                   22438190.3364
  13741218.31346  10691894.91444  24332623.5394                   24332621.7814
   6602200.04747   5151283.03145  21938420.5084                   21938418.5394
  -5370118.82047  -4178507.88344  22565850.7034                   22565848.8014
 11  7 24 15 58 30.0000000  0  8G06G16G20G23G03G31G32G13
  -5083247.25447  -3951469.28944  22664101.4534                   22664099.2624
  -7116930.27748  -5518764.28946  20190943.3054                   20190938.8524
     22766.41848     45730.44946  21362386.8834                   21362383.3984
 -13452237.02748 -10459884.46946  20726143.2034                   20726137.8984
  -6092881.73447  -4736784.13745  22415744.3754                   22415742.4924
  13775460.89147  10718577.37544  24339139.8524                   24339138.3164
   6643815.05548   5183710.27045  21946339.7814                   21946337.7304
  -5488931.11747  -4271088.82845  22543241.9694                   22543239.3984
 11  7 24 15 59  0.0000000  0  8G06G16G20G23G03G31G32G13
  -5173804.59047  -4022033.41445  22646868.9774                   22646867.4024
  -7132034.03548  -5530533.46546  20188069.0004                   20188064.6724
     40575.46148     59607.59846  21365775.7504                   21365772.3754
 -13542833.35548 -10530479.00446  20708903.3444                   20708898.0904
  -6210651.00047  -4828552.35945  22393334.0394                   22393331.6954
  13809635.61746  10745207.00044  24345643.3524                   24345641.1804
   6685736.13748   5216376.00445  21954316.5554                   21954314.7504
  -5607693.85547  -4363631.18744  22520641.8054                   22520639.7274
 11  7 24 15 59 30.0000000  0  8G06G16G20G23G03G31G32G13
  -5264061.40647  -4092363.36745  22629693.7114                   22629691.7544
  -7146580.32048  -5541868.24647  20185300.7504                   20185296.8714
     58827.22348     73829.72746  21369249.1954                   21369245.6414
 -13633174.59048 -10600874.76646  20691712.4224                   20691706.7194
  -6328222.22347  -4920166.26645  22370960.4454                   22370958.6484
  13843740.85246  10771782.44144  24352133.3594                   24352130.9694
   6727959.16048   5249277.01645  21962351.6954                   21962349.7154
  -5726407.32447  -4456135.15644  22498051.2734                   22498049.2504
 11  7 24 16  0  0.0000000  0  8G06G16G20G23G03G31G32G13
  -5354012.33647  -4162454.97745  22612576.6724                   22612574.3674
  -7160567.59048  -5552767.43047  20182639.1414                   20182634.6954
     77522.28948     88397.28546  21372806.2584                   21372803.1954
 -13723255.91848 -10671068.00446  20674569.9144                   20674564.8364
  -6445589.44947  -5011621.22345  22348626.4844                   22348624.3054
  13877779.36346  10798305.90244  24358610.0474                   24358608.5904
   6770484.10947   5282413.29745  21970444.1724                   21970442.0234
  -5845066.88346  -4548597.12944  22475471.7504                   22475468.9924
 11  7 24 16  0 30.0000000  0  8G06G16G20G23G03G31G32G13
  -5443655.75847  -4232306.96144  22595517.9304                   22595515.8524
  -7173998.55948  -5563233.12546  20180083.3444                   20180079.3204
     96657.21548    103307.59046  21376447.7114                   21376444.3554
 -13813076.03548 -10741057.69146  20657477.8524                   20657472.6374
  -6562750.67647  -5102915.65245  22326331.4304                   22326329.6484
  13911750.18446  10824776.60244  24365074.9614                   24365073.3444
   6813307.51248   5315782.13345  21978592.9694                   21978590.8594
  -5963671.68747  -4641016.42644  22452901.6884                   22452898.8954
 11  7 24 16  1  0.0000000  0  8G06G16G20G23G03G31G32G13
  -5532990.51647  -4301918.43745  22578518.0944                   22578516.3634
  -7186876.34448  -5573267.77346  20177632.8134                   20177628.5744
    116227.76248    118557.33646  21380172.0004                   21380168.8444
 -13902634.53548 -10810843.51646  20640435.1334                   20640430.0204
  -6679703.64147  -5194047.80545  22304076.1804                   22304074.1884
  13945651.21146  10851192.93044  24371525.9224                   24371524.4774
   6856425.36347   5349380.41845  21986797.8204                   21986795.7424
  -6082221.61347  -4733392.96544  22430343.0314                   22430339.6174
 11  7 24 16  1 30.0000000  0  8G06G16G20G23G03G31G32G13
  -5622013.16447  -4371286.70745  22561577.6804                   22561575.7544
  -7199201.54348  -5582871.82447  20175287.2664                   20175283.5474
    136232.35948    134145.31346  21383978.9144                   21383975.4264
 -13991928.47748 -10880423.21546  20623443.5234                   20623438.2424
  -6796444.64147  -5285014.78145  22281860.4844                   22281858.5984
  13979483.21946  10877555.47344  24377964.4924                   24377961.9804
   6899835.54747   5383206.48445  21995059.1724                   21995056.8554
  -6200714.41046  -4825724.96544  22407794.0784                   22407791.3714
 11  7 24 16  2  0.0000000  0  8G06G16G20G23G03G31G32G13
  -5710719.25047  -4440408.29745  22544697.3594                   22544695.2074
  -7210973.69148  -5592044.92247  20173046.9384                   20173042.9534
    156670.66048    150071.23046  21387868.0314                   21387865.0124
 -14080953.40648 -10949793.28146  20606502.3204                   20606497.3134
  -6912968.53547  -5375812.60245  22259686.8134                   22259685.0664
  14013248.48846  10903866.02744  24384390.2194                   24384387.8014
   6943537.88348   5417260.20345  22003374.9064                   22003373.1454
  -6319146.10947  -4918009.36745  22385257.3204                   22385254.0984
 11  7 24 16  2 30.0000000  0  8G06G16G20G23G03G31G32G13
  -5799106.58647  -4509281.52345  22527877.5314                   22527875.4344
  -7222195.64148  -5600789.30947  20170911.5164                   20170907.5944
    177539.48447    166332.62546  21391838.8754                   21391835.8404
 -14169708.14148 -11018952.80946  20589612.9694                   20589607.8754
  -7029273.40647  -5466439.75045  22237554.7734                   22237552.7814
  14046946.46946  10930124.15244  24390802.2034                   24390799.8284
   6987528.80148   5451538.78945  22011746.7114                   22011744.9024
  -6437515.49647  -5010245.21944  22362732.6724                   22362729.1564
 11  7 24 16  3  0.0000000  0  8G06G16G20G23G03G31G32G13
  -5887169.91047  -4577902.26645  22511119.6484                   22511117.4804
  -7232865.91848  -5609103.80546  20168881.0394                   20168877.1884
    198838.94947    182929.57846  21395892.3674                   21395889.5234
 -14258187.95748 -11087898.11746  20572776.0084                   20572770.5204
  -7145352.62147  -5556891.06645  22215465.4454                   22215463.3404
  14080579.71146  10956331.79343  24397202.4844                   24397200.3554
   7031808.62948   5486042.50045  22020172.6484                   22020170.4414
  -6555818.16047  -5102429.08645  22340220.2664                   22340216.4384
 11  7 24 16  3 30.0000000  0  8G06G16G20G23G03G31G32G13
  -5974907.49247  -4646269.18444  22494424.1564                   22494421.7854
  -7242987.01647  -5616990.37546  20166954.9694                   20166951.1294
    220565.65247    199859.44546  21400027.1094                   21400024.0784
 -14346391.08648 -11156627.82846  20555991.1094                   20555985.9734
  -7261203.89847  -5647164.77045  22193419.4844                   22193418.1724
  14114147.25446  10982488.28544  24403590.5394                   24403588.8204
   7076373.82448   5520768.58245  22028653.0164                   22028651.0514
  -6674053.38747  -5194560.41045  22317721.0234                   22317717.6054
 11  7 24 16  4  0.0000000  0  8G06G16G20G23G03G31G32G13
  -6062310.82447  -4714375.65244  22477791.4064                   22477789.9024
  -7252554.72348  -5624445.73847  20165133.9614                   20165130.1764
    242723.34447    217125.15646  21404243.3524                   21404239.9964
 -14434309.60248 -11225135.75846  20539260.7194                   20539255.6174
  -7376818.63347  -5737254.14545  22171419.3204                   22171416.6844
  14147654.83646  11008598.02044  24409966.5704                   24409964.7854
   7121227.34848   5555719.32845  22037188.8444                   22037186.5704
  -6792213.48847  -5286633.18044  22295235.1254                   22295232.2464
 11  7 24 16  4 30.0000000  0  8G06G16G20G23G03G31G32G13
  -6149378.18747  -4782220.32445  22461222.9304                   22461221.0314
  -7261571.75848  -5631472.00046  20163418.3834                   20163414.5784
    265308.46147    234723.92246  21408541.2424                   21408537.9574
 -14521942.29348 -11293420.96546  20522584.7504                   20522579.6024
  -7492194.19147  -5827157.16445  22149463.5394                   22149461.6994
  14181101.88746  11034660.59844  24416331.4384                   24416329.2974
   7166366.14148   5590892.37545  22045778.0234                   22045776.1334
  -6910297.38347  -5378646.57044  22272764.9224                   22272761.6954
 11  7 24 16  5  0.0000000  0  7G06G16G20G23G03G32G13
  -4660687.50047  -3622201.58645  22744511.4924                   22744509.2624
  -5694623.03148  -4410472.99646  20461598.9304                   20461595.0004
   1863734.16047   1480250.41846  21712711.3984                   21712708.1484
 -13033867.28548 -10133881.98446  20805756.2894                   20805751.0784
  -6031906.75447  -4689270.82045  22427347.1024                   22427345.4064
   8787202.37548   6853881.59445  22354212.8674                   22354211.3054
  -5452882.52347  -4242998.58245  22550101.3834                   22550098.7154
 11  7 24 16  5 30.0000000  0  7G06G16G20G23G03G32G13
  -4747078.48847  -3689519.21145  22728071.8054                   22728069.6134
  -5702547.28548  -4416647.74247  20460091.1954                   20460087.1844
   1887162.99647   1498506.63346  21717169.9144                   21717166.4774
 -13120924.93448 -10201719.10546  20789189.8054                   20789184.3874
  -6146797.56247  -4778796.09445  22405483.9304                   22405482.4064
   8832900.12547   6889490.18045  22362909.0394                   22362907.2544
  -5570811.76647  -4334891.46545  22527659.9844                   22527656.8834
 11  7 24 16  6  0.0000000  0  7G06G16G20G23G03G32G13
  -4833118.07847  -3756563.02344  22711698.9144                   22711697.1954
  -5709917.97748  -4422391.14146  20458688.4534                   20458684.2894
   1911019.14847   1517095.81346  21721709.2974                   21721706.1644
 -13207682.27748 -10269322.22746  20772680.3914                   20772675.2384
  -6261431.73047  -4868121.38745  22383669.6414                   22383668.3244
   8878882.93047   6925320.88345  22371659.1724                   22371657.6684
  -5688651.59047  -4426714.67645  22505236.3914                   22505233.5634
 11  7 24 16  6 30.0000000  0  7G06G16G20G23G03G32G13
  -4918796.13747  -3823325.12545  22695395.4304                   22695392.9884
  -5716729.91048  -4427699.14846  20457392.1644                   20457387.9884
   1935307.80947   1536022.01246  21726331.5554                   21726328.7934
 -13294129.64148 -10336683.80146  20756229.9614                   20756224.3674
  -6375799.18447  -4957238.85245  22361906.8754                   22361904.9264
   8925155.38347   6961377.30145  22380465.0314                   22380463.2774
  -5806392.91047  -4518461.13745  22482830.5634                   22482827.6414
 11  7 24 16  7  0.0000000  0  7G06G16G20G23G03G32G13
  -5004112.98847  -3889805.76245  22679159.4144                   22679157.8204
  -5722987.37948  -4432575.10246  20456201.3754                   20456197.4574
   1960023.53147   1555280.99246  21731034.6884                   21731031.6174
 -13380267.71148 -10403804.37546  20739838.2424                   20739833.2664
  -6489899.01247  -5046147.77745  22340194.1724                   22340192.3364
   8971712.18047   6997655.27345  22389324.3284                   22389322.4384
  -5924036.10547  -4610131.11345  22460443.8364                   22460440.5314
 11  7 24 16  7 30.0000000  0  7G06G16G20G23G03G32G13
  -5089064.66847  -3956001.85245  22662993.4304                   22662992.2894
  -5728691.13748  -4437019.59846  20455115.8364                   20455112.1724
   1985164.80147   1574871.55546  21735819.1804                   21735815.8834
 -13466093.05548 -10470681.27346  20723506.3284                   20723501.0124
  -6603726.84047  -5134844.75845  22318533.3444                   22318531.5744
   9018552.07047   7034153.84445  22398237.2734                   22398236.0434
  -6041577.87547  -4701722.07045  22438076.0394                   22438073.8524
 11  7 24 16  8  0.0000000  0  7G06G16G20G23G03G32G13
  -5173654.07847  -4021915.65245  22646897.1644                   22646895.1954
  -5733848.51647  -4441038.34446  20454134.5004                   20454130.6174
   2010723.73847   1594787.57846  21740682.7974                   21740679.7734
 -13551608.72748 -10537316.85946  20707233.3054                   20707227.7154
  -6717285.10947  -5223331.69145  22296924.5394                   22296922.3014
   9065666.94547   7070866.68845  22407203.1334                   22407201.5314
  -6159022.52347  -4793237.33245  22415727.5004                   22415724.8094
 11  7 24 16  8 30.0000000  0  7G06G16G20G23G03G32G13
  -5257877.29347  -4087544.10545  22630869.7504                   22630868.2774
  -5738459.59048  -4444631.39547  20453256.8914                   20453253.4304
   2036699.15247   1615028.14546  21745625.7734                   21745622.8634
 -13636811.13348 -10603708.34446  20691020.0084                   20691014.3284
  -6830568.88747  -5311604.72745  22275367.0164                   22275364.7504
   9113055.52047   7107792.80145  22416221.0704                   22416219.0944
  -6276366.12147  -4884673.85945  22393397.6724                   22393394.9774
 11  7 24 16  9  0.0000000  0  7G06G16G20G23G03G32G13
  -5341735.53147  -4152888.16445  22614912.4924                   22614910.1844
  -5742530.05547  -4447803.19547  20452482.3594                   20452478.6524
   2063084.72347   1635588.29746  21750646.5234                   21750643.6024
 -13721701.79748 -10669856.90646  20674865.5634                   20674860.1524
  -6943578.78947  -5399664.36745  22253861.8364                   22253860.0044
   9160711.39547   7144927.19145  22425289.3364                   22425288.2544
  -6393610.80147  -4976033.32045  22371086.9614                   22371083.7934
 11  7 24 16  9 30.0000000  0  7G06G16G20G23G03G32G13
  -5425226.93747  -4217946.37545  22599024.1804                   22599022.1954
  -5746062.25848  -4450555.57046  20451810.6884                   20451806.9614
   2089877.05947   1656465.41046  21755745.1954                   21755741.7194
 -13806279.32048 -10735761.45746  20658770.8984                   20658765.7074
  -7056312.31647  -5487508.64145  22232409.4304                   22232407.2114
   9208631.16447   7182267.21945  22434408.9064                   22434406.5004
  -6510755.30147  -5067314.70745  22348794.7034                   22348791.9574
 11  7 24 16 10  0.0000000  0  7G06G16G20G23G03G32G13
  -5508349.91047  -4282717.49645  22583206.5004                   22583204.2624
  -5749059.38348  -4452891.00447  20451240.0394                   20451236.3324
   2117072.70748   1677656.79746  21760920.3984                   21760917.3794
 -13890541.98448 -10801420.66846  20642736.2194                   20642730.9144
  -7168767.14547  -5575135.74245  22211009.4694                   22211007.7234
   9256811.48047   7219810.27745  22443576.8594                   22443575.0274
  -6627798.28947  -5158517.00845  22326521.9454                   22326519.0354
 11  7 24 16 10 30.0000000  0  7G06G16G20G23G03G32G13
  -5591103.00847  -4347200.39845  22567459.1174                   22567456.9844
  -5751524.21548  -4454811.66446  20450771.2664                   20450767.7304
   2144667.91047   1699159.52746  21766171.4694                   21766168.5554
 -13974488.91848 -10866833.85546  20626761.9454                   20626756.4304
  -7280941.00447  -5662543.91045  22189663.9224                   22189662.0824
   9305248.55948   7257553.41045  22452794.3054                   22452792.5044
  -6744738.85947  -5249639.50045  22304268.7894                   22304266.1334
 11  7 24 16 11  0.0000000  0  7G06G16G20G23G03G32G13
  -5673484.41447  -4411393.66845  22551782.7114                   22551780.3054
  -5753459.32048  -4456319.55147  20450403.0554                   20450399.2194
   2172659.50848   1720971.12946  21771498.2114                   21771495.2154
 -14058118.55548 -10931999.79346  20610847.6024                   20610842.3404
  -7392831.64547  -5749731.39545  22168371.3364                   22168369.8244
   9353939.01247   7295493.97745  22462060.0394                   22462058.0084
  -6861575.90647  -5340681.34045  22282035.7274                   22282032.9614
 11  7 24 16 11 30.0000000  0  7G06G16G20G23G03G32G13
  -5755491.15247  -4475295.00045  22536177.1644                   22536174.8794
  -5754866.22347  -4457415.85247  20450135.5864                   20450131.1644
   2201044.87547   1743089.55946  21776900.0004                   21776896.9734
 -14141428.28148 -10996916.45346  20594994.2424                   20594988.8244
  -7504435.42247  -5836695.35545  22147134.1024                   22147132.0514
   9402880.48447   7333630.14545  22471372.9144                   22471371.2814
  -6978306.95347  -5431640.58645  22259823.0634                   22259819.7664
 11  7 24 16 12  0.0000000  0  7G06G16G20G23G03G32G13
  -5837123.43747  -4538904.53545  22520642.6644                   22520640.7424
  -5755749.62148  -4458104.21946  20449967.3054                   20449963.3714
   2229818.97347   1765510.90246  21782375.5084                   21782372.2934
 -14224418.35248 -11061584.03146  20579201.8914                   20579196.6884
  -7615752.00447  -5923435.52045  22125951.4454                   22125949.4884
   9452067.92647   7371957.96545  22480733.4694                   22480731.4264
  -7094932.63347  -5522517.71545  22237629.3834                   22237626.4304
 11  7 24 16 12 30.0000000  0  7G06G16G20G23G03G32G13
  -5918377.87547  -4602219.65645  22505180.9384                   22505178.2974
  -5756110.53548  -4458385.46947  20449898.4384                   20449894.3874
   2258980.01648   1788233.75846  21787924.9144                   21787921.9574
 -14307085.80948 -11126000.23046  20563470.7274                   20563465.4734
  -7726777.12547  -6009948.56645  22104823.8754                   22104821.6524
   9501499.44147   7410475.97745  22490140.0164                   22490138.6804
  -7211450.03947  -5613310.48045  22215457.3674                   22215453.9844
 11  7 24 16 13  0.0000000  0  8G06G16G20G23G03G19G32G13
  -5999251.63747  -4665238.13345  22489791.2814                   22489788.5904
  -5755950.50048  -4458260.77347  20449928.8364                   20449925.0234
   2288525.80147   1811256.41045  21793546.6644                   21793543.9654
 -14389428.10948 -11190163.06246  20547801.5944                   20547796.1994
  -7837506.37147  -6096231.07445  22083752.5704                   22083750.3594
   7719024.99256   6026151.88354  24280840.1174                   24280838.0124
   9551172.55947   7449182.25845  22499592.4304                   22499590.6684
  -7327856.62547  -5704016.87545  22193305.0554                   22193302.2734
 11  7 24 16 13 30.0000000  0  8G06G16G20G23G03G19G32G13
  -6079750.50047  -4727964.49645  22474472.6094                   22474470.3754
  -5755279.72748  -4457738.09846  20450056.8134                   20450052.6844
   2318445.26247   1834570.24245  21799240.4064                   21799237.2114
 -14471451.00048 -11254076.99246  20532193.0784                   20532187.7384
  -7947945.50447  -6182287.51245  22062736.7504                   22062734.7344
   7592636.52346   5927667.47743  24256789.6954                   24256786.9574
   9601076.78547   7488068.61345  22509089.0554                   22509087.1024
  -7444158.85247  -5794641.95345  22171173.5864                   22171171.2194
 11  7 24 16 14  0.0000000  0  9G06G16G20G23G03G19G32G13G07
  -6159880.47347  -4790403.40645  22459224.5234                   22459222.2544
  -5754108.69548  -4456825.61346  20450279.6484                   20450275.5634
   2348727.34847   1858166.63346  21805003.0864                   21804999.7974
 -14553160.57448 -11317746.78946  20516644.4224                   20516639.2234
  -8058099.77747  -6268121.98045  22041775.1254                   22041772.9804
   7466161.74646   5829115.82043  24232722.3444                   24232719.6294
   9651200.66847   7527126.13745  22518627.2424                   22518625.3524
  -7560362.70347  -5885190.37145  22149061.0234                   22149057.7304
   7755217.24656   6047331.22354  24519893.0004                   24519892.1454
 11  7 24 16 14 30.0000000  0  9G06G16G20G23G03G19G32G13G07
  -6239643.95347  -4852556.73445  22444045.8054                   22444043.4264
  -5752444.37948  -4455528.75047  20450596.0474                   20450592.3794
   2379364.18847   1882039.45345  21810833.0084                   21810830.0554
 -14634559.65248 -11381174.64146  20501154.7344                   20501149.4064
  -8167970.80947  -6353735.74645  22020867.2114                   22020865.3014
   7339598.59846   5730495.32043  24208638.2584                   24208635.1214
   9701536.67247   7566348.94945  22528206.0704                   22528204.1414
  -7676471.19147  -5975664.50045  22126966.6254                   22126963.2114
   7658000.01246   5971577.64143  24501394.0234                   24501392.7384
 11  7 24 16 15  0.0000000  0  9G06G16G20G23G03G19G32G13G07
  -6319042.21547  -4914425.48845  22428936.8054                   22428934.1884
  -5750292.30547  -4453851.81246  20451005.4144                   20451001.5824
   2410349.69147   1906183.97346  21816729.5234                   21816726.3244
 -14715649.68748 -11444361.67646  20485723.6884                   20485718.3094
  -8277559.20347  -6439129.26245  22000013.3364                   22000010.7934
   7212946.60247   5631805.56343  24184537.4614                   24184534.0474
   9752078.82047   7605732.38745  22537823.9844                   22537821.4844
  -7792486.06247  -6066065.68445  22104889.3754                   22104886.5084
   7560805.51646   5895841.77344  24482897.7114                   24482896.4024
 11  7 24 16 15 30.0000000  0  9G06G16G20G23G03G19G32G13G07
  -6398065.07047  -4976001.71945  22413899.0784                   22413896.8594
  -5747646.44547  -4451790.10946  20451509.1804                   20451505.3054
   2441688.68047   1930603.92245  21822692.9534                   21822690.0704
 -14796420.35948 -11507299.85546  20470353.7034                   20470347.8874
  -8386853.79747  -6524293.85945  21979215.6254                   21979213.3524
   7086216.05146   5533054.60544  24160421.2424                   24160417.8754
   9802831.71947   7645280.05945  22547481.2974                   22547479.8134
  -7908397.23047  -6156386.03145  22082832.2194                   22082829.2424
   7463640.84846   5820129.16044  24464408.0944                   24464406.9224
 11  7 24 16 16  0.0000000  0  9G06G16G20G23G03G19G32G13G07
  -6476701.06247  -5037276.50845  22398935.1254                   22398932.8634
  -5744500.45348  -4449338.70346  20452107.5784                   20452103.7154
   2473387.64847   1955304.37145  21828725.1484                   21828721.9104
 -14876860.52348 -11569980.49246  20455046.2274                   20455040.8444
  -8495842.53147  -6609220.10945  21958475.4844                   21958473.1844
   6959418.78146   5434251.64543  24136292.4224                   24136288.3984
   9853802.12147   7684997.19945  22557180.9454                   22557178.8054
  -8024193.60547  -6246616.93445  22060796.7664                   22060793.8874
   7366514.96546   5744446.77744  24445925.9534                   24445924.7114
 11  7 24 16 16 30.0000000  0  9G06G16G20G23G03G19G32G13G07
  -6554944.38747  -5098245.30945  22384045.8284                   22384043.8404
  -5740852.76648  -4446496.34846  20452801.5944                   20452797.7854
   2505447.38347   1980285.94546  21834825.7974                   21834822.8524
 -14956965.20348 -11632399.73046  20439803.3364                   20439797.5124
  -8604518.55547  -6693902.69945  21937795.1414                   21937792.8874
   6832560.75846   5335401.33244  24112152.4924                   24112148.8794
   9904990.63347   7724884.29745  22566921.9534                   22566920.1454
  -8139869.73847  -6336754.14845  22038784.5234                   22038781.2274
   7269430.44546   5668796.59844  24427451.1094                   24427449.4104
 11  7 24 16 17  0.0000000  0  9G06G16G20G23G03G19G32G13G07
  -6632788.15247  -5158902.77745  22369232.7034                   22369230.4384
  -5736700.96148  -4443261.19146  20453592.1334                   20453587.8164
   2537869.43847   2005549.84445  21840995.9534                   21840992.7624
 -15036726.69148 -11694551.54346  20424624.8834                   20424619.5394
  -8712874.33247  -6778335.73845  21917175.9304                   21917173.6174
   6705649.98046   5236509.89844  24088001.2504                   24087997.9614
   9956399.10947   7764942.79745  22576704.9774                   22576702.9654
  -8255418.75047  -6426792.31645  22016796.2344                   22016793.1644
   7172391.05946   5593181.59044  24408985.0234                   24408983.3284
 11  7 24 16 17 30.0000000  0  9G06G16G20G23G03G19G32G13G07
  -6710228.45347  -5219245.84845  22354496.3674                   22354494.3284
  -5732045.48448  -4439633.55946  20454477.6884                   20454473.8324
   2570652.85947   2031095.33245  21847233.8914                   21847231.0124
 -15116141.29748 -11756433.05546  20409512.4534                   20409507.5784
  -8820905.05947  -6862515.50045  21896618.2424                   21896616.0944
   6578690.73446   5137580.69943  24063842.0394                   24063838.9104
  10008026.38347   7805171.78945  22586529.1484                   22586527.6334
  -8370837.05947  -6516728.64545  21994832.7034                   21994829.4224
   7075398.47746   5517603.03544  24390527.8054                   24390526.8094
 11  7 24 16 18  0.0000000  0  9G06G16G20G23G03G19G32G13G07
  -6787260.07046  -5279270.48445  22339837.2664                   22339835.7384
  -5726885.64148  -4435612.91046  20455459.5554                   20455455.6054
   2603797.68047   2056922.43445  21853541.6564                   21853538.6294
 -15195204.09848 -11818040.44146  20394467.5164                   20394462.1214
  -8928604.52747  -6946437.14845  21876123.5084                   21876121.1524
   6451688.71546   5038618.16843  24039674.2344                   24039670.9654
  10059872.89847   7845571.62145  22596394.7504                   22596393.0474
  -8486119.60547  -6606559.18445  21972895.2664                   21972892.2504
   6978455.09446   5442062.83244  24372079.6024                   24372078.7344
 11  7 24 16 18 30.0000000  0  9G06G16G20G23G03G19G32G13G07
  -6863881.40247  -5338975.40645  22325257.1724                   22325255.2234
  -5721224.27748  -4431201.47346  20456537.0864                   20456533.2074
   2637300.09447   2083028.16845  21859916.8524                   21859913.7584
 -15273913.72748 -11879372.62146  20379489.5554                   20379484.2894
  -9035970.55547  -7030098.95345  21855692.1884                   21855690.3874
   6324646.05546   4939623.95344  24015498.4694                   24015495.4614
  10111934.63347   7886139.16445  22606301.9144                   22606300.1724
  -8601265.43747  -6696283.19145  21950983.8754                   21950980.8834
   6881559.42246   5366559.78944  24353641.4384                   24353639.8164
 11  7 24 16 19  0.0000000  0  9G06G16G20G23G03G19G32G13G07
  -6940093.09847  -5398361.13745  22310754.1484                   22310752.8324
  -5715066.53148  -4426403.24246  20457708.8594                   20457704.6294
   2671154.40247   2109408.11345  21866359.2034                   21866356.6994
 -15352270.98848 -11940430.23846  20364578.9224                   20364573.1254
  -9143002.66047  -7113500.56245  21835324.4384                   21835322.8634
   6197562.77346   4840598.10944  23991315.9064                   23991312.1094
  10164206.49647   7926870.43445  22616248.9924                   22616247.0664
  -8716275.05147  -6785901.04745  21929097.8594                   21929095.1684
   6784708.03946   5291091.23044  24335211.1414                   24335209.0594
 11  7 24 16 19 30.0000000  0  9G06G16G20G23G03G19G32G13G07
  -7015889.07847  -5457422.92245  22296331.1094                   22296329.1524
  -5708410.98448  -4421217.11746  20458975.3834                   20458971.5204
   2705361.73047   2136063.13345  21872868.7034                   21872866.1914
 -15430269.58648 -12001208.36346  20349736.1724                   20349730.4774
  -9249694.16447  -7196636.77745  21815021.8834                   21815019.6254
   6070445.41046   4741545.69544  23967125.6564                   23967122.6724
  10216689.24647   7967766.02345  22626236.4614                   22626234.2154
  -8831142.26647  -6875407.94145  21907239.5394                   21907236.3954
   6687904.26646   5215659.79744  24316789.7274                   24316787.7734
 11  7 24 16 20  0.0000000  0  9G06G16G20G23G03G19G32G13G07
  -7091268.12147  -5516159.83245  22281986.7034                   22281984.7934
  -5701260.44148  -4415645.27746  20460335.9774                   20460332.1564
   2739918.22747   2162990.23045  21879444.5164                   21879441.5864
 -15507908.46148 -12061706.19546  20334961.7424                   20334956.4414
  -9356043.15647  -7279506.10245  21794784.4304                   21794782.0164
   5943295.78946   4642468.15644  23942929.5394                   23942926.4804
  10269379.23847   8008823.11345  22636262.9924                   22636261.5434
  -8945866.09047  -6964803.10945  21885408.2814                   21885405.1334
   6591146.73446   5140264.38344  24298377.1724                   24298374.7664
 11  7 24 16 20 30.0000000  0  9G06G16G20G23G03G19G32G13G07
  -7166225.30547  -5574568.02745  22267722.7274                   22267720.9884
  -5693614.95348  -4409687.77046  20461791.0704                   20461787.1564
   2774823.53947   2190189.13745  21886086.8204                   21886083.3094
 -15585183.05948 -12121920.16846  20320256.9774                   20320251.4774
  -9462044.08647  -7362104.20345  21774613.4304                   21774610.6604
   5816119.34046   4543369.71144  23918729.0944                   23918725.4264
  10322276.26647   8050041.51645  22646329.0314                   22646327.4224
  -9060441.99647  -7054083.01245  21863605.1644                   21863602.5904
   6494437.23446   5064906.38343  24279974.4534                   24279971.1254
 11  7 24 16 21  0.0000000  0  9G06G16G20G23G03G19G32G13G07
  -7240756.92647  -5632644.59845  22253540.1564                   22253537.9304
  -5685474.82448  -4403344.82846  20463340.2274                   20463336.0434
   2810076.35947   2217658.83245  21892795.1024                   21892791.8874
 -15662089.21548 -12181847.04346  20305622.2584                   20305616.9574
  -9567691.68047  -7444426.98845  21754508.8594                   21754507.0744
   5688920.70346   4444253.97744  23894524.0864                   23894521.1254
  10375379.29746   8091420.44145  22656434.3984                   22656432.7854
  -9174866.07048  -7143244.60945  21841830.9774                   21841827.4614
   6397777.05146   4989586.78143  24261580.5634                   24261577.4574
 11  7 24 16 21 30.0000000  0  9G06G16G20G23G03G19G32G13G07
  -7314860.09847  -5690387.31645  22239438.3984                   22239436.8444
  -5676841.72748  -4396617.75846  20464982.9224                   20464978.7854
   2845674.54348   2245397.64845  21899569.1254                   21899566.3524
 -15738624.41848 -12241484.86346  20291058.0704                   20291052.2814
  -9672982.75847  -7526471.97345  21734472.8054                   21734470.5204
   5561703.59446   4345123.87144  23870315.0554                   23870311.8444
  10428686.04747   8132958.12145  22666578.3834                   22666576.4774
  -9289135.63347  -7232285.79745  21820086.5234                   21820083.2624
   6301166.48846   4914305.85943  24243196.4304                   24243193.3204
 11  7 24 16 22  0.0000000  0  9G06G16G20G23G03G19G32G13G07
  -7388533.23847  -5747794.95745  22225419.1174                   22225417.0664
  -5667718.63748  -4389508.87146  20466719.0394                   20466715.1764
   2881614.71947   2273402.95345  21906408.7034                   21906405.6884
 -15814786.85248 -12300832.21146  20276564.9694                   20276559.3404
  -9777914.25047  -7608236.74245  21714505.0784                   21714503.1054
   5434470.07046   4245980.93844  23846103.5084                   23846099.6954
  10482193.23847   8174651.98045  22676760.4064                   22676758.5474
  -9403248.48447  -7321204.88745  21798370.9384                   21798368.2464
   6204604.48446   4839062.79743  24224820.8284                   24224818.5394
 11  7 24 16 22 30.0000000  0  9G06G16G20G23G03G19G32G13G07
  -7461774.09047  -5804865.72745  22211481.9224                   22211479.5234
  -5658107.93748  -4382020.03146  20468547.7894                   20468543.8284
   2917894.13347   2301672.58645  21913312.2584                   21913309.1994
 -15890574.24648 -12359887.32446  20262142.8364                   20262137.4614
  -9882482.99647  -7689718.87145  21694606.2974                   21694604.0944
   5307223.64546   4146827.96944  23821889.0314                   23821885.6764
  10535898.27747   8216500.00845  22686980.1334                   22686978.3954
  -9517202.78547  -7410000.42245  21776686.6484                   21776683.3834
   6108090.79346   4763857.36343  24206454.8984                   24206452.2154
 11  7 24 16 23  0.0000000  0  9G06G16G20G23G03G19G32G13G07
  -7534584.71547  -5861601.26645  22197626.3914                   22197624.4144
  -5648015.95348  -4374156.16046  20470468.3594                   20470464.1564
   2954505.57047   2330200.93845  21920279.5084                   21920276.4804
 -15965988.95348 -12418652.02746  20247792.0634                   20247786.4064
  -9986690.62547  -7770919.60545  21674776.1484                   21674773.8134
   5179962.43446   4047663.47344  23797671.8284                   23797669.2894
  10589794.26247   8258496.82445  22697236.2734                   22697234.9414
  -9631000.85548  -7498674.22345  21755031.7034                   21755028.7974
   6011620.35246   4688685.64543  24188096.7194                   24188094.9264
 11  7 24 16 23 30.0000000  0  9G06G16G20G23G03G19G32G13G07
  -7606960.31647  -5917997.83645  22183853.8054                   22183851.9024
  -5637442.55548  -4365917.16446  20472480.5554                   20472476.3594
   2991448.52747   2358987.62945  21927309.1804                   21927305.8714
 -16041026.09048 -12477122.53146  20233513.0864                   20233507.6484
 -10090531.21547  -7851834.34445  21655016.0704                   21655014.1644
   5052691.96946   3948491.76644  23773452.6484                   23773449.9844
  10643880.82847   8300642.14145  22707528.4614                   22707526.9184
  -9744637.29747  -7587222.07845  21733407.0314                   21733403.5784
   5915195.22346   4613549.22343  24169747.9774                   24169745.3874
 11  7 24 16 24  0.0000000  0  9G06G16G20G23G03G19G32G13G07
  -7678900.65647  -5974055.22345  22170163.9454                   22170162.0744
  -5626391.87548  -4357306.25046  20474583.1254                   20474579.3794
   3028718.71147   2388029.30945  21934401.1644                   21934398.5944
 -16115685.35948 -12535298.58646  20219306.0944                   20219300.2894
 -10194003.33247  -7932461.95745  21635326.0004                   21635323.8404
   4925413.79746   3849314.04344  23749232.5944                   23749229.7734
  10698153.53547   8342932.50845  22717856.0634                   22717855.0704
  -9858111.85548  -7675643.79745  21711813.4844                   21711810.2894
   5818813.53946   4538446.66843  24151406.9694                   24151405.1844
 11  7 24 16 24 30.0000000  0  9G06G16G20G23G03G19G32G13G07
  -7750398.77747  -6029768.03945  22156557.9534                   22156556.6134
  -5614860.96548  -4348321.14846  20476777.3754                   20476773.5164
   3066317.81347   2417327.26645  21941556.8674                   21941553.5984
 -16189959.43448 -12593174.49646  20205171.8914                   20205166.5124
 -10297099.47747  -8012796.60545  21615706.7504                   21615704.6844
   4798135.66846   3750136.34044  23725012.3914                   23725009.1914
  10752614.53146   8385369.59445  22728219.9694                   22728217.9184
  -9971417.82047  -7763934.13745  21690252.4304                   21690248.9064
   5722479.33646   4463381.06343  24133075.3914                   24133073.6764
 11  7 24 16 25  0.0000000  0  9G06G16G20G23G03G19G32G13G07
  -7821450.67647  -6085133.15245  22143037.7274                   22143035.8284
  -5602850.71148  -4338962.51646  20479062.7344                   20479059.2894
   3104244.55147   2446880.53945  21948773.7814                   21948770.8794
 -16263844.66048 -12650747.41046  20191112.1804                   20191106.5904
 -10399814.72747  -8092834.44945  21596161.1334                   21596159.0784
   4670861.94947   3650962.09044  23700793.3594                   23700789.3674
  10807262.75447   8427952.56644  22738619.5164                   22738617.6484
 -10084551.02347  -7852089.86345  21668723.5704                   21668720.4844
   5626193.96146   4388353.55943  24114753.1884                   24114751.3524
 11  7 24 16 25 30.0000000  0  9G06G16G20G23G03G19G32G13G07
  -7892055.15247  -6140149.61345  22129601.6804                   22129599.9534
  -5590364.19948  -4329232.77346  20481438.8134                   20481435.2344
   3142495.32447   2476686.29745  21956052.3984                   21956049.6374
 -16337339.63348 -12708016.21946  20177126.5474                   20177121.1134
 -10502147.17247  -8172574.01245  21576688.0944                   21576685.8754
   4543594.78146   3551792.91444  23676574.4064                   23676571.0124
  10862094.58247   8470678.60945  22749053.5004                   22749051.7894
 -10197510.00447  -7940109.82845  21647228.3984                   21647225.0124
   5529955.73046   4313362.78144  24096438.8914                   24096437.4964
 11  7 24 16 26  0.0000000  0  9G06G16G20G23G03G19G32G13G07
  -7962208.08247  -6194814.22745  22116252.2894                   22116250.1054
  -5577402.04348  -4319132.39846  20483905.6024                   20483902.0314
   3181069.18047   2506743.81345  21963393.1724                   21963389.5944
 -16410440.21548 -12764977.71946  20163216.0234                   20163210.6174
 -10604091.35947  -8252011.03545  21557288.7974                   21557286.6914
   4416339.79746   3452633.25444  23652358.8594                   23652355.0084
  10917109.26246   8513547.14844  22759522.2504                   22759520.6414
 -10310290.48447  -8027990.70745  21625766.5864                   21625763.3794
   5433766.85246   4238410.46144  24078134.8984                   24078133.3714
 11  7 24 16 26 30.0000000  0  9G06G16G20G23G03G19G32G13G07
  -8031913.47747  -6249130.10945  22102987.8834                   22102985.7974
  -5563972.29348  -4308667.67246  20486461.3674                   20486457.8244
   3219957.41847   2537046.30145  21970793.3914                   21970790.1604
 -16483150.14848 -12821634.80546  20149379.6724                   20149373.9844
 -10705650.10247  -8331147.71145  21537962.8524                   21537960.1254
   4289093.58646   3353480.43844  23628144.8524                   23628140.5704
  10972298.26247   8556551.51244  22770024.5314                   22770022.6954
 -10422895.91847  -8115735.18045  21604338.4304                   21604335.2894
   5337620.63346   4163491.39144  24059839.0314                   24059837.5664
 11  7 24 16 27  0.0000000  0  9G06G16G20G23G03G19G32G13G07
  -8101168.97747  -6303095.41445  22089809.2424                   22089807.2424
  -5550077.15248  -4297840.30946  20489105.6564                   20489101.2034
   3259157.11347   2567591.48845  21978252.3984                   21978250.0904
 -16555467.25848 -12877985.80946  20135618.1484                   20135612.8204
 -10806820.25447  -8409981.58245  21518710.7504                   21518708.4024
   4161859.35946   3254336.93444  23603932.9614                   23603929.3714
  11027659.04747   8599689.74644  22780559.5864                   22780557.7974
 -10535324.06647  -8203341.51245  21582944.3594                   21582940.8714
   5241517.02046   4088605.55144  24041551.2114                   24041549.6174
 11  7 24 16 27 30.0000000  0  9G06G16G20G23G03G19G32G13G07
  -8169975.68047  -6356711.02345  22076715.5784                   22076713.5354
  -5535721.80548  -4286654.34046  20491837.0784                   20491833.6024
   3298662.16047   2598374.60245  21985770.2344                   21985767.5044
 -16627392.61348 -12934031.53546  20121931.0084                   20121925.8794
 -10907602.19947  -8488512.95745  21499532.5704                   21499530.1254
   4034636.73846   3155202.46944  23579723.0314                   23579719.7154
  11083185.50047   8642957.05144  22791126.2424                   22791124.4264
 -10647575.95748  -8290810.50045  21561583.5314                   21561580.0164
   5145452.30546   4013750.00044  24023270.4614                   24023268.7344
 11  7 24 16 28  0.0000000  0  9G06G16G20G23G03G19G32G13G07
  -8238329.19547  -6409973.49245  22063708.3674                   22063706.0204
  -5520907.05548  -4275110.39546  20494656.0704                   20494652.4614
   3338472.32447   2629395.47745  21993346.0234                   21993343.1024
 -16698921.15248 -12989768.05946  20108319.6804                   20108314.2034
 -11007990.35547  -8566737.47345  21480429.3054                   21480426.6764
   3907432.03946   3056081.96544  23555517.1334                   23555513.5234
  11138877.57847   8686353.43844  22801723.6414                   22801722.0434
 -10759646.66448  -8378138.31645  21540256.8054                   21540254.0824
   5049428.51246   3938926.35544  24004998.0004                   24004996.2274
 11  7 24 16 28 30.0000000  0  9G06G16G20G23G03G19G32G13G07
  -6730807.22347  -5235281.03145  22350580.2114                   22350578.3134
  -3930217.34848  -3035611.93746  20797354.5394                   20797350.7304
   4954001.18447   3888249.09845  22300770.7894                   22300768.0084
 -15194630.71548 -11817593.69546  20394576.6884                   20394571.2034
  -9532560.36747  -7417051.75045  21761194.0554                   21761192.1294
   5355670.21146   4184579.30944  23831107.2894                   23831104.2464
  12770148.51647   9957473.60944  23112144.5704                   23112142.7194
  -9296112.37148  -7237721.96545  21818758.1174                   21818755.4844
   6528865.92646   5091734.78944  24286525.3054                   24286523.9614
 11  7 24 16 29  0.0000000  0  9G06G16G20G23G03G19G32G13G07
  -6798253.71947  -5287836.73045  22337745.2664                   22337743.3714
  -3914495.43048  -3023361.11746  20800346.2504                   20800342.6174
   4994407.00847   3919734.12145  22308460.1024                   22308457.2074
 -15265365.51648 -11872711.72346  20381116.2344                   20381110.9104
  -9632157.15647  -7494659.62145  21742241.7424                   21742239.6994
   5228504.20346   4085488.96944  23806908.8054                   23806905.1844
  12826157.88347  10001117.22344  23122802.7734                   23122800.9024
  -9407818.93748  -7324766.02745  21797501.3204                   21797498.4344
   6432916.66846   5016969.20744  24268267.0234                   24268265.3134
 11  7 24 16 29 30.0000000  0  9G06G16G20G23G03G19G32G13G07
  -6865243.35547  -5340036.43045  22324997.9384                   22324995.8054
  -3898323.06248  -3010759.29746  20803423.9694                   20803419.8794
   5035106.67248   3951448.10945  22316204.9774                   22316202.1174
 -15335699.77748 -11927517.64146  20367731.9614                   20367726.6524
  -9731353.19547  -7571955.21945  21723365.0394                   21723362.9924
   5101362.53546   3986417.61744  23782714.4384                   23782710.6994
  12882322.17247  10044881.55544  23133490.0634                   23133488.9344
  -9519339.79748  -7411665.38345  21776279.5944                   21776276.7934
   6337004.74646   4942232.70744  24250015.2584                   24250013.3554
 11  7 24 16 30  0.0000000  0  9G06G16G20G23G03G19G32G13G07
  -6931774.83247  -5391879.12145  22312337.1884                   22312335.2584
  -3881703.69548  -2997809.16046  20806586.4144                   20806582.6334
   5076096.44947   3983388.15645  22324004.5864                   22324002.2584
 -15405631.96948 -11982010.25846  20354424.6414                   20354418.6564
  -9830146.47747  -7648936.97345  21704565.4924                   21704563.1484
   4974247.48046   3887366.97744  23758524.9454                   23758521.2854
  12938638.02747  10088763.99644  23144206.8674                   23144205.1844
  -9630673.33648  -7498418.77745  21755093.6024                   21755090.9104
   6241128.81646   4867524.24644  24231771.2894                   24231769.0354
 11  7 24 16 30 30.0000000  0  9G06G16G20G23G03G19G32G13G07
  -6997845.53947  -5443362.77045  22299764.3204                   22299762.1954
  -3864638.85548  -2984511.89546  20809833.5314                   20809830.2814
   5117374.31347   4015552.68445  22331859.7584                   22331857.2544
 -15475159.18048 -12036187.30946  20341193.8284                   20341188.5944
  -9928533.24247  -7725601.96545  21685842.9774                   21685841.0864
   4847162.89846   3788340.06644  23734341.2344                   23734337.9654
  12995103.41047  10132762.95344  23154951.8834                   23154950.1054
  -9741816.32848  -7585023.68745  21733943.6174                   21733940.9494
   6145289.16046   4792844.07044  24213532.9064                   24213531.3324
 11  7 24 16 31  0.0000000  0  9G06G16G20G23G03G19G32G13G07
  -7063453.43047  -5494485.78145  22287279.4454                   22287277.4614
  -3847130.89148  -2970869.34446  20813165.7584                   20813161.8094
   5158937.18847   4047939.30945  22339769.1174                   22339766.4694
 -15544279.39548 -12090047.21546  20328040.6094                   20328035.1214
 -10026510.70747  -7801948.01645  21667198.1024                   21667196.4734
   4720112.02346   3689339.44544  23710164.6644                   23710161.1764
  13051715.60947  10176876.30544  23165725.0164                   23165723.8554
  -9852766.26648  -7671478.15645  21712830.5394                   21712828.0434
   6049485.71146   4718192.10944  24195301.8524                   24195300.5234
 11  7 24 16 31 30.0000000  0  9G06G16G20G23G03G19G32G13G07
  -7128600.80547  -5545249.95345  22274882.8984                   22274880.3164
  -3829186.17648  -2956886.46546  20816580.3834                   20816576.8834
   5200778.14147   4080542.59845  22347731.1414                   22347728.5704
 -15612994.66848 -12143591.59047  20314964.7734                   20314959.1724
 -10124079.90247  -7877975.94146  21648631.9224                   21648629.6954
   4593093.79746   3590364.26244  23685993.8914                   23685990.9884
  13108467.75847  10221098.70744  23176524.6414                   23176523.1334
  -9963524.96548  -7757783.62145  21691753.6644                   21691750.9494
   5953713.64846   4643564.60244  24177077.0634                   24177075.3484
 11  7 24 16 32  0.0000000  0  9G06G16G20G23G03G19G32G13G07
  -7193283.12547  -5595651.75045  22262573.7664                   22262571.6804
  -3810805.01248  -2942563.48846  20820078.0944                   20820074.5164
   5242896.73847   4113362.24245  22355745.8834                   22355743.2894
 -15681300.42248 -12196816.85546  20301966.4694                   20301961.0234
 -10221235.55147  -7953681.61745  21630143.3204                   21630141.5124
   4466114.04746   3491419.06344  23661830.3524                   23661827.1454
  13165359.75447  10265430.07444  23187350.6254                   23187349.5234
 -10074087.53148  -7843936.25845  21670714.3984                   21670711.5474
   5857975.34446   4568963.35944  24158858.4844                   24158856.6844
 11  7 24 16 32 30.0000000  0  9G06G16G20G23G03G19G32G13G07
  -7257496.64847  -5645688.24245  22250354.3284                   22250351.9104
  -3791987.91848  -2927900.82446  20823658.7894                   20823655.5004
   5285291.63747   4146397.18445  22363813.5704                   22363810.7154
 -15749192.59848 -12249719.85946  20289047.1414                   20289041.6024
 -10317972.37547  -8029060.93445  21611735.3364                   21611733.0474
   4339177.62946   3392507.63744  23637674.9844                   23637672.1414
  13222390.78947  10309869.78944  23198203.7344                   23198201.8794
 -10184449.65648  -7929932.69545  21649713.2344                   21649710.3834
   5762271.94946   4494389.34444  24140647.0474                   24140644.5744
 11  7 24 16 33  0.0000000  0  9G06G16G20G23G03G19G32G13G07
  -7321242.21147  -5695360.09445  22238224.1564                   22238222.1294
  -3772739.55948  -2912902.11746  20827321.7034                   20827317.7504
   5327957.52047   4179643.28145  22371932.7664                   22371929.9964
 -15816671.78948 -12302301.05146  20276206.1484                   20276200.5664
 -10414290.47347  -8104113.97345  21593406.5704                   21593404.3404
   4212284.74646   3293630.12544  23613528.2584                   23613524.6374
  13279555.37147  10354413.57044  23209081.7344                   23209080.5004
 -10294611.56648  -8015773.13345  21628750.1644                   21628747.2154
   5666600.54746   4419840.25844  24122441.7974                   24122439.1374
 11  7 24 16 33 30.0000000  0  9G06G16G20G23G03G19G32G13G07
  -7384519.79747  -5744667.28545  22226182.6644                   22226180.5004
  -3753064.73048  -2897571.09446  20831065.7584                   20831061.8324
   5370889.77047   4213096.94545  22380102.0784                   22380099.5664
 -15883737.76248 -12354560.25847  20263444.0944                   20263438.5514
 -10510188.40647  -8178839.62145  21575157.5004                   21575155.3834
   4085436.82846   3194787.64844  23589389.4924                   23589386.3364
  13336848.92247  10399057.85244  23219984.4774                   23219982.7194
 -10404572.61348  -8101457.04346  21607825.3054                   21607822.3554
   5570958.82446   4345314.28144  24104241.2194                   24104238.4924
 11  7 24 16 34  0.0000000  0  9G06G16G20G23G03G19G32G13G07
  -7447325.85947  -5793607.04745  22214230.5084                   22214228.7854
  -3732963.99648  -2881908.19946  20834890.6254                   20834886.9734
   5414086.71547   4246756.84845  22388322.8674                   22388319.8094
 -15950386.64547 -12406494.45347  20250761.1414                   20250755.8204
 -10605661.99247  -8253234.59445  21556989.5314                   21556987.3874
   3958639.27746   3095984.42644  23565260.3984                   23565257.3444
  13394270.61347  10443801.95744  23230911.1254                   23230909.8984
 -10514329.11348  -8186981.56646  21586939.5474                   21586936.1024
   5475348.39846   4270812.69144  24086047.1174                   24086044.6334
 11  7 24 16 34 30.0000000  0  9G06G16G20G23G03G19G32G13G07
  -7509657.19147  -5842176.89845  22202369.8204                   22202367.7814
  -3712438.57848  -2865914.37946  20838796.6174                   20838792.8914
   5457546.64147   4280621.67245  22396592.7194                   22396590.1414
 -16016615.18748 -12458101.11747  20238158.4144                   20238152.7974
 -10700706.59447  -8327295.31645  21538903.2814                   21538900.8984
   3831896.10246   2997223.57444  23541142.7894                   23541139.0704
  13451818.89846  10488644.71144  23241862.2734                   23241860.9924
 -10623876.87948  -8272343.43746  21566092.8914                   21566089.8674
   5379770.02346   4196336.10544  24067858.9224                   24067855.7934
 11  7 24 16 35  0.0000000  0  9G06G16G20G23G03G19G32G13G07
  -7571515.40647  -5890378.07445  22190598.2894                   22190596.7114
  -3691494.27048  -2849594.15646  20842782.1724                   20842778.2814
   5501263.66047   4314686.83645  22404911.6954                   22404909.2814
 -16082424.42648 -12509381.03947  20225635.4844                   20225629.9384
 -10795322.60247  -8401022.05545  21520898.4304                   21520896.0394
   3705207.26646   2898505.05944  23517033.9454                   23517030.4614
  13509487.93446  10533581.55944  23252836.4304                   23252835.2504
 -10733217.00048  -8357543.51645  21545286.2734                   21545283.0514
   5284219.91446   4121881.50044  24049676.2194                   24049673.5164
 11  7 24 16 35 30.0000000  0  9G06G16G20G23G03G19G32G13G07
  -7632895.73847  -5938206.89545  22178918.4224                   22178915.9924
  -3670130.74248  -2832947.26246  20846847.5314                   20846843.5354
   5545237.47347   4348952.10245  22413279.3984                   22413277.0824
 -16147809.37148 -12560330.35547  20213192.9384                   20213187.7974
 -10889504.38347  -8474410.44145  21502976.3204                   21502973.4734
   3578578.82046   2799833.62144  23492937.5084                   23492933.7934
  13567277.84047  10578612.60244  23263833.9384                   23263832.3364
 -10842344.00048  -8442577.52045  21524520.3204                   21524516.6174
   5188700.81646   4047451.09444  24031499.7194                   24031496.8284
 11  7 24 16 36  0.0000000  0  9G06G16G20G23G03G19G32G13G07
  -7693796.69147  -5985662.15645  22167329.3204                   22167326.5784
  -3648350.50048  -2815975.65646  20850992.3204                   20850988.4064
   5589465.07047   4383415.11345  22421696.2664                   22421693.4224
 -16212768.14148 -12610947.57847  20200831.7114                   20200826.3794
 -10983249.32047  -8547458.42246  21485137.2584                   21485134.3754
   3452013.77746   2701211.61744  23468852.7974                   23468849.5554
  13625185.57846  10623735.46144  23274852.8134                   23274851.8954
 -10951255.55148  -8527443.64545  21503794.9454                   21503791.4534
   5093211.98446   3973044.26644  24013328.9844                   24013326.3714
 11  7 24 16 36 30.0000000  0  9G06G16G20G23G03G19G32G13G07
  -7754218.43747  -6032744.02345  22155831.4454                   22155829.1804
  -3626157.69548  -2798682.57446  20855215.3984                   20855211.6684
   5633941.69547   4418072.18045  22430159.6804                   22430157.0354
 -16277300.57848 -12661232.59847  20188551.2194                   20188546.2664
 -11076556.61747  -8620165.39145  21467381.2504                   21467378.4694
   3325513.45746   2602639.95744  23444780.4454                   23444777.2114
  13683206.75446  10668946.70344  23285894.2584                   23285893.1134
 -11059951.46548  -8612141.75446  21483110.3674                   21483107.4534
   4997751.21446   3898659.35544  23995163.3984                   23995160.5044
 11  7 24 16 37  0.0000000  0  9G06G16G20G23G03G19G32G13G07
  -7814154.70747  -6079447.59445  22144425.9064                   22144423.0904
  -3603551.07048  -2781067.04746  20859517.3524                   20859513.3284
   5678668.65647   4452924.31345  22438671.0004                   22438668.5984
 -16341401.06648 -12711181.03147  20176353.6414                   20176348.4264
 -11169418.68747  -8692525.43045  21449709.9454                   21449707.8794
   3199085.22746   2504124.51244  23420722.0634                   23420718.5824
  13741342.76646  10714247.41844  23296956.9454                   23296956.3554
 -11168424.71548  -8696666.35946  21462468.9774                   21462465.5594
   4902322.71946   3824299.48044  23977003.8054                   23977001.3134
 11  7 24 16 37 30.0000000  0  9G06G16G20G23G03G19G32G13G07
  -7873604.89847  -6125772.39145  22133112.4384                   22133110.4264
  -3580534.03948  -2763131.71546  20863897.4614                   20863893.5864
   5723641.94947   4487968.39845  22447229.3054                   22447226.3914
 -16405067.73048 -12760791.42647  20164238.2034                   20164233.0744
 -11261834.04747  -8764537.37546  21432123.9384                   21432121.5234
   3072731.78946   2405667.35544  23396677.6174                   23396674.3634
  13799590.30146  10759635.03144  23308041.0164                   23308040.0084
 -11276673.69948  -8781016.19946  21441869.8364                   21441866.1454
   4806924.73846   3749963.44144  23958849.4774                   23958847.7234
 11  7 24 16 38  0.0000000  0  9G06G16G20G23G03G19G32G13G07
  -7932566.19547  -6171716.24645  22121892.6334                   22121890.5664
  -3557107.71148  -2744877.44146  20868355.4774                   20868351.5554
   5768859.80547   4523203.03945  22455834.2734                   22455831.1764
 -16468297.44548 -12810061.33647  20152205.7584                   20152200.9344
 -11353798.63747  -8836198.08646  21414623.9144                   21414621.3634
   2946457.11746   2307271.57044  23372648.1564                   23372645.3404
  13857947.74246  10805108.30544  23319145.7274                   23319145.7074
 -11384694.75448  -8865188.43745  21421314.1414                   21421310.7234
   4711558.32846   3675652.01644  23940701.8364                   23940700.1414
 11  7 24 16 38 30.0000000  0  9G06G16G20G23G03G19G32G13G07
  -7991039.13347  -6217279.56245  22110765.8524                   22110763.6884
  -3533277.06648  -2726308.12146  20872890.2274                   20872886.6254
   5814316.68447   4558623.94545  22464484.1484                   22464481.4344
 -16531090.81648 -12858991.24247  20140256.8364                   20140251.5824
 -11445311.65247  -8907506.91446  21397209.2894                   21397207.0084
   2820262.10946   2208937.86344  23348634.0784                   23348631.1024
  13916409.90246  10850663.17244  23330271.2034                   23330270.3324
 -11492487.71148  -8949182.94146  21400801.8674                   21400798.5904
   4616220.73046   3601363.00844  23922560.4384                   23922558.2114
 11  7 24 16 39  0.0000000  0  9G06G16G20G23G03G19G32G13G07
  -8049022.00047  -6262461.00045  22099732.0704                   22099729.8754
  -3509044.16048  -2707425.35546  20877501.6884                   20877497.9804
   5860010.07847   4594229.14145  22473179.1174                   22473176.6764
 -16593445.12548 -12907579.01647  20128391.1414                   20128386.1254
 -11536370.23447  -8978461.64146  21379881.6484                   21379879.5274
   2694150.60946   2110669.23045  23324636.1954                   23324632.7624
  13974974.39846  10896297.77344  23341416.0704                   23341414.4964
 -11600049.88748  -9032997.60546  21380333.1644                   21380330.0124
   4520911.81346   3527096.35944  23904423.2584                   23904421.8324
 11  7 24 16 39 30.0000000  0  9G06G16G20G23G03G19G32G13G07
  -8106510.25447  -6307257.03545  22088792.4774                   22088790.0394
  -3484408.98847  -2688229.12546  20882189.2034                   20882185.3404
   5905939.62147   4630018.34445  22481919.4844                   22481916.6094
 -16655356.25448 -12955821.44947  20116609.8364                   20116604.8284
 -11626968.93447  -9049058.01246  21362640.9144                   21362639.2664
   2568128.13746   2012469.98444  23300654.4384                   23300651.5084
  14033641.27046  10942012.17644  23352579.5944                   23352579.1294
 -11707376.20348  -9116628.48446  21359909.6644                   21359906.3244
   4425634.16446   3452854.07844  23886292.9304                   23886290.8874
 11  7 24 16 40  0.0000000  0  9G06G16G20G23G03G19G32G13G07
  -8163507.21947  -6351670.25845  22077946.0314                   22077943.7304
  -3459378.93047  -2668725.20346  20886952.3594                   20886948.8284
   5952097.83247   4665985.73445  22490702.9224                   22490700.3634
 -16716826.77048 -13003720.54747  20104912.8054                   20104907.1684
 -11717109.74647  -9119297.59846  21345487.7424                   21345485.7194
   2442193.32046   1914339.03144  23276690.0554                   23276686.7894
  14092403.04746  10987800.49644  23363761.9844                   23363760.4304
 -11814468.85548  -9200077.29746  21339530.6414                   21339527.5004
   4330382.54746   3378632.10244  23868167.2344                   23868165.4844
 11  7 24 16 40 30.0000000  0  9G06G16G20G23G03G19G32G13G07
  -8220009.64847  -6395698.12545  22067194.2894                   22067191.9924
  -3433954.84848  -2648914.24646  20891790.4694                   20891786.9344
   5998483.13347   4702130.07045  22499529.7504                   22499527.2384
 -16777852.95748 -13051273.42247  20093299.5704                   20093294.2194
 -11806788.27747  -9189176.96946  21328422.7664                   21328420.5394
   2316351.19947   1816280.29745  23252742.8984                   23252739.7544
  14151258.78946  11033662.04744  23374962.0164                   23374961.3984
 -11921323.66448  -9283340.77346  21319197.0944                   21319193.7074
   4235158.19146   3304431.31644  23850045.6884                   23850045.1804
 11  7 24 16 41  0.0000000  0  9G06G16G20G23G03G19G32G13G07
  -8276014.32447  -6439338.12945  22056536.2664                   22056534.9804
  -3408137.60547  -2628796.93046  20896703.2034                   20896699.6604
   6045094.15647   4738450.30145  22508399.5784                   22508396.8834
 -16838431.48048 -13098477.46947  20081771.9384                   20081766.6524
 -11896000.32047  -9258692.83246  21311446.2894                   21311444.0164
   2190606.47347   1718297.46145  23228814.7664                   23228810.9844
  14210207.22746  11079595.81344  23386179.6254                   23386178.5354
 -12027936.58648  -9366415.75046  21298909.2974                   21298906.0784
   4139962.52346   3230252.94944  23831931.0944                   23831930.0594
 11  7 24 16 41 30.0000000  0  9G06G16G20G23G03G19G32G13G07
  -8331518.29747  -6482587.98445  22045974.7894                   22045972.7074
  -3381928.57447  -2608374.33246  20901690.7424                   20901687.0784
   6091929.53147   4774945.34045  22517311.9224                   22517309.7074
 -16898558.91848 -13145330.02747  20070329.9614                   20070324.8404
 -11984741.64847  -9327841.90646  21294559.4144                   21294557.0514
   2064963.66047   1620394.02745  23204905.2734                   23204902.4884
  14269247.28947  11125600.98044  23397414.4774                   23397413.3954
 -12134303.88748  -9449299.35546  21278668.0164                   21278665.3094
   4044796.25446   3156097.46544  23813821.9064                   23813820.4694
 11  7 24 16 42  0.0000000  0  9G06G16G20G23G03G19G32G13G07
  -8386520.27047  -6525446.66445  22035508.2974                   22035505.7934
  -3355330.56648  -2587648.62546  20906752.0164                   20906748.4224
   6138985.76247   4811612.48445  22526266.5634                   22526264.3554
 -16958233.59448 -13191829.77747  20058974.3284                   20058969.0004
 -12073009.99247  -9396622.41046  21277762.3134                   21277760.1684
   1939425.92647   1522572.48445  23181016.4144                   23181013.3444
  14328375.79346  11171675.07044  23408666.4224                   23408665.3714
 -12240423.05548  -9531989.60546  21258474.5394                   21258471.1844
   3949659.15646   3081964.70344  23795717.7344                   23795716.7274
 11  7 24 16 42 30.0000000  0  9G06G16G20G23G03G19G32G13G07
  -8441016.92647  -6567911.59045  22025137.3984                   22025135.5594
  -3328343.71548  -2566619.93746  20911887.7814                   20911884.1604
   6186261.86347   4848450.94145  22535263.4534                   22535260.9414
 -17017451.46148 -13237973.57447  20047705.4064                   20047699.8914
 -12160800.43047  -9465030.54345  21261056.0944                   21261054.2074
   1813998.48446   1424836.88345  23157148.2814                   23157145.1644
  14387592.35546  11217817.78144  23419934.8284                   23419933.6454
 -12346289.86748  -9614483.21546  21238328.8444                   21238325.5044
   3854552.69147   3007855.80545  23777620.0944                   23777618.1724
 11  7 24 16 43  0.0000000  0  9G06G16G20G23G03G19G32G13G07
  -8495004.67647  -6609979.97745  22014864.7114                   22014861.7074
  -3300969.19147  -2545289.15646  20917096.9144                   20917093.0084
   6233756.95747   4885460.04345  22544301.4774                   22544298.5554
 -17076208.87948 -13283758.58247  20036524.3674                   20036519.1024
 -12248108.31247  -9533062.64146  21244442.2584                   21244439.9344
   1688686.74247   1327191.43445  23133302.0004                   23133298.6604
  14446896.09446  11264028.42644  23431219.7274                   23431219.0864
 -12451899.35548  -9696776.31246  21218231.5554                   21218228.2814
   3759478.64546   2933772.18044  23759527.9774                   23759526.6094
 11  7 24 16 43 30.0000000  0  9G06G16G20G23G03G19G32G13G07
  -8548482.94147  -6651651.35245  22004687.8054                   22004685.1334
  -3273210.15648  -2523658.75046  20922379.1724                   20922375.6914
   6281467.13347   4922636.75845  22553380.5394                   22553377.5594
 -17134504.45348 -13329183.70747  20025431.0784                   20025425.7234
 -12334932.15647  -9600717.56245  21227920.1484                   21227918.3674
   1563492.66447   1229637.67644  23109478.4614                   23109474.8164
  14506283.18846  11310304.01244  23442521.0164                   23442520.0004
 -12557250.14848  -9778867.82446  21198184.1334                   21198180.8794
   3664435.75447   2859712.82044  23741441.5784                   23741440.0664
 11  7 24 16 44  0.0000000  0  9G06G16G20G23G03G19G32G13G07
  -8601450.88747  -6692925.07845  21994608.3444                   21994606.0394
  -3245070.03548  -2501731.39846  20927734.1884                   20927730.5354
   6329388.46947   4959978.01245  22562499.4534                   22562496.7854
 -17192337.22748 -13374248.21147  20014425.8834                   20014420.3444
 -12421269.59047  -9667993.47346  21211490.7734                   21211488.4264
   1438419.23447   1132177.92645  23085678.0394                   23085674.3594
  14565750.77346  11356642.29344  23453837.4534                   23453836.1454
 -12662340.38348  -9860756.29746  21178186.1174                   21178182.9414
   3569422.95347   2785676.92644  23723361.0234                   23723359.7464
 11  7 24 16 44 30.0000000  0  9G06G16G20G23G03G19G32G13G07
  -8653903.30547  -6733797.08645  21984626.8984                   21984624.5514
  -3216547.21148  -2479505.84446  20933161.5234                   20933158.5474
   6377522.32047   4997484.85245  22571659.3134                   22571656.8794
 -17249701.50848 -13418947.65247  20003509.6024                   20003504.4574
 -12507114.62947  -9734885.69545  21195154.7734                   21195152.4964
   1313473.58247   1034817.73044  23061900.8134                   23061897.7074
  14625300.00846  11403044.22744  23465169.3134                   23465168.7304
 -12767163.64548  -9942436.75046  21158238.8594                   21158235.8094
   3474444.18847   2711667.55144  23705287.5554                   23705285.4064
 11  7 24 16 45  0.0000000  0  9G06G16G20G23G03G19G32G13G07
  -8705837.10247  -6774264.98445  21974744.0944                   21974741.7274
  -3187642.99648  -2456983.08646  20938662.0634                   20938658.3204
   6425867.06647   5035156.03145  22580858.7034                   22580856.3094
 -17306593.54748 -13463279.10947  19992683.6884                   19992678.4384
 -12592462.63747  -9801390.62146  21178913.9454                   21178911.7974
   1188660.69547    937560.99645  23038150.1804                   23038146.8134
  14684929.60946  11449508.77744  23476516.4144                   23476515.7154
 -12871715.48848 -10023905.70746  21138343.3834                   21138339.8834
   3379500.35547   2637685.37144  23687220.4224                   23687218.2974
 11  7 24 16 45 30.0000000  0  9G06G16G20G23G03G19G32G13G07
  -8757253.67647  -6814329.84845  21964960.0234                   21964957.5474
  -3158362.52348  -2434167.15246  20944233.8594                   20944230.3674
   6474417.31647   5072987.33645  22590097.4144                   22590095.1484
 -17363014.50848 -13507243.49647  19981946.9844                   19981941.9614
 -12677313.65647  -9867508.27746  21162767.2034                   21162764.8204
   1063981.07847    840408.09444  23014424.4304                   23014420.8754
  14744634.56646  11496032.03943  23487877.4774                   23487877.1134
 -12975996.36348 -10105163.51646  21118499.2584                   21118495.6994
   3284588.92647   2563728.48844  23669159.0164                   23669157.0664
 11  7 24 16 46  0.0000000  0  9G06G16G20G23G03G19G32G13G07
  -8808146.52347  -6853986.60545  21955275.2584                   21955272.8444
  -3128703.14548  -2411055.96146  20949878.0704                   20949874.0904
   6523174.96147   5110980.25445  22599376.1644                   22599373.4184
 -17418956.96548 -13550835.01647  19971301.5314                   19971296.2234
 -12761659.80548  -9933232.54746  21146716.7584                   21146714.3984
    939442.87947    743365.39845  22990725.5164                   22990721.5514
  14804417.11346  11542615.75044  23499253.9694                   23499253.6724
 -13079998.49648 -10186204.13346  21098708.1094                   21098704.5824
   3189714.24647   2489800.19944  23651104.4384                   23651102.5274
 11  7 24 16 46 30.0000000  0  9G06G16G20G23G03G19G32G13G07
  -8858516.94147  -6893236.27345  21945690.0784                   21945687.9734
  -3098670.12948  -2387653.62146  20955593.2034                   20955589.3324
   6572134.27047   5149130.30145  22608693.0634                   22608689.7114
 -17474422.41848 -13594054.85247  19960746.8674                   19960741.6914
 -12845501.53548  -9998563.75046  21130762.0554                   21130759.8054
    815047.07047    646433.63745  22967053.7274                   22967050.0164
  14864271.61746  11589255.55944  23510644.8594                   23510643.6454
 -13183722.09048 -10267027.70346  21078970.2664                   21078967.1214
   3094873.73846   2415898.55144  23633056.9304                   23633054.6684
 11  7 24 16 47  0.0000000  0  9G06G16G20G23G03G19G32G13G07
  -8908363.71948  -6932077.91445  21936204.3674                   21936202.0594
  -3068266.35548  -2363962.38746  20961378.9534                   20961375.1054
   6621292.35547   5187435.25445  22618047.3984                   22618045.1604
 -17529408.78948 -13636901.38347  19950283.2584                   19950278.1134
 -12928836.18748 -10063499.82446  21114903.5554                   21114901.5784
    690796.81347    549615.29345  22943409.9224                   22943406.3094
  14924196.03547  11635949.83644  23522047.9534                   23522047.0004
 -13287164.39148 -10347632.07846  21059285.9304                   21059282.5204
   3000066.86746   2342023.11344  23615015.3914                   23615013.0744
 11  7 24 16 47 30.0000000  0  9G06G16G20G23G03G19G32G13G07
  -8957687.98447  -6970512.40245  21926818.1724                   21926816.5474
  -3037496.93048  -2339986.21946  20967234.0474                   20967230.2464
   6670643.59447   5225890.70744  22627438.5784                   22627436.3754
 -17583916.50048 -13679374.92647  19939910.6414                   19939905.3484
 -13011664.15247 -10128041.09445  21099142.3204                   21099139.6844
    566692.91047    452911.00845  22919793.7114                   22919789.7854
  14984184.82847  11682694.27344  23533463.0474                   23533462.7814
 -13390325.63348 -10428017.44546  21039654.9064                   21039652.1724
   2905290.74246   2268171.64144  23596978.9774                   23596977.9494
 11  7 24 16 48  0.0000000  0  9G06G16G20G23G03G19G32G13G07
  -9006485.95747  -7008536.79345  21917532.9064                   21917530.5594
  -3006361.74248  -2315725.04346  20973159.1804                   20973155.5204
   6720187.84847   5264496.56345  22636866.1094                   22636864.0784
 -17637941.37148 -13721472.22747  19929630.4534                   19929624.8634
 -13093980.27047 -10192183.52346  21083478.0554                   21083475.9924
    442741.32047    356325.37145  22896206.2814                   22896203.0744
  15044238.16047  11729488.99244  23544891.6334                   23544890.1764
 -13493200.35248 -10508179.54746  21020078.6804                   21020075.3404
   2810547.84046   2194346.06644  23578950.6484                   23578948.8714
 11  7 24 16 48 30.0000000  0  9G06G16G20G23G03G19G32G13G07
  -9054753.95747  -7046148.21945  21908347.3364                   21908345.0044
  -2974861.06648  -2291179.07446  20979153.2194                   20979149.5634
   6769924.37147   5303252.23045  22646330.7114                   22646328.6254
 -17691479.39548 -13763190.17247  19919442.3054                   19919437.1524
 -13175779.57847 -10255923.23845  21067912.3054                   21067909.8674
    318947.66047    259862.82044  22872649.3754                   22872645.3014
  15104355.70746  11776333.76644  23556331.4304                   23556330.8874
 -13595783.80948 -10588114.69546  21000557.4534                   21000554.3524
   2715840.21946   2120547.94944  23560928.7194                   23560926.6054
 11  7 24 16 49  0.0000000  0  9G06G16G20G23G03G19G32G13G07
  -9102495.44547  -7083349.37145  21899262.5234                   21899260.0824
  -2943001.94148  -2266353.79746  20985215.6724                   20985212.3134
   6819845.59447   5342151.83645  22655830.9454                   22655828.5984
 -17744533.28548 -13804530.86347  19909346.4844                   19909341.1454
 -13257063.95348 -10319261.70346  21052444.1954                   21052441.6454
    195310.77747    163522.43045  22849122.0084                   22849118.4104
  15164530.03947  11823222.73044  23567781.9844                   23567781.2504
 -13698078.03548 -10667824.46546  20981091.7504                   20981088.2034
   2621163.04346   2046773.59044  23542911.9224                   23542910.0234
 11  7 24 16 49 30.0000000  0  9G06G16G20G23G03G19G32G13G07
  -9149709.39847  -7120139.45345  21890277.5944                   21890275.8554
  -2910787.22748  -2241251.43446  20991345.9384                   20991342.3014
   6869948.29347   5381192.83244  22665364.9144                   22665363.0084
 -17797101.54348 -13845493.14147  19899343.1484                   19899337.6454
 -13337831.30948 -10382197.29746  21037074.7114                   21037072.3444
     71833.61747     67306.50845  22825624.4534                   22825621.2114
  15224758.62547  11870154.01644  23579242.9614                   23579242.4844
 -13800080.56248 -10747306.94546  20961681.0944                   20961678.1334
   2526515.84446   1973022.56344  23524901.0164                   23524899.2304
 11  7 24 16 50  0.0000000  0  9G06G16G20G23G03G19G32G13G07
  -9196397.16447  -7156519.53145  21881393.4224                   21881391.0044
  -2878222.52348  -2215876.35946  20997543.0784                   20997539.3524
   6920226.68047   5420370.74644  22674932.6644                   22674930.5394
 -17849185.02048 -13886077.66447  19889432.0784                   19889426.4804
 -13418081.56248 -10444729.95346  21021803.4384                   21021801.2734
    -51482.90647    -28784.23845  22802157.8834                   22802154.5084
  15285035.98046  11917123.29343  23590713.6484                   23590712.8164
 -13901791.48848 -10826562.19946  20942326.2114                   20942323.1174
   2431895.50446   1899292.46944  23506895.9924                   23506893.9414
 11  7 24 16 50 30.0000000  0 10G06G16G20G23G03G19G32G13G07G10
  -9242562.43447  -7192492.47345  21872608.9454                   21872606.2664
  -2845315.21548  -2190234.31246  21003805.1884                   21003801.5664
   6970673.06647   5459679.55945  22684532.2114                   22684530.2584
 -17900786.93748 -13926286.95347  19879612.4694                   19879606.9844
 -13497817.48848 -10506861.82846  21006630.0944                   21006628.3324
   -174640.50847   -124751.14545  22778722.1804                   22778718.4264
  15345354.79346  11964124.87544  23602192.0164                   23602191.3634
 -14003213.16448 -10905592.07046  20923025.9844                   20923022.8674
   2337297.59847   1825579.85944  23488894.7034                   23488892.3914
   9345967.40656   7285812.24253  24167958.1484                   24167954.8984
 11  7 24 16 51  0.0000000  0 10G06G16G20G23G03G19G32G13G07G10
  -9288214.74247  -7228065.68745  21863921.1954                   21863919.4574
  -2812077.91848  -2164335.14146  21010129.8444                   21010126.2774
   7021273.96147   5499108.75445  22694161.5234                   22694158.8404
 -17951916.13348 -13966127.89147  19869882.7734                   19869877.4304
 -13577047.07047 -10568599.15646  20991553.1954                   20991551.0474
   -297646.50447   -220599.94145  22755314.9064                   22755311.2664
  15405701.64846  12011148.28543  23613675.7114                   23613674.7854
 -14104353.60548 -10984402.78946  20903780.1024                   20903776.8094
   2242710.79747   1751875.90245  23470895.5634                   23470893.6024
   9261459.73846   7219962.09843  24151877.1884                   24151873.0124
 11  7 24 16 51 30.0000000  0 10G06G16G20G23G03G19G32G13G07G10
  -9333356.48447  -7263241.06245  21855331.0234                   21855328.6564
  -2778517.07448  -2138183.84446  21016516.3914                   21016512.4964
   7072022.82447   5538653.26645  22703818.5474                   22703816.2624
 -18002574.45348 -14005601.91447  19860242.7734                   19860237.2734
 -13655771.62947 -10629942.94946  20976572.1724                   20976570.1604
   -420501.01247   -316330.69145  22731936.8204                   22731932.7774
  15466070.51646  12058188.86744  23625163.0474                   23625162.9964
 -14205213.75448 -11062995.10246  20884586.8364                   20884583.5394
   2148131.28947   1678177.60545  23452897.5394                   23452895.6134
   9177400.19947   7154461.19944  24135880.7894                   24135878.2664
 11  7 24 16 52  0.0000000  0 10G06G16G20G23G03G19G32G13G07G10
  -7802569.11747  -6070419.73445  22146629.8984                   22146628.4574
  -1169220.43448   -884186.48046  21322755.6254                   21322751.5554
   8698331.18447   6805906.47344  23013294.7344                   23013292.5744
 -16477342.41048 -12817109.41847  20150484.9384                   20150479.5984
 -12158569.98047  -9463292.30546  21261480.5704                   21261478.3714
   1032219.77047    815659.57045  23008379.9694                   23008375.9964
  17101873.00447  13332840.06343  23936446.5164                   23936445.9104
 -12730371.26248  -9913767.16846  21165240.2274                   21165236.7974
   3628978.18447   2832084.31345  23734693.3054                   23734691.5434
  10669208.80146   8316909.48443  24419762.3204                   24419760.9024
 11  7 24 16 52 30.0000000  0 10G06G16G20G23G03G19G32G13G07G10
  -7846685.65647  -6104796.24645  22138235.3914                   22138233.0704
  -1135019.70748   -857536.57446  21329263.3674                   21329259.5634
   8749368.24647   6845675.53545  23023007.3674                   23023004.9654
 -16527052.98448 -12855844.94147  20141025.2664                   20141019.9774
 -12236276.19147  -9523842.57446  21246693.6484                   21246691.2504
    909679.41847    720173.61745  22985061.4384                   22985057.5634
  17162279.12946  13379909.68043  23947940.8284                   23947940.3054
 -12830661.80948  -9991915.63346  21146155.5784                   21146152.0004
   3534413.66847   2758397.69945  23716698.1884                   23716696.0274
  10586050.38346   8252110.78144  24403937.4064                   24403937.6484
 11  7 24 16 53  0.0000000  0 10G06G16G20G23G03G19G32G13G07G10
  -7890278.61747  -6138764.77745  22129939.6024                   22129937.6484
  -1100493.47348   -830633.04746  21335833.6174                   21335830.0234
   8800554.19147   6885560.62545  23032747.2034                   23032745.2154
 -16576277.89548 -12894202.02047  20131658.3284                   20131652.6684
 -12313460.60948  -9583986.25446  21232005.8914                   21232003.7504
    787310.34847    624821.14545  22961775.3444                   22961771.2774
  17222709.27746  13426998.00843  23959441.1414                   23959440.1914
 -12930654.85548 -10069832.27346  21127127.5784                   21127124.0864
   3439865.46147   2684723.80545  23698706.9304                   23698704.7854
  10503353.72746   8187671.87544  24388200.9534                   24388201.7854
 11  7 24 16 53 30.0000000  0 10G06G16G20G23G03G19G32G13G07G10
  -7933339.72747  -6172318.87545  22121745.6884                   22121743.4224
  -1065637.35248   -803472.45346  21342466.7424                   21342463.3134
   8851893.16447   6925564.96145  23042517.1334                   23042514.9534
 -16625008.13348 -12932173.64147  20122384.9224                   20122379.6994
 -12390113.73847  -9643715.93746  21217419.0634                   21217416.9804
    665123.38347    529610.56345  22938523.9534                   22938519.7584
  17283168.06346  13474108.64843  23970946.2814                   23970945.1254
 -13030340.11348 -10147509.09046  21108157.7504                   21108154.7934
   3345340.79347   2611068.23845  23680718.5004                   23680717.0354
  10421127.76247   8123599.71544  24372554.5474                   24372553.8594
 11  7 24 16 54  0.0000000  0 10G06G16G20G23G03G19G32G13G07G10
  -7975865.10947  -6205455.52745  22113653.0704                   22113650.7154
  -1030450.84848   -776054.42246  21349162.4924                   21349158.8794
   8903385.27747   6965688.62145  23052315.6724                   23052313.6414
 -16673239.39148 -12969756.45347  20113207.0704                   20113201.5984
 -12466230.13747  -9703027.39846  21202934.4614                   21202932.4534
    543124.66447    434546.67245  22915308.2504                   22915304.4384
  17343655.94147  13521241.97743  23982456.7344                   23982455.3674
 -13129711.89848 -10224941.63746  21089248.3054                   21089244.6054
   3250842.44547   2537433.18844  23662736.2974                   23662734.8054
  10339376.57847   8059897.53144  24356997.5004                   24356996.3674
 11  7 24 16 54 30.0000000  0 10G06G16G20G23G03G19G32G13G07G10
  -8017855.66447  -6238175.41445  22105662.7344                   22105660.3714
   -994938.53148   -748382.51646  21355920.3284                   21355916.3054
   8955025.75047   7005927.87544  23062141.9924                   23062140.4804
 -16720971.93048 -13006950.64547  20104123.9304                   20104118.3714
 -12541809.59048  -9761920.46146  21188552.2894                   21188549.8834
    421315.66047    339630.62945  22892129.0084                   22892124.8874
  17404168.35947  13568394.41043  23993972.5474                   23993971.0434
 -13228769.49248 -10302129.35546  21070397.8834                   21070394.6414
   3156368.48047   2463817.14844  23644758.3834                   23644757.0634
  10258099.68046   7996564.90643  24341530.6414                   24341528.9574
 11  7 24 16 55  0.0000000  0 10G06G16G20G23G03G19G32G13G07G10
  -8059308.37547  -6270476.21145  22097774.2344                   22097772.0864
   -959100.87548   -720457.09446  21362740.0634                   21362736.3324
   9006813.66047   7046282.02344  23071997.9064                   23071995.0594
 -16768202.15648 -13043753.43047  20095136.3594                   20095130.7704
 -12616847.98048  -9820391.91046  21174273.1334                   21174270.7854
    299701.73847    244866.58645  22868986.1884                   22868982.2074
  17464704.75847  13615565.55144  24005491.8284                   24005490.4384
 -13327508.53548 -10379068.85946  21051608.4454                   21051605.3164
   3061920.39147   2390221.26244  23626785.4924                   23626784.5904
  10177300.52346   7933604.53143  24326154.7894                   24326152.7464
 11  7 24 16 55 30.0000000  0 10G06G16G20G23G03G19G32G13G07G10
  -8100223.25447  -6302357.93445  22089988.5784                   22089986.4804
   -922941.36348   -692280.87146  21369620.8364                   21369617.1914
   9058745.02347   7086747.96544  23081879.8054                   23081877.0784
 -16814928.93448 -13080163.91847  20086244.4144                   20086239.0204
 -12691343.85547  -9878440.62946  21160097.1954                   21160094.9104
    178285.37147    150256.49245  22845881.4224                   22845877.5084
  17525261.69947  13662752.68844  24017015.5944                   24017014.2934
 -13425927.23848 -10455758.74646  21032880.1724                   21032876.7464
   2967497.30947   2316644.86744  23608817.0314                   23608815.7194
  10096979.10946   7871016.40643  24310871.2344                   24310868.6054
 11  7 24 16 56  0.0000000  0 10G06G16G20G23G03G19G32G13G07G10
  -8140601.62147  -6333821.57445  22082304.6644                   22082302.6334
   -886464.98048   -663857.73846  21376562.2664                   21376558.4574
   9110814.68847   7127321.66844  23091788.4694                   23091785.6724
 -16861153.24248 -13116182.86347  20077448.2344                   20077442.8204
 -12765297.02748  -9936066.46546  21146024.2114                   21146021.7504
     57067.62147     55801.16845  22822814.5864                   22822810.7304
  17585834.46946  13709952.14544  24028541.5004                   24028541.2934
 -13524025.48048 -10532198.92646  21014212.4384                   21014209.3134
   2873096.55947   2243085.86744  23590852.9224                   23590851.7154
  10017134.51646   7808799.85543  24295677.0314                   24295674.8714
 11  7 24 16 56 30.0000000  0 10G06G16G20G23G03G19G32G13G07G10
  -8180441.01647  -6364865.24645  22074723.7424                   22074721.3134
   -849672.58648   -635188.36346  21383563.4304                   21383559.6374
   9163021.18047   7168001.99244  23101723.2584                   23101720.3404
 -16906872.42248 -13151808.20747  20068748.2734                   20068743.0044
 -12838704.02348  -9993266.70346  21132055.2114                   21132053.2234
    -63946.65647    -38495.61745  22799786.3594                   22799782.1954
  17646421.89146  13757162.99643  24040070.9454                   24040070.7734
 -13621798.72348 -10608385.85946  20995606.8834                   20995603.5634
   2778719.59447   2169545.41444  23572894.1804                   23572892.0744
   9937769.43846   7746956.94143  24280573.9454                   24280572.4884
 11  7 24 16 57  0.0000000  0 10G06G16G20G23G03G19G32G13G07G10
  -8219738.95347  -6395487.02045  22067245.4774                   22067243.4024
   -812565.44148   -606273.72346  21390624.7894                   21390621.2194
   9215363.31347   7208788.00044  23111683.2974                   23111681.0354
 -16952082.69948 -13187037.00447  20060144.8594                   20060139.9614
 -12911560.84447 -10050038.24246  21118191.0474                   21118188.8244
   -184752.11347   -132629.68045  22776797.4064                   22776793.7194
  17707023.17246  13804384.64544  24051602.7734                   24051603.1954
 -13719242.93448 -10684316.40646  20977063.8914                   20977060.7664
   2684368.05547   2096024.76244  23554939.3364                   23554937.5434
   9858886.77346   7685489.95743  24265562.3984                   24265561.0354
 11  7 24 16 57 30.0000000  0 10G06G16G20G23G03G19G32G13G07G10
  -8258497.12547  -6425688.17645  22059869.6884                   22059867.7114
   -775148.64548   -577117.80146  21397744.7194                   21397741.1884
   9267835.42647   7249675.28944  23121668.5164                   23121666.1174
 -16996785.40248 -13221870.28947  20051638.0634                   20051632.9454
 -12983868.21148 -10106381.62946  21104431.2194                   21104428.6564
   -305348.27347   -226600.66445  22753848.9774                   22753845.2504
  17767632.95746  13851612.93444  24063137.0554                   24063137.3164
 -13816358.00048 -10759990.47746  20958583.7734                   20958580.4264
   2590038.90647   2022521.57444  23536989.4304                   23536987.2544
   9780485.21946   7624397.85943  24250642.8754                   24250642.0044
 11  7 24 16 58  0.0000000  0 10G06G16G20G23G03G19G32G13G07G10
  -8296711.70347  -6455465.76645  22052598.0784                   22052595.8554
   -737421.55148   -547720.08646  21404924.1804                   21404920.6374
   9320437.77047   7290664.06344  23131678.8834                   23131676.3794
 -17040975.95348 -13256304.48847  20043229.0634                   20043223.7934
 -13055620.77748 -10162292.72346  21090777.1024                   21090774.8094
   -425728.84047   -320403.65645  22730941.3444                   22730937.3834
  17828251.85946  13898848.32043  24074672.7114                   24074672.5744
 -13913138.23048 -10835403.62946  20940167.0944                   20940163.7734
   2495735.30547   1949038.27344  23519044.1174                   23519041.6604
   9702568.88746   7563683.89543  24235816.8914                   24235815.1254
 11  7 24 16 58 30.0000000  0 10G06G16G20G23G03G19G32G13G07G10
  -8334386.59447  -6484822.83245  22045428.7034                   22045426.7624
   -699391.92248   -518086.62946  21412160.9614                   21412157.2624
   9373162.76647   7331748.41844  23141712.2814                   23141709.5044
 -17084657.88348 -13290342.36347  20034916.5634                   20034911.6804
 -13126821.16848 -10217773.53146  21077228.3594                   21077226.0744
   -545894.91047   -414039.52045  22708074.1724                   22708070.5864
  17888872.80946  13946085.34043  24086208.4144                   24086207.9304
 -14009586.01648 -10910557.74246  20921813.3754                   20921810.2034
   2401451.99647   1875570.82044  23501102.7274                   23501099.6294
   9625134.10546   7503345.11743  24221081.4694                   24221080.4694
 11  7 24 16 59  0.0000000  0 10G06G16G20G23G03G19G32G13G07G10
  -8371522.31247  -6513759.75845  22038361.6724                   22038359.4494
   -661063.12948   -488220.06646  21419454.6094                   21419450.8634
   9426005.95347   7372924.84844  23151767.4774                   23151765.3594
 -17127830.50848 -13323983.37547  20026701.4304                   20026695.9264
 -13197468.43448 -10272823.34446  21063784.6094                   21063782.1564
   -665844.35247   -507506.57845  22685249.0474                   22685244.6604
  17949491.96146  13993320.91443  24097744.0944                   24097743.6134
 -14105699.76647 -10985451.57446  20903523.4694                   20903520.2584
   2307188.08246   1802118.45344  23483164.6644                   23483161.4024
   9548181.14146   7443381.76643  24206437.5784                   24206436.9104
 11  7 24 16 59 30.0000000  0 10G06G16G20G23G03G19G32G13G07G10
  -8408116.46147  -6542274.68445  22031398.2274                   22031396.2774
   -622436.27348   -458121.24246  21426805.2194                   21426801.5044
   9478966.55946   7414192.78144  23161845.8204                   23161842.7464
 -17170490.72748 -13357225.11747  20018583.2974                   20018577.8014
 -13267558.94547 -10327439.32046  21050446.7034                   21050444.3914
   -785572.27747   -600801.03945  22662464.7734                   22662461.4804
  18010108.41446  14040554.39843  24109278.4224                   24109279.0274
 -14201475.27048 -11060081.82446  20885298.1804                   20885294.5784
   2212944.88346   1728682.21144  23465231.0004                   23465227.4064
   9471712.49646   7383795.83243  24191885.7114                   24191884.9734
 11  7 24 17  0  0.0000000  0 10G06G16G20G23G03G19G32G13G07G10
  -8444167.94147  -6570366.75045  22024537.9694                   22024535.6764
   -583513.68448   -427791.96546  21434211.8054                   21434207.7664
   9532041.69947   7455549.96544  23171946.2194                   23171943.0744
 -17212637.15648 -13390066.49647  20010563.0234                   20010557.7544
 -13337090.39548 -10381619.66446  21037215.3524                   21037213.0664
   -905074.91447   -693919.94145  22639724.5394                   22639720.9804
  18070719.94546  14087784.04743  24120813.0634                   24120813.1724
 -14296909.54748 -11134446.19546  20867137.6954                   20867134.0204
   2118722.50446   1655262.22344  23447300.6884                   23447297.3554
   9395729.76246   7324588.52343  24177426.8674                   24177425.9304
 11  7 24 17  0 30.0000000  0 10G06G16G20G23G03G19G32G13G07G10
  -8479669.50447  -6598030.32045  22017782.2274                   22017780.1684
   -544291.29348   -397229.08646  21441675.7194                   21441672.0314
   9585234.91446   7496999.16844  23182068.0784                   23182065.6524
 -17254261.62948 -13422501.15647  20002642.2424                   20002636.9924
 -13406054.22348 -10435357.69946  21024092.2114                   21024089.5044
  -1024342.58647   -786855.75845  22617029.0704                   22617024.9384
  18131330.37547  14135012.82443  24132347.8134                   24132346.7034
 -14391993.72347 -11208537.76246  20849043.6644                   20849040.8094
   2024527.11746   1581863.27344  23429375.7504                   23429372.8364
   9320240.10946   7265765.47343  24163061.4454                   24163059.6024
 11  7 24 17  1  0.0000000  0 10G06G16G20G23G03G19G32G13G07G10
  -8514625.03147  -6625268.39545  22011130.5394                   22011128.3364
   -504776.18048   -366438.10546  21449194.9694                   21449191.6484
   9638538.61746   7538534.44544  23192211.3444                   23192209.6374
 -17295367.29348 -13454531.55547  19994820.1094                   19994814.8524
 -13474452.70347 -10488655.20746  21011076.2504                   21011073.8794
  -1143376.03947   -879609.07045  22594377.5474                   22594373.2464
  18191932.98047  14182235.53943  24143879.4144                   24143879.0474
 -14486729.29348 -11282357.68046  20831016.2194                   20831012.9414
   1930354.55947   1508482.10544  23411454.8524                   23411452.5554
   9245240.69946   7207324.37143  24148789.7974                   24148787.3914
 11  7 24 17  1 30.0000000  0 10G06G16G20G23G03G19G32G13G07G10
  -8549030.46947  -6652077.82845  22004583.3594                   22004581.2384
   -464967.82448   -335418.62546  21456770.6484                   21456766.8164
   9691953.70346   7580156.52744  23202376.1954                   23202374.1644
 -17335949.70348 -13486154.22347  19987097.3204                   19987091.9804
 -13542280.76248 -10541508.22746  20998168.7814                   20998166.3014
  -1262168.82047   -972174.85945  22571771.7424                   22571767.2894
  18252528.50046  14229452.72743  24155410.7114                   24155410.1484
 -14581110.59048 -11355901.54346  20813055.8674                   20813052.7814
   1836207.73846   1435120.99644  23393539.4694                   23393536.4494
   9170735.53546   7149268.41443  24134612.2114                   24134609.1174
 11  7 24 17  2  0.0000000  0 10G06G16G20G23G03G19G32G13G07G10
  -8582881.70747  -6678455.42245  21998141.6094                   21998139.4844
   -424865.10248   -304169.77046  21464401.7194                   21464398.2274
   9745480.62946   7621865.75844  23212561.7814                   23212560.1134
 -17376003.77348 -13517365.19147  19979475.5314                   19979470.0084
 -13609533.27048 -10593912.76246  20985371.0634                   20985368.9774
  -1380713.98847  -1064547.69945  22549213.4844                   22549209.4104
  18313118.00846  14276665.21943  24166939.9304                   24166940.2114
 -14675131.33648 -11429164.45746  20795164.1414                   20795161.3554
   1742090.19547   1361782.70344  23375629.6024                   23375626.8634
   9096729.21547   7091601.15243  24120529.2664                   24120527.1684
 11  7 24 17  2 30.0000000  0 10G06G16G20G23G03G19G32G13G07G10
  -8616180.44547  -6704402.48045  21991804.8444                   21991802.9264
   -384472.84848   -272695.29746  21472088.3444                   21472084.2734
   9799114.08246   7663657.98444  23222768.4614                   23222766.5474
 -17415530.17648 -13548164.99647  19971953.9844                   19971948.4384
 -13676210.13348 -10645868.74646  20972682.9454                   20972680.7384
  -1499010.37547  -1156726.67245  22526702.4774                   22526698.1724
  18373696.65646  14323869.28143  24178467.7274                   24178467.3874
 -14768791.29347 -11502146.23446  20777341.6334                   20777338.1884
   1647999.32446   1288465.18044  23357724.6024                   23357722.5044
   9023220.31646   7034321.48443  24106540.9694                   24106539.3954
 11  7 24 17  3  0.0000000  0 10G06G16G20G23G03G19G32G13G07G10
  -8648927.68447  -6729919.81245  21985573.6484                   21985571.5864
   -343795.52048   -240998.69546  21479828.5314                   21479825.1804
   9852849.77347   7705529.87144  23232994.4064                   23232991.5514
 -17454529.37948 -13578553.98847  19964532.3914                   19964527.2074
 -13742311.30948 -10697376.14546  20960104.1954                   20960101.8714
  -1617056.39547  -1248710.57045  22504239.1884                   22504234.7624
  18434260.09846  14371061.46943  24189993.2894                   24189992.9024
 -14862089.40648 -11574846.05146  20759587.1254                   20759584.0314
   1553933.52346   1215167.19144  23339824.2274                   23339822.5354
   8950208.37146   6977429.08643  24092647.0704                   24092646.4494
 11  7 24 17  3 30.0000000  0 10G06G16G20G23G03G19G32G13G07G10
  -8681120.07847  -6755004.78945  21979447.3134                   21979445.3444
   -302832.53948   -209079.51246  21487623.8284                   21487620.2234
   9906687.18046   7747481.03944  23243238.3284                   23243236.6954
 -17492997.67648 -13608529.29747  19957212.4144                   19957207.0204
 -13807832.11747 -10748431.31246  20947636.0394                   20947633.5514
  -1734845.79747  -1340494.49245  22481824.4304                   22481820.0004
  18494809.22746  14418242.47343  24201514.6414                   24201515.0634
 -14955020.35247 -11647259.76646  20741903.1724                   20741900.1884
   1459895.79746   1141891.09844  23321929.7424                   23321927.5314
   8877697.20746   6920926.89843  24078848.6484                   24078848.7544
 11  7 24 17  4  0.0000000  0 10G06G16G20G23G03G19G32G13G07G10
  -8712759.55547  -6779658.91845  21973426.2974                   21973424.3324
   -261589.11748   -176941.79746  21495472.3364                   21495468.4844
   9960621.45746   7789507.67244  23253502.0554                   23253500.2194
 -17530935.99648 -13638091.63347  19949992.8834                   19949987.6994
 -13872773.13347 -10799034.68746  20935278.3914                   20935275.9184
  -1852377.78547  -1432077.83645  22459458.9144                   22459454.0044
  18555338.61346  14465408.10943  24213033.4844                   24213033.2934
 -15047584.04347 -11719387.31646  20724288.9844                   20724285.8284
   1365883.00846   1068634.42645  23304039.7504                   23304037.9144
   8805684.94947   6864813.47743  24065144.7034                   24065144.0864
 11  7 24 17  4 30.0000000  0 10G06G16G20G23G03G19G32G13G07G10
  -8743845.66447  -6803881.85545  21967510.8834                   21967509.3244
   -220068.08248   -144587.76646  21503373.6884                   21503369.9454
  10014649.28146   7831607.20344  23263783.6174                   23263781.8874
 -17568342.94948 -13667239.91447  19942874.4534                   19942869.4144
 -13937132.24247 -10849184.63746  20923031.2344                   20923028.5084
  -1969648.89847  -1523457.89545  22437143.0004                   22437138.5004
  18615845.98046  14512556.57043  24224548.1564                   24224548.2774
 -15139778.14148 -11791226.85946  20706744.8284                   20706741.4734
   1271895.54347    995397.48044  23286154.8674                   23286152.7234
   8734172.71147   6809089.67643  24051536.2734                   24051535.7384
 11  7 24 17  5  0.0000000  0 10G06G16G20G23G03G19G32G13G07G10
  -8774381.90247  -6827676.32045  21961700.0394                   21961698.2424
   -178275.77748   -112022.35546  21511326.4224                   21511322.5984
  10068763.96946   7873774.41444  23274081.3984                   23274079.3834
 -17605221.33248 -13695976.32447  19935856.6884                   19935851.6804
 -14000912.00047 -10898883.14546  20910893.8984                   20910891.7074
  -2086659.74247  -1614635.14545  22414876.0944                   22414872.3634
  18676324.77346  14559682.74243  24236056.7664                   24236056.8984
 -15231603.84448 -11862779.35946  20689270.9224                   20689267.7734
   1177929.14147    922176.94545  23268273.4924                   23268271.1914
   8663157.51647   6753753.18043  24038022.7194                   24038021.3204
 11  7 24 17  5 30.0000000  0 10G06G16G20G23G03G19G32G13G07G10
  -8804366.28547  -6851040.76245  21955994.4534                   21955992.1024
   -136213.28948    -79246.42246  21519330.5784                   21519327.1764
  10122964.11346   7916008.23444  23284394.6484                   23284393.1804
 -17641568.61748 -13724298.89547  19928940.0634                   19928934.6374
 -14064109.41047 -10948127.87146  20898868.2274                   20898865.7894
  -2203405.70347  -1705606.00045  22392660.3914                   22392656.1334
  18736773.98846  14606785.92643  24247559.9224                   24247559.5984
 -15323057.03948 -11934041.58646  20671868.1094                   20671865.0204
   1083985.29347    848973.98445  23250396.1724                   23250393.7154
   8592641.59446   6698805.69543  24024604.2194                   24024602.2624
 11  7 24 17  6  0.0000000  0 10G06G16G20G23G03G19G32G13G07G10
  -8833799.58647  -6873975.78545  21950393.1954                   21950390.9184
    -93884.22348    -46262.75046  21527385.5394                   21527381.7584
  10177245.72346   7958305.52044  23294724.3364                   23294722.5704
 -17677384.78948 -13752207.60947  19922124.6954                   19922119.1844
 -14126723.44947 -10996918.03146  20886953.1804                   20886950.5204
  -2319884.49247  -1796368.65245  22370495.1254                   22370491.3284
  18797189.99246  14653863.19943  24259056.5004                   24259056.7894
 -15414136.42647 -12005012.53146  20654536.2814                   20654533.2734
    990062.61346    775787.52045  23232523.4064                   23232520.9414
   8522624.57446   6644246.97743  24011280.7114                   24011277.6954
 11  7 24 17  6 30.0000000  0 10G06G16G20G23G03G19G32G13G07G10
  -8862680.19947  -6896480.16045  21944897.5004                   21944895.3444
    -51290.26248    -13072.68446  21535490.9924                   21535487.6844
  10231606.88346   8000664.79744  23305068.9064                   23305067.3324
 -17712667.30548 -13779700.49247  19915410.5164                   19915405.4844
 -14188751.77047 -11045251.78546  20875149.4384                   20875147.1994
  -2436091.38347  -1886919.44945  22348381.6254                   22348377.3914
  18857571.71546  14700913.75843  24270547.9694                   24270547.1254
 -15504838.12547 -12075689.17646  20637276.2894                   20637273.2624
    896162.21147    702618.41845  23214654.8594                   23214652.6484
   8453108.60246   6590078.67243  23998052.0554                   23998049.6884
 11  7 24 17  7  0.0000000  0 10G06G16G20G23G03G19G32G13G07G10
  -8891013.80547  -6918558.29345  21939505.8754                   21939503.9804
     -8439.75448     20317.30146  21543644.6174                   21543641.2154
  10286038.96146   8043079.34844  23315426.8444                   23315425.5704
 -17747421.11748 -13806781.40247  19908797.1254                   19908791.9694
 -14250198.12947 -11093132.05546  20863456.9534                   20863454.2114
  -2552029.17247  -1977260.55945  22326319.4694                   22326314.9454
  18917910.52746  14747930.89143  24282029.3594                   24282029.4184
 -15595165.26648 -12146073.96146  20620087.7274                   20620084.5944
    802277.87946    629461.84445  23196789.2344                   23196786.7544
   8384088.23046   6536296.57843  23984917.8054                   23984916.4064
 11  7 24 17  7 30.0000000  0 10G06G16G20G23G03G19G32G13G07G10
  -8918798.99647  -6940209.09445  21934218.4844                   21934216.1414
     34665.62148     53905.87546  21551847.8444                   21551844.2114
  10340539.86746   8085547.52343  23325798.4304                   23325796.2074
 -17781643.94148 -13833448.54747  19902284.7664                   19902279.3324
 -14311060.30147 -11140557.12546  20851875.0314                   20851872.4384
  -2667693.59047  -2067388.64145  22304309.1334                   22304304.8054
  18978204.91446  14794913.41443  24293503.2504                   24293502.6914
 -15685115.00048 -12216164.65246  20602970.8204                   20602967.8554
    708410.82846    556318.72345  23178926.6254                   23178924.3634
   8315565.53946   6482902.27743  23971878.3204                   23971877.5864
 11  7 24 17  8  0.0000000  0 10G06G16G20G23G03G19G32G13G07G10
  -8946036.99247  -6961433.50045  21929035.6804                   21929033.2274
     78021.83648     87689.91446  21560097.9924                   21560094.7664
  10395105.55946   8128066.17244  23336181.8834                   23336179.8984
 -17815336.33648 -13859702.37547  19895873.3204                   19895868.0394
 -14371337.99247 -11187526.75046  20840404.6804                   20840402.2934
  -2783082.75447  -2157302.23845  22282351.1484                   22282347.3634
  19038450.91546  14841858.26243  24304968.0864                   24304968.0864
 -15774685.98848 -12285960.22346  20585925.9454                   20585922.7934
    614559.59046    483187.92645  23161067.6414                   23161064.8134
   8247539.53546   6429895.00844  23958933.8054                   23958933.5124
 11  7 24 17  8 30.0000000  0 10G06G16G20G23G03G19G32G13G07G10
  -8972729.13347  -6982232.57445  21923955.9304                   21923954.2704
    121624.93448    121666.32446  21568395.5864                   21568392.0434
  10449731.53146   8170631.79744  23346577.3054                   23346575.8404
 -17848498.68448 -13885543.18047  19889562.9064                   19889557.4264
 -14431030.89547 -11234040.69146  20829045.4224                   20829043.0394
  -2898194.94547  -2247000.02345  22260445.9924                   22260441.5984
  19098644.77046  14888762.38343  24316422.9224                   24316422.3404
 -15863877.25848 -12355459.91046  20568953.7894                   20568950.4844
    520722.38346    410068.07445  23143210.6884                   23143208.0084
   8180009.35946   6377274.14143  23946082.7424                   23946082.6884
 11  7 24 17  9  0.0000000  0 10G06G16G20G23G03G19G32G13G07G10
  -8998874.74247  -7002605.78145  21918980.5084                   21918978.6134
    165472.54348    155833.27346  21576739.5864                   21576735.7384
  10504414.98047   8213242.22344  23356982.5554                   23356980.9454
 -17881129.73048 -13910969.97747  19883353.3524                   19883348.1954
 -14490137.52748 -11280097.79746  20817797.4614                   20817795.1604
  -3013026.82447  -2336479.37545  22238594.3754                   22238590.0554
  19158784.05546  14935624.02743  24327866.2584                   24327866.5084
 -15952686.09848 -12424661.59446  20552053.7344                   20552050.2344
    426899.43446    336959.31645  23125356.6954                   23125354.2894
   8112976.27046   6325040.55943  23933327.2344                   23933326.2384
 11  7 24 17  9 30.0000000  0 10G06G16G20G23G03G19G32G13G07G10
  -9024472.56247  -7022552.14845  21914109.6334                   21914107.6484
    209563.07048    190189.51246  21585129.7734                   21585125.9104
  10559154.18046   8255896.07044  23367399.3524                   23367398.0004
 -17913227.55148 -13935981.27747  19877245.2974                   19877239.7734
 -14548655.01648 -11325695.84446  20806661.8984                   20806659.8134
  -3127573.74647  -2425736.69545  22216796.6334                   22216792.6024
  19218867.58246  14982442.26243  24339300.0634                   24339300.1134
 -16041108.53148 -12493562.18746  20535227.7114                   20535224.0744
    333091.89547    263862.57845  23107505.7114                   23107503.1134
   8046441.89146   6273195.59043  23920666.1024                   23920664.6764
 11  7 24 17 10  0.0000000  0 10G06G16G20G23G03G19G32G13G07G10
  -9049523.91847  -7042072.68745  21909342.3524                   21909339.9734
    253892.49648    224731.89846  21593565.2734                   21593561.5784
  10613944.55146   8298589.78944  23377825.7894                   23377824.1604
 -17944792.13748 -13960577.06647  19871238.5164                   19871233.4144
 -14606583.34448 -11370834.79746  20795638.7424                   20795636.5554
  -3241833.73847  -2514770.41845  22195053.8754                   22195049.7894
  19278891.37146  15029213.91043  24350722.1484                   24350722.3244
 -16129144.02348 -12562161.26646  20518475.0634                   20518471.7274
    239297.81647    190776.34445  23089657.4694                   23089655.0944
   7980405.00446   6221738.29343  23908099.0554                   23908097.3754
 11  7 24 17 10 30.0000000  0 10G06G16G20G23G03G19G32G13G07G10
  -9074029.12547  -7061167.66845  21904679.1954                   21904677.1764
    298457.80548    259458.08245  21602045.8054                   21602042.3554
  10668783.07846   8341321.05144  23388261.4774                   23388259.5904
 -17975823.33248 -13984757.23447  19865333.5554                   19865328.3164
 -14663921.58248 -11415513.93746  20784727.3674                   20784725.4884
  -3355804.22747  -2603578.55545  22173365.5164                   22173362.0434
  19338852.47346  15075936.73443  24362132.5944                   24362132.5234
 -16216790.27748 -12630457.03546  20501796.2034                   20501792.8554
    145517.07047    117700.45745  23071811.7974                   23071808.9264
   7914865.99646   6170668.92643  23895627.4694                   23895625.5944
 11  7 24 17 11  0.0000000  0 10G06G16G20G23G03G19G32G13G07G10
  -9097989.94947  -7079838.44945  21900119.9614                   21900117.5474
    343254.14848    294364.30145  21610570.3594                   21610566.3794
  10723664.72347   8384085.91044  23398705.1564                   23398703.2814
 -18006322.15648 -14008522.57047  19859529.6804                   19859524.4454
 -14720670.41848 -11459733.80946  20773928.6094                   20773926.3714
  -3469483.94147  -2692160.12945  22151733.2814                   22151729.3794
  19398746.49246  15122607.28143  24373529.5704                   24373531.1094
 -16304046.82848 -12698449.15246  20485191.7344                   20485188.7274
     51747.25047     44633.12945  23053967.4924                   23053965.4384
   7849823.62146   6119986.58643  23883249.8914                   23883248.3874
 11  7 24 17 11 30.0000000  0  9G06G16G20G23G03G19G13G07G10
  -9121408.43447  -7098086.61745  21895663.0394                   21895661.2424
    388277.21548    329447.18845  21619137.7734                   21619134.3554
  10778584.65246   8426880.58644  23409156.0164                   23409154.5274
 -18036289.85548 -14031874.03947  19853827.2274                   19853821.7504
 -14776830.48047 -11503494.89546  20763241.7894                   20763239.3204
  -3582871.66847  -2780514.17245  22130156.1644                   22130152.2034
 -16390913.37148 -12766137.37146  20468661.8444                   20468658.6214
    -42013.57047    -28427.21945  23036125.7274                   23036123.2384
   7785276.16846   6069689.87943  23870967.3914                   23870965.9064
 11  7 24 17 12  0.0000000  0  9G06G16G20G23G03G19G13G07G10
  -9144278.38747  -7115907.36745  21891311.2034                   21891309.2234
    433530.34048    364709.34046  21627749.3754                   21627745.5204
  10833545.95346   8469707.50844  23419614.9064                   23419613.3954
 -18065719.30948 -14054806.09047  19848227.1254                   19848221.9734
 -14832394.36747 -11546791.43046  20752668.1484                   20752666.2974
  -3695958.11747  -2868633.45745  22108636.4144                   22108632.6954
 -16477381.41048 -12833515.05946  20452207.5004                   20452204.1524
   -135759.09047   -101475.64545  23018286.5554                   23018284.5124
   7721230.52746   6019784.19544  23858780.4384                   23858779.4414
 11  7 24 17 12 30.0000000  0  9G06G16G20G23G03G19G13G07G10
  -9166591.45747  -7133294.18445  21887065.1174                   21887063.1914
    479019.30548    400155.26245  21636405.6884                   21636402.0784
  10888553.95346   8512570.80144  23430082.4844                   23430081.0704
 -18094601.36748 -14077311.60247  19842730.9384                   19842725.3714
 -14887351.94147 -11589615.51246  20742210.2584                   20742208.0634
  -3808731.72747  -2956508.95745  22087176.7034                   22087172.7234
 -16563440.10548 -12900573.78146  20435831.3134                   20435827.9884
   -229481.55146   -174506.08645  23000451.4224                   23000449.9654
   7657695.25046   5970276.19143  23846690.0004                   23846688.9924
 11  7 24 17 13  0.0000000  0  9G06G16G20G23G03G19G13G07G10
  -9188337.02047  -7150238.79345  21882927.2734                   21882925.2304
    524752.34048    435791.37145  21645108.3364                   21645105.0824
  10943616.54746   8555476.64544  23440560.3134                   23440559.3444
 -18122924.43048 -14099381.53547  19837341.5554                   19837336.0904
 -14941691.67247 -11631958.16446  20731869.8524                   20731867.2704
  -3921178.25847  -3044129.59445  22065778.6954                   22065774.3714
 -16649076.30148 -12967303.28146  20419535.0394                   20419531.7194
   -323170.10547   -247510.10545  22982622.9924                   22982621.5394
   7594681.44146   5921174.52343  23834698.7344                   23834698.0704
 11  7 24 17 13 30.0000000  0  9G06G16G20G23G03G19G13G07G10
  -9209513.73447  -7166740.12145  21878897.4774                   21878895.1564
    570728.03548    471616.56646  21653857.2194                   21653853.6024
  10998732.55546   8598424.09844  23451048.4774                   23451047.5474
 -18150686.53948 -14121014.35947  19832058.1414                   19832053.0944
 -14995410.97347 -11673817.35246  20721647.1644                   20721644.6564
  -4033293.81247  -3131492.33245  22044443.5944                   22044439.6094
 -16734286.15248 -13033700.56646  20403320.4774                   20403316.6524
   -416823.31247   -320486.58645  22964801.4534                   22964800.1764
   7532191.04746   5872480.73043  23822807.5394                   23822806.4654
 11  7 24 17 14  0.0000000  0  9G06G16G20G23G03G19G13G07G10
  -9230126.59847  -7182802.09845  21874974.8834                   21874972.8984
    616938.93448    507625.03145  21662651.1094                   21662647.7034
  11053893.93446   8641406.90244  23461545.5944                   23461544.4614
 -18177891.77348 -14142213.26247  19826881.2894                   19826875.9574
 -15048513.55947 -11715195.99646  20711541.9534                   20711539.7384
  -4145080.16847  -3218598.54345  22023171.1644                   22023167.0864
 -16819072.54747 -13099767.87946  20387186.3444                   20387182.3524
   -510446.64147   -393439.78545  22946985.9144                   22946983.7274
   7470219.49646   5824191.24643  23811013.9774                   23811013.1644
 11  7 24 17 14 30.0000000  0  9G06G16G20G23G03G19G13G07G10
  -9250181.06247  -7198428.96545  21871158.8754                   21871156.7274
    663376.73448    543810.30545  21671488.0554                   21671484.1884
  11109092.22346   8684418.46144  23472050.0944                   23472048.6914
 -18204544.85548 -14162981.91447  19821809.6174                   19821804.2344
 -15101003.62547 -11756097.33646  20701553.6484                   20701551.1994
  -4256538.80947  -3305449.38745  22001961.8054                   22001957.4964
 -16903438.40248 -13165507.50846  20371131.7274                   20371127.9964
   -604045.12947   -466373.61745  22929174.0164                   22929172.1604
   7408761.82846   5776302.18843  23799318.4144                   23799318.6054
 11  7 24 17 15  0.0000000  0  9G06G16G20G23G03G19G13G07G10
  -7694261.56647  -5986024.15245  22167240.4224                   22167238.3594
   2285452.68448   1807765.56645  21980158.6484                   21980154.9224
  12739737.68846   9955051.21544  23782351.3834                   23782350.3594
 -16655228.96148 -12955722.78547  20116634.5704                   20116629.1724
 -13577463.37547 -10568923.11746  20991473.2584                   20991471.3054
  -2792248.26647  -2164443.72745  22280606.8674                   22280602.6524
 -15411963.50048 -12003319.27346  20654949.9384                   20654946.4224
    877799.04747    688310.20345  23211160.3054                   23211157.8674
   8923235.39146   6956411.46943  24087513.8594                   24087512.6294
 11  7 24 17 15 30.0000000  0  9G06G16G20G23G03G19G13G07G10
  -7713209.81247  -6000789.03145  22163634.3834                   22163632.3244
   2332327.39848   1844291.29745  21989078.2894                   21989074.9494
  12794990.93846   9998105.58643  23792865.9694                   23792864.4384
 -16680785.61748 -12975637.08247  20111771.4064                   20111765.9224
 -13628735.17248 -10608875.16446  20981716.8444                   20981714.8874
  -2903053.01247  -2250785.04745  22259520.6954                   22259516.8834
 -15495490.96148 -12068405.59846  20639054.7504                   20639051.5044
    784239.59447    615406.78145  23193355.8204                   23193354.1914
   8862796.08646   6909315.92643  24076012.0234                   24076010.8594
 11  7 24 17 16  0.0000000  0  9G06G16G20G23G03G19G13G07G10
  -7731608.89147  -6015125.97345  22160133.5634                   22160131.5004
   2379412.62948   1880981.06345  21998038.5474                   21998034.8834
  12850263.88746  10041175.33243  23803383.7424                   23803382.7344
 -16705796.89548 -12995126.40247  20107011.6644                   20107006.5434
 -13679399.55948 -10648353.90646  20972076.0084                   20972073.2894
  -3013529.61747  -2336870.67245  22238498.3754                   22238494.2894
 -15578599.71548 -12133165.66446  20623239.7974                   20623236.6454
    690695.87547    542515.61345  23175555.3444                   23175553.4614
   8802862.71146   6862614.61743  24064607.8674                   24064605.8364
 11  7 24 17 16 30.0000000  0  9G06G16G20G23G03G19G13G07G10
  -7749455.21147  -6029032.19945  22156737.3054                   22156734.9304
   2426709.67248   1917835.87146  22007039.0704                   22007035.4694
  12905557.43446  10084261.12543  23813906.1724                   23813904.3634
 -16730258.22748 -13014187.20347  20102357.1884                   20102351.5474
 -13729451.87948 -10687355.71946  20962551.3444                   20962548.8524
  -3123671.41447  -2422695.40645  22217538.9304                   22217534.9224
 -15661283.35547 -12197594.47346  20607505.7114                   20607502.6954
    597171.55947    469639.55945  23157757.9064                   23157756.1024
   8743439.40646   6816310.74643  24053300.2424                   24053298.3634
 11  7 24 17 17  0.0000000  0  9G06G16G20G23G03G19G13G07G10
  -7766751.44547  -6042509.78545  22153446.0554                   22153444.0394
   2474213.36348   1954851.70345  22016078.7814                   22016075.1954
  12960866.00846  10127358.63744  23824431.2584                   23824429.3914
 -16754171.60548 -13032821.02347  20097806.5944                   20097801.1254
 -13778893.74248 -10725881.84846  20953142.9454                   20953140.6094
  -3233477.61347  -2508258.64845  22196643.6804                   22196639.6844
 -15743542.21947 -12261692.28546  20591852.3204                   20591849.2664
    503664.41847    396776.90245  23139963.9304                   23139962.2074
   8684524.20747   6770402.79744  24042089.4304                   24042088.0004
 11  7 24 17 17 30.0000000  0  9G06G16G20G23G03G19G13G07G10
  -7783499.80547  -6055560.45745  22150258.8834                   22150256.4224
   2521919.35247   1992025.16845  22025157.0864                   22025153.4264
  13016184.89846  10170464.19544  23834957.9924                   23834956.0864
 -16777538.00848 -13051028.62947  20093359.9534                   20093354.6294
 -13827725.89548 -10763932.87546  20943850.3674                   20943847.9884
  -3342946.86347  -2593559.33245  22175812.2584                   22175808.2734
 -15825375.57048 -12325458.53146  20576279.9064                   20576276.8834
    410172.32047    323925.94145  23122173.3834                   23122171.0664
   8626115.21147   6724889.30543  24030974.3674                   24030972.8524
 11  7 24 17 18  0.0000000  0  9G06G16G20G23G03G19G13G07G10
  -7799695.72747  -6068180.66045  22147176.5784                   22147175.0354
   2569829.91847   2029358.03545  22034273.7424                   22034270.3204
  13071515.98046  10213579.23043  23845487.0704                   23845485.6174
 -16800352.34448 -13068806.05947  20089018.5314                   20089013.0234
 -13875942.59448 -10801504.32846  20934674.7114                   20934672.8984
  -3452071.44147  -2678591.43745  22155046.5864                   22155042.3594
 -15906776.40248 -12388887.74646  20560790.1644                   20560786.8794
    316699.78947    251090.24245  23104386.1724                   23104383.6334
   8568217.44546   6679774.16844  24019955.7974                   24019955.5984
 11  7 24 17 18 30.0000000  0  9G06G16G20G23G03G19G13G07G10
  -7815336.93447  -6080368.61745  22144200.6094                   22144198.3134
   2617945.20748   2066850.44145  22043429.7584                   22043426.0004
  13126858.75847  10256703.40244  23856018.5784                   23856016.9454
 -16822611.34848 -13086150.75047  20084782.8524                   20084777.4144
 -13923540.29748 -10838593.45746  20925617.3754                   20925615.1914
  -3560845.97747  -2763350.78545  22134347.3674                   22134343.3674
 -15987740.28147 -12451976.48446  20545383.3364                   20545379.6954
    223249.62947    178271.94545  23086603.0554                   23086600.5824
   8510833.68847   6635059.57443  24009036.4144                   24009035.4734
 11  7 24 17 19  0.0000000  0  9G06G16G20G23G03G19G13G07G10
  -7830421.78147  -6092123.04745  22141329.8444                   22141327.9414
   2666264.29348   2104501.64545  22052624.6414                   22052621.0664
  13182212.90647  10299836.43444  23866552.5314                   23866550.2194
 -16844312.68748 -13103060.89847  20080653.1484                   20080647.7344
 -13970516.00048 -10875197.90246  20916678.5164                   20916675.9884
  -3669264.75847  -2847832.92645  22113715.8914                   22113711.5554
 -16068262.41847 -12514721.00846  20530059.9844                   20530056.6214
    129823.59047    105472.50445  23068824.7734                   23068822.1604
   8453966.13347   6590747.19943  23998214.5864                   23998213.4574
 11  7 24 17 19 30.0000000  0  9G06G16G20G23G03G19G13G07G10
  -7844949.91047  -6103443.66445  22138565.2344                   22138563.1094
   2714785.34048   2142310.21945  22061858.0394                   22061854.4224
  13237575.97746  10342976.39844  23877087.8284                   23877086.0124
 -16865454.85248 -13119535.33247  20076629.9614                   20076624.7544
 -14016868.21948 -10911316.52046  20907857.6564                   20907855.5234
  -3777324.20747  -2932035.06645  22093152.3674                   22093148.6484
 -16148339.95748 -12577119.10246  20514821.9844                   20514818.2814
     36422.77047     32692.67645  23051050.7734                   23051048.1844
   8397615.44147   6546837.55943  23987491.0704                   23987490.5984
 11  7 24 17 20  0.0000000  0  9G06G16G20G23G03G19G13G07G10
  -7858926.72347  -6114334.70345  22135905.4454                   22135903.4104
   2763501.14547   2180270.54745  22071128.6024                   22071124.8674
  13292940.31646  10386117.35544  23887623.1884                   23887621.6914
 -16886042.52748 -13135577.69147  20072712.3674                   20072707.0784
 -14062601.50848 -10946952.84846  20899155.2114                   20899152.7934
  -3885026.40247  -3015958.82845  22072657.6954                   22072653.3204
 -16227975.76247 -12639172.97746  20499667.9774                   20499664.6294
    -56958.14147    -40071.62545  23033281.1644                   23033278.5744
   8341776.97747   6503327.07844  23976866.3364                   23976864.0984
 11  7 24 17 20 30.0000000  0  9G06G16G20G23G03G19G13G07G10
  -7872349.21147  -6124793.78945  22133351.1644                   22133349.4024
   2812412.48848   2218383.25045  22080436.0234                   22080432.3484
  13348306.33246  10429259.60544  23898159.3914                   23898157.4654
 -16906071.91448 -13151185.02047  20068900.8284                   20068895.5234
 -14107711.02048 -10982103.12546  20890570.7814                   20890568.6884
  -3992364.65247  -3099598.98845  22052231.8834                   22052227.8134
 -16307163.98847 -12700878.09446  20484598.6094                   20484595.5084
   -150315.66447   -112817.71545  23015515.8204                   23015513.5274
   8286453.90647   6460218.17644  23966338.5314                   23966336.4574
 11  7 24 17 21  0.0000000  0  9G06G16G20G23G03G19G13G07G10
  -7885219.50447  -6134822.59445  22130902.0554                   22130900.0634
   2861515.05547   2256644.95745  22089779.9924                   22089776.2074
  13403669.40246  10472399.57844  23908694.6564                   23908692.5864
 -16925544.42648 -13166358.42647  20065195.5474                   20065190.3014
 -14152197.52048 -11016767.93046  20882105.4384                   20882102.9144
  -4099337.60947  -3182954.51645  22031875.6334                   22031871.8054
 -16385904.13748 -12762234.05146  20469615.5864                   20469611.9924
   -243651.73847   -185547.10545  22997754.9304                   22997752.3594
   8231644.60947   6417509.64544  23955908.9224                   23955907.0314
 11  7 24 17 21 30.0000000  0  9G06G16G20G23G03G19G13G07G10
  -7897543.46547  -6144425.69145  22128557.2344                   22128554.9534
   2910800.76647   2295049.38345  22099158.8134                   22099155.1414
  13459021.41846  10515530.93844  23919227.4614                   23919226.0704
 -16944465.03948 -13181101.77747  20061594.9614                   20061589.8444
 -14196065.99648 -11050951.16846  20873757.3674                   20873755.3444
  -4205947.88747  -3266027.43045  22011588.2664                   22011584.1334
 -16464199.27047 -12823243.24646  20454715.9534                   20454712.7774
   -336971.41447   -258263.69945  22979996.3284                   22979993.9144
   8177343.89147   6375197.39144  23945575.4694                   23945573.7344
 11  7 24 17 22  0.0000000  0  9G06G16G20G23G03G19G13G07G10
  -7909322.00447  -6153603.78945  22126315.7584                   22126313.5824
   2960266.78947   2333594.30945  22108571.9844                   22108568.3014
  13514359.10246  10558651.11743  23929757.5084                   23929756.1024
 -16962833.44148 -13195414.83247  20058099.7034                   20058094.0474
 -14239316.11348 -11084652.55146  20865527.2894                   20865525.2544
  -4312192.73047  -3348815.59445  21991370.8754                   21991366.4224
 -16542047.73848 -12883904.39146  20439902.1484                   20439898.7934
   -430275.01247   -330967.77045  22962241.1954                   22962238.9964
   8123551.29747   6333281.08244  23935339.8834                   23935337.9384
 11  7 24 17 22 30.0000000  0  9G06G16G20G23G03G19G13G07G10
  -7920554.92247  -6162356.73045  22124178.5704                   22124175.8324
   3009911.25847   2372278.27345  22118018.7734                   22118015.4614
  13569680.37146  10601758.47744  23940285.5634                   23940283.9844
 -16980648.69548 -13209296.86747  20054709.3364                   20054704.1024
 -14281946.42247 -11117870.97746  20857415.2114                   20857413.0664
  -4418068.53147  -3431316.19145  21971222.7584                   21971218.3674
 -16619446.79748 -12944215.34846  20425173.1804                   20425169.9104
   -523562.19147   -403659.02745  22944489.3674                   22944487.0204
   8070267.39547   6291761.16444  23925199.8444                   23925198.9534
 11  7 24 17 23  0.0000000  0  9G06G16G20G23G03G19G13G07G10
  -7931244.42647  -6170686.22745  22122143.8984                   22122141.9414
   3059730.10947   2411098.12945  22127498.8914                   22127495.3954
  13624980.75846  10644849.57443  23950808.4304                   23950807.9534
 -16997912.12548 -13222748.90247  20051424.2194                   20051419.0664
 -14323957.78548 -11150607.10546  20849420.7894                   20849418.3954
  -4523573.61347  -3513527.90645  21951145.8984                   21951142.2344
 -16696395.63748 -13004175.48846  20410530.5004                   20410527.2544
   -616834.24647   -476338.52345  22926740.2114                   22926737.6374
   8017490.79746   6250636.55144  23915156.8524                   23915156.7274
 11  7 24 17 23 30.0000000  0  9G06G16G20G23G03G19G13G07G10
  -7941389.26247  -6178591.31645  22120213.8834                   22120211.5124
   3109722.59847   2450053.28545  22137012.2034                   22137008.7344
  13680259.23446  10687923.59043  23961328.1414                   23961326.8524
 -17014622.06248 -13235769.64847  20048244.4304                   20048239.1524
 -14365348.37148 -11182859.50846  20841544.3364                   20841541.8984
  -4628703.31647  -3595447.14846  21931140.5864                   21931136.2664
 -16772890.25848 -13063781.68446  20395974.1334                   20395970.9264
   -710089.87547   -549005.22345  22908993.8364                   22908991.1414
   7965223.02047   6209908.41444  23905210.1484                   23905210.3954
 11  7 24 17 24  0.0000000  0  9G06G16G20G23G03G19G13G07G10
  -7950994.94547  -6186076.28145  22118385.5784                   22118383.5394
   3159881.14547   2489137.82445  22146557.4224                   22146553.4774
  13735507.96946  10730974.50043  23971841.9304                   23971839.8754
 -17030782.95748 -13248362.57447  20045169.0394                   20045164.1484
 -14406121.89547 -11214631.08646  20833785.2114                   20833782.9064
  -4733459.89847  -3677075.63746  21911205.6254                   21911201.6994
 -16848933.61748 -13123036.25446  20381503.6724                   20381500.0554
   -803333.55547   -621662.61345  22891250.0784                   22891247.6334
   7913458.78946   6169572.66843  23895359.2894                   23895359.2464
 11  7 24 17 24 30.0000000  0  9G06G16G20G23G03G19G13G07G10
  -7960060.11347  -6193140.06645  22116660.9694                   22116658.7544
   3210205.57847   2528351.64145  22156133.7194                   22156130.0234
  13790726.36346  10774001.71943  23982349.4454                   23982347.7194
 -17046392.35248 -13260525.74647  20042198.7344                   20042193.7704
 -14446275.63348 -11245919.71146  20826144.3284                   20826141.7854
  -4837838.00047  -3758409.19946  21891343.4844                   21891339.3094
 -16924521.45748 -13181935.86746  20367119.5634                   20367115.9344
   -896563.14847   -694309.02045  22873509.1024                   22873506.0044
   7862200.39847   6129631.05944  23885605.5004                   23885605.0984
 11  7 24 17 25  0.0000000  0  9G06G16G20G23G03G19G13G07G10
  -7968588.10547  -6199785.27345  22115038.1564                   22115035.5704
   3260690.46947   2567690.49245  22165740.6334                   22165737.1954
  13845908.69146  10817000.85544  23992849.9454                   23992849.1174
 -17061452.75048 -13272261.14547  20039332.9384                   20039327.5904
 -14485811.97347 -11276727.24246  20818620.7664                   20818618.2194
  -4941837.34447  -3839447.63345  21871553.0784                   21871548.9414
 -16999654.40648 -13240481.02746  20352822.1954                   20352818.6884
   -989781.82447   -766946.93045  22855770.2344                   22855766.8054
   7811445.18047   6090081.53144  23875946.5704                   23875945.9694
 11  7 24 17 25 30.0000000  0  9G06G16G20G23G03G19G13G07G10
  -7976581.61347  -6206014.00045  22113516.5944                   22113514.3754
   3311331.32847   2607150.85945  22175377.5784                   22175373.6414
  13901050.29346  10859968.25843  24003342.8364                   24003342.3364
 -17075965.98448 -13283570.17647  20036571.2274                   20036565.9804
 -14524732.66047 -11307055.04746  20811214.0554                   20811212.1094
  -5045457.22347  -3920190.37545  21851834.5864                   21851830.3484
 -17074332.34448 -13298671.62546  20338611.3204                   20338608.3404
  -1082991.16047   -839577.56645  22838033.6254                   22838029.9304
   7761190.53947   6050922.09443  23866383.9614                   23866382.2974
 11  7 24 17 26  0.0000000  0  9G06G16G20G23G03G19G13G07G10
  -7984041.68447  -6211827.05945  22112097.2584                   22112095.2074
   3362124.95747   2646730.28545  22185043.0004                   22185039.5904
  13956147.68446  10902901.17644  24013827.7734                   24013827.1094
 -17089932.68448 -13294453.34047  20033913.5004                   20033908.3914
 -14563037.62548 -11336903.07846  20803924.9534                   20803922.8594
  -5148695.00047  -4000635.38346  21832189.2894                   21832185.2854
 -17148553.66448 -13356506.42646  20324487.5554                   20324484.4024
  -1176191.66447   -912201.30945  22820297.6094                   22820294.9534
   7711435.96947   6012152.28143  23856915.7194                   23856913.7584
 11  7 24 17 26 30.0000000  0  9G06G16G20G23G03G19G13G07G10
  -7990965.31647  -6217222.11745  22110779.6564                   22110777.3984
   3413073.11347   2686430.10945  22194738.1254                   22194734.7894
  14011202.33646  10945800.84843  24024304.6024                   24024302.9104
 -17103348.29748 -13304907.07447  20031360.5314                   20031355.2424
 -14600722.17248 -11366267.65646  20796754.3284                   20796751.7154
  -5251543.96147  -4080777.40646  21812618.1414                   21812613.4384
 -17222312.08248 -13413980.52346  20310451.8914                   20310448.6094
  -1269379.28947   -984815.02045  22802565.2344                   22802561.8594
   7662185.40647   5973775.22743  23847543.4774                   23847541.3914
 11  7 24 17 27  0.0000000  0  9G06G16G20G23G03G19G13G07G10
  -7997354.82447  -6222200.96145  22109563.6254                   22109561.8244
   3464171.29747   2726246.85245  22204461.6954                   22204458.6214
  14066209.16046  10988663.23443  24034772.2114                   24034770.3524
 -17116214.89548 -13314933.00847  20028912.0864                   20028907.1484
 -14637787.83648 -11395149.99246  20789700.9064                   20789698.3794
  -5354003.14847  -4160615.71146  21793120.4924                   21793116.0004
 -17295607.57048 -13471093.88746  20296504.3204                   20296500.7584
  -1362555.88747  -1057420.13345  22784833.4694                   22784831.6054
   7613436.44946   5935789.02043  23838267.0314                   23838265.0864
 11  7 24 17 27 30.0000000  0  9G06G16G20G23G03G19G13G07G10
  -8003209.93047  -6226763.40245  22108449.7344                   22108447.4614
   3515418.53547   2766179.72345  22214213.7194                   22214210.9884
  14121167.03946  11031487.45743  24045230.2734                   24045228.6724
 -17128530.91048 -13324529.93047  20026568.3284                   20026563.3954
 -14674232.83647 -11423548.69946  20782765.4224                   20782763.1134
  -5456068.12947  -4240146.85246  21773698.1094                   21773693.6414
 -17368436.72348 -13527843.88746  20282645.2194                   20282642.2934
  -1455720.03947  -1130015.55145  22767105.4534                   22767103.3244
   7565190.21547   5898194.56343  23829086.2814                   23829084.5784
 11  7 24 17 28  0.0000000  0  9G06G16G20G23G03G19G13G07G10
  -8008528.38747  -6230907.66445  22107437.4064                   22107435.5124
   3566815.20347   2806229.03945  22223994.0864                   22223991.0704
  14176076.10246  11074273.66443  24055679.5704                   24055677.5864
 -17140293.36748 -13333695.49647  20024330.4694                   20024324.8524
 -14710054.02048 -11451461.30546  20775948.8914                   20775946.2734
  -5557733.35547  -4319366.48445  21754350.8444                   21754347.2774
 -17440794.65647 -13584226.68746  20268875.9384                   20268872.8754
  -1548868.78147  -1202598.96145  22749379.7664                   22749377.8134
   7517449.43047   5860993.94543  23820001.0704                   23820000.1414
 11  7 24 17 28 30.0000000  0  9G06G16G20G23G03G19G13G07G10
  -8013306.12547  -6234630.60545  22106528.4844                   22106525.9964
   3618363.71547   2846396.68045  22233803.8054                   22233800.5044
  14230938.32446  11117023.34443  24066119.5704                   24066117.7424
 -17151497.59448 -13342426.07847  20022197.9844                   20022192.8164
 -14745246.44947 -11478883.97746  20769252.1414                   20769249.9184
  -5658991.03547  -4398268.55146  21735082.8524                   21735079.1994
 -17512674.26648 -13640236.77346  20255197.7194                   20255194.5944
  -1641997.19547  -1275166.51645  22731657.5394                   22731655.6724
   7470218.30947   5824190.48043  23811013.9614                   23811012.8914
 11  7 24 17 29  0.0000000  0  9G06G16G20G23G03G19G13G07G10
  -8017545.43747  -6237933.98445  22105721.6804                   22105719.9804
   3670060.12547   2886679.56645  22243641.1254                   22243637.8634
  14285749.71146  11159733.45343  24076549.5634                   24076547.8094
 -17162144.69948 -13350722.54347  20020171.8834                   20020166.7504
 -14779810.67647 -11505817.15246  20762674.4774                   20762672.0314
  -5759839.25047  -4476851.55946  21715892.3284                   21715888.2424
 -17584075.09448 -13695873.78146  20241610.8054                   20241607.6134
  -1735106.39847  -1347719.10545  22713939.2894                   22713937.0944
   7423495.59047   5787783.17643  23802123.0234                   23802121.7584
 11  7 24 17 29 30.0000000  0  9G06G16G20G23G03G19G13G07G10
  -8021250.84847  -6240821.32045  22105016.6334                   22105014.6804
   3721898.26247   2927072.88345  22253505.8524                   22253502.2424
  14340503.98445  11202399.00043  24086968.6724                   24086967.6524
 -17172238.39548 -13358587.77346  20018251.1334                   20018245.8874
 -14813750.14147 -11532263.50046  20756216.4384                   20756213.8954
  -5860279.02747  -4555116.30146  21696779.2504                   21696774.9884
 -17654998.59447 -13751138.85546  20228114.1724                   20228111.2344
  -1828200.37947  -1420259.84045  22696224.4774                   22696221.6884
   7377277.25847   5751768.89843  23793328.1094                   23793327.2974
 11  7 24 17 30  0.0000000  0  9G06G16G20G23G03G19G13G07G10
  -8024417.86347  -6243289.14845  22104413.6954                   22104411.8164
   3773881.21547   2967579.05145  22263397.6484                   22263394.4884
  14395203.55946  11245021.89843  24097377.5084                   24097377.0314
 -17181773.73848 -13366017.93747  20016436.8914                   20016431.5904
 -14847059.50447 -11558218.85946  20749877.7664                   20749875.1484
  -5960302.21947  -4633056.43046  21677745.6644                   21677741.3054
 -17725437.44147 -13806026.27346  20214710.3054                   20214706.9884
  -1921273.27047  -1492784.12145  22678513.1414                   22678510.1724
   7331568.20347   5716151.45344  23784630.3524                   23784628.9384
 11  7 24 17 30 30.0000000  0  9G06G16G20G23G03G19G13G07G10
  -8027049.82047  -6245340.05145  22103913.7114                   22103911.0744
   3826004.05947   3008194.21545  22273316.6254                   22273312.9384
  14449842.95346  11287597.94543  24107775.7504                   24107774.6374
 -17190752.60948 -13373014.47747  20014728.0394                   20014723.1254
 -14879741.10248 -11583685.05146  20743658.3984                   20743656.3874
  -6059908.65647  -4710671.80946  21658790.7814                   21658786.5314
 -17795392.32047 -13860536.57046  20201398.5864                   20201394.9184
  -2014327.53147  -1565293.92245  22660805.9064                   22660802.0784
   7286365.36746   5680928.46943  23776027.3364                   23776026.8094
 11  7 24 17 31  0.0000000  0  9G06G16G20G23G03G19G13G07G10
  -8029148.92247  -6246975.73445  22103513.5234                   22103511.3054
   3878263.25447   3048915.62945  22283260.9924                   22283257.5474
  14504418.69546  11330124.37543  24118161.7504                   24118160.5784
 -17199176.44948 -13379578.53547  20013125.0474                   20013119.7894
 -14911795.77748 -11608662.73846  20737558.6564                   20737556.6134
  -6159096.52047  -4787961.03946  21639916.0864                   21639911.8754
 -17864862.25447 -13914668.98846  20188178.6334                   20188175.4884
  -2107364.34447  -1637790.11745  22643101.4224                   22643097.6914
   7241667.22346   5646098.76643  23767521.8524                   23767520.5044
 11  7 24 17 31 30.0000000  0  9G06G16G20G23G03G19G13G07G10
  -8030713.12547  -6248194.60945  22103215.6484                   22103213.9924
   3930659.48047   3089743.82845  22293232.0234                   22293228.2234
  14558930.95746  11372601.34443  24128534.7034                   24128533.2664
 -17207042.27047 -13385707.76647  20011627.9304                   20011623.0664
 -14943220.58648 -11633149.61746  20731578.7814                   20731576.5594
  -6257860.05547  -4864919.60946  21621122.0634                   21621117.9614
 -17933842.54747 -13968419.86746  20175052.4224                   20175049.0664
  -2200380.44147  -1710270.16045  22625400.7974                   22625397.3714
   7197476.35246   5611664.30943  23759112.5314                   23759111.2974
 11  7 24 17 32  0.0000000  0  9G06G16G20G23G03G19G13G07G10
  -8031744.69547  -6248998.45345  22103019.3674                   22103017.5124
   3983188.52747   3130675.51245  22303227.6954                   22303224.4734
  14613375.63746  11415025.68043  24138895.8754                   24138894.0904
 -17214351.89847 -13391403.59847  20010237.4844                   20010232.3674
 -14974016.55547 -11657146.48846  20725718.5234                   20725716.2894
  -6356197.85547  -4941546.44546  21602408.7664                   21602404.8244
 -18002332.05147 -14021788.30946  20162018.9384                   20162015.9494
  -2293377.14847  -1782735.10945  22607704.3594                   22607700.8054
   7153790.78546   5577623.62943  23750799.2664                   23750798.4884
 11  7 24 17 32 30.0000000  0  9G06G16G20G23G03G19G13G07G10
  -8032243.03947  -6249386.80145  22102924.8524                   22102922.6844
   4035849.99647   3171710.39545  22313248.8444                   22313245.4734
  14667751.63745  11457396.44943  24149243.2664                   24149242.2584
 -17221103.90247 -13396664.91847  20008952.4304                   20008947.3364
 -15004182.02748 -11680652.05946  20719978.1954                   20719976.1604
  -6454105.57847  -5017838.15246  21583777.7664                   21583773.6804
 -18070327.82447 -14074772.02746  20149080.2504                   20149076.7304
  -2386352.61347  -1855183.50845  22590011.5554                   22590008.7774
   7110611.81346   5543977.70743  23742582.4454                   23742581.4614
 11  7 24 17 33  0.0000000  0  9G06G16G20G23G03G19G13G07G10
  -8032207.66047  -6249359.25045  22102931.5004                   22102929.8594
   4088642.70747   3212847.52045  22323294.9304                   22323291.6294
  14722057.57846  11499712.65244  24159576.5394                   24159576.1414
 -17227297.03148 -13401490.75447  20007774.1414                   20007768.7194
 -15033715.73848 -11703665.34846  20714358.3834                   20714355.9494
  -6551579.02047  -5093791.46146  21565229.0944                   21565224.8914
 -18137826.34447 -14127368.27346  20136235.1564                   20136232.0274
  -2479305.34847  -1927614.18745  22572322.9614                   22572321.0944
   7067940.30146   5510727.16443  23734462.1414                   23734461.6254
 11  7 24 17 33 30.0000000  0  9G06G16G20G23G03G19G13G07G10
  -8031641.86347  -6248918.39845  22103039.6174                   22103037.1764
   4141562.31647   3254083.54745  22333365.7344                   22333362.3524
  14776288.48446  11541970.37144  24169896.6954                   24169895.9614
 -17232933.41448 -13405882.76647  20006701.3284                   20006696.4734
 -15062619.33248 -11726187.63346  20708858.1804                   20708855.7584
  -6648617.52047  -5169405.85546  21546763.3204                   21546758.9414
 -18204827.87547 -14179577.26246  20123485.5234                   20123481.9844
  -2572237.55547  -2000028.84445  22554638.3204                   22554636.5554
   7025773.28546   5477869.73444  23726438.7274                   23726437.6724
 11  7 24 17 34  0.0000000  0  9G06G16G20G23G03G19G13G07G10
  -8030545.61347  -6248064.19545  22103247.6954                   22103245.9774
   4194607.46947   3295417.39545  22343459.5704                   22343456.2814
  14830443.17646  11584168.77044  24180202.8984                   24180201.5984
 -17238012.20348 -13409840.27746  20005734.9384                   20005729.8284
 -15090891.93448 -11748218.24246  20703477.7424                   20703475.5314
  -6745217.44147  -5244678.50046  21528381.0554                   21528376.5514
 -18271329.14147 -14231396.43446  20110830.8204                   20110827.2154
  -2665147.63747  -2072426.29745  22536958.3284                   22536956.5864
   6984112.05546   5445406.42643  23718511.2584                   23718509.5594
 11  7 24 17 34 30.0000000  0  9G06G16G20G23G03G19G13G07G10
  -8028920.78947  -6246798.10545  22103557.1724                   22103555.0864
   4247775.10947   3336846.69145  22353577.1884                   22353574.1334
  14884518.08246  11626304.94543  24190492.3984                   24190491.4454
 -17242534.49247 -13413364.17246  20004874.4384                   20004869.4344
 -15118534.43748 -11769757.87146  20698218.0164                   20698215.6564
  -6841376.87147  -5319607.90646  21510082.5004                   21510078.3554
 -18337329.29747 -14282825.13746  20098271.2424                   20098267.9774
  -2758036.46547  -2144807.16845  22519282.6254                   22519280.1604
   6942954.63746   5413335.71144  23710679.2114                   23710677.9224
 11  7 24 17 35  0.0000000  0  9G06G16G20G23G03G19G13G07G10
  -8026768.05947  -6245120.66445  22103966.9844                   22103964.7774
   4301063.37547   3378369.97745  22363717.6024                   22363714.2384
  14938511.07846  11668377.29743  24200767.3914                   24200766.0594
 -17246500.16448 -13416454.32447  20004119.6954                   20004114.8444
 -15145546.37148 -11790806.13346  20693077.4844                   20693075.4184
  -6937092.25847  -5394191.30146  21491867.9924                   21491863.9184
 -18402826.02747 -14333861.55146  20085807.8594                   20085804.5314
  -2850903.28547  -2217170.89545  22501610.4844                   22501608.0984
   6902301.09846   5381657.62544  23702943.3444                   23702941.6294
 11  7 24 17 35 30.0000000  0  9G06G16G20G23G03G19G13G07G10
  -8024090.59447  -6243034.34045  22104476.1564                   22104474.4024
   4354467.70747   3419983.70345  22373879.7664                   22373876.6294
  14992417.63746  11710382.29743  24211025.3204                   24211024.4614
 -17249911.33647 -13419112.39846  20003470.6724                   20003465.8594
 -15171929.93748 -11811364.77346  20688056.8754                   20688054.8674
  -7032363.12547  -5468428.32846  21473738.8524                   21473734.8324
 -18467819.46147 -14384505.79746  20073440.0314                   20073436.2034
  -2943749.69947  -2289518.72345  22483942.4384                   22483939.4104
   6862148.49646   5350369.86344  23695301.7814                   23695301.1414
 11  7 24 17 36  0.0000000  0  9G06G16G20G23G03G19G13G07G10
  -8020888.69947  -6240539.37545  22105085.5554                   22105084.0704
   4407986.58647   3461686.68045  22384064.3914                   22384061.1414
  15046235.32046  11752318.09443  24221266.3054                   24221265.4964
 -17252767.72348 -13421338.17646  20002927.0944                   20002921.9024
 -15197684.37548 -11831433.17246  20683155.9304                   20683153.6134
  -7127186.11747  -5542316.35546  21455694.5474                   21455690.7504
 -18532306.69147 -14434755.59446  20061168.5164                   20061164.8404
  -3036575.09847  -2361850.17645  22466278.1644                   22466275.3054
   6822497.40646   5319472.91444  23687756.3444                   23687755.7464
 11  7 24 17 36 30.0000000  0  9G06G16G20G23G03G19G13G07G10
  -8017165.78947  -6237638.42645  22105794.2584                   22105792.3984
   4461615.41447   3503475.33245  22394269.5314                   22394266.7034
  15099959.31646  11794180.86743  24231490.9064                   24231489.3794
 -17255072.08648 -13423133.80946  20002488.4694                   20002483.5904
 -15222812.11748 -11851013.23846  20678374.3054                   20678372.1804
  -7221560.85947  -5615855.09846  21437735.7034                   21437731.5004
 -18596288.73447 -14484611.73446  20048992.7664                   20048989.7734
  -3129381.23047  -2434166.62545  22448617.6484                   22448614.8714
   6783344.36346   5288964.03144  23680306.6564                   23680305.5784
 11  7 24 17 37  0.0000000  0  9G06G16G20G23G03G19G13G07G10
  -8012927.75447  -6234336.07045  22106600.6724                   22106598.6844
   4515347.09847   3545344.14145  22404494.1804                   22404491.1454
  15153582.63746  11835965.16843  24241693.5084                   24241693.6454
 -17256829.43048 -13424503.19147  20002154.2734                   20002148.8834
 -15247318.28948 -11870108.96546  20673710.9924                   20673708.9144
  -7315489.39847  -5689046.15246  21419861.5864                   21419857.4654
 -18659768.27047 -14534076.32046  20036913.2734                   20036909.8594
  -3222172.62146  -2506471.59045  22430959.4064                   22430957.3164
   6744684.31646   5258839.33244  23672949.3054                   23672948.4534
 11  7 24 17 37 30.0000000  0  9G06G16G20G23G03G19G13G07G10
  -8008172.75047  -6230630.89145  22107505.1484                   22107503.9264
   4569183.11347   3587294.24645  22414739.2274                   22414735.8594
  15207105.55945  11877671.21542  24251877.8364                   24251878.9734
 -17258036.62148 -13425443.87547  20001924.2114                   20001919.3204
 -15271199.59447 -11888717.78146  20669166.5554                   20669164.3714
  -7408965.75447  -5761884.85946  21402073.6954                   21402069.4774
 -18722740.23047 -14583145.39146  20024930.0394                   20024926.5434
  -3314945.85946  -2578762.41045  22413305.4224                   22413303.3484
   6706519.71946   5229100.68844  23665686.3444                   23665686.3554
 11  7 24 17 38  0.0000000  0  9G06G16G20G23G03G19G13G07G10
  -6427482.52347  -4998924.24645  22408300.8364                   22408299.0514
   6198538.55147   4856921.82445  22724795.2974                   22724792.0204
  16835943.61746  13146895.53543  24561836.8754                   24561836.1484
 -15683274.44148 -12198356.48446  20301591.5234                   20301586.7584
 -13719035.75048 -10679239.46946  20964533.3364                   20964531.3594
  -5926564.75447  -4606767.18446  21684165.4064                   21684160.8914
 -17209781.31647 -13404216.36746  20312836.7424                   20312833.4184
  -1832278.21147  -1423436.94545  22695447.8444                   22695445.8284
   8244270.36746   6427347.95743  23958310.9064                   23958309.7894
 11  7 24 17 38 30.0000000  0  9G06G16G20G23G03G19G13G07G10
  -6421699.12147  -4994417.70745  22409401.1564                   22409399.9884
   6252573.39547   4899026.85545  22735077.5164                   22735074.8914
  16889256.67246  13188438.17242  24571982.3524                   24571980.1684
 -15683384.84448 -12198442.53546  20301570.8134                   20301565.7384
 -13741670.00048 -10696876.55146  20960226.2194                   20960224.5474
  -6019131.00447  -4678896.72746  21666550.5634                   21666545.9454
 -17271735.05548 -13452492.01646  20301047.1954                   20301043.7504
  -1925016.83247  -1495700.78545  22677800.9694                   22677798.5394
   8207092.16446   6398377.94544  23951235.8834                   23951234.7114
 11  7 24 17 39  0.0000000  0 10G06G16G20G23G03G19G08G13G07G10
  -6415404.60247  -4989512.90645  22410599.2814                   22410597.4184
   6306703.06647   4941205.79345  22745378.4304                   22745375.0004
  16942459.49646  13229894.79743  24582106.1804                   24582105.2894
 -15682948.85248 -12198102.82446  20301653.9304                   20301648.7624
 -13763682.13348 -10714028.87546  20956037.4614                   20956035.6254
  -6111239.82047  -4750669.82846  21649023.0704                   21649018.4184
  14051816.71556  10958747.64853  24772853.2194                   24772851.4494
 -17333178.28147 -13500369.86346  20289355.1334                   20289351.8014
  -2017738.85247  -1567951.66845  22660156.0634                   22660154.1134
   8170404.89146   6369790.46144  23944254.2974                   23944253.7664
 11  7 24 17 39 30.0000000  0  9G06G16G23G03G19G08G13G07G10
  -6408609.33247  -4984217.90645  22411892.5084                   22411890.6454
   6360916.35547   4983449.87145  22755694.7894                   22755691.6804
 -15681976.14848 -12197344.89846  20301838.7814                   20301834.0904
 -13785082.35948 -10730704.38346  20951965.4384                   20951963.2384
  -6202897.59447  -4822091.46546  21631581.0864                   21631576.2854
  13950115.09446  10879499.71943  24753499.6024                   24753498.1724
 -17394118.49247 -13547855.74246  20277758.5394                   20277754.9924
  -2110453.12147  -1640196.51645  22642513.2974                   22642511.0784
   8134198.45346   6341577.62944  23937364.7424                   23937363.5124
 11  7 24 17 40  0.0000000  0  9G06G16G23G03G19G08G13G07G10
  -6401320.16047  -4978538.05945  22413279.2344                   22413277.3674
   6415205.55147   5025753.09045  22766025.3524                   22766022.5664
 -15680472.18448 -12196173.00046  20302125.1334                   20302120.1174
 -13805875.48048 -10746906.82446  20948008.1884                   20948006.1564
  -6294106.89547  -4893163.63346  21614224.0944                   21614219.9184
  13848336.25446  10800191.60243  24734131.3134                   24734129.7274
 -17454559.20347 -13594952.40646  20266257.2344                   20266253.4224
  -2203164.61347  -1712439.20345  22624870.8754                   22624868.0634
   8098467.06646   6313735.00443  23930565.4384                   23930564.1374
 11  7 24 17 40 30.0000000  0  9G06G16G23G03G19G08G13G07G10
  -6393527.91047  -4972466.18445  22414762.2974                   22414760.4104
   6469578.75047   5068121.77745  22776372.6954                   22776369.0234
 -15678427.46948 -12194579.74246  20302514.2194                   20302509.4654
 -13826051.71948 -10762628.57846  20944169.0164                   20944167.0984
  -6384854.71147  -4963876.20746  21596955.5234                   21596951.2544
  13746490.28546  10720831.19944  24714750.7114                   24714748.6644
 -17514488.14147 -13641650.28146  20254853.0394                   20254849.1954
  -2295862.57847  -1784671.35245  22607230.9844                   22607228.2034
   8063220.01246   6286269.75443  23923858.4064                   23923857.0784
 11  7 24 17 41  0.0000000  0  9G06G16G23G03G19G08G13G07G10
  -6385214.68047  -4965988.34845  22416344.1174                   22416342.2464
   6524053.18047   5110569.33245  22786738.8674                   22786735.8914
 -15675823.24648 -12192550.50446  20303009.8054                   20303004.6374
 -13845592.57048 -10777855.21546  20940450.7344                   20940448.7384
  -6475119.84047  -5034212.66846  21579778.5944                   21579774.0824
  13644595.78947  10641432.95344  24695360.4304                   24695359.1294
 -17573884.74648 -13687933.35546  20243550.0234                   20243546.6174
  -2388527.90247  -1856878.07445  22589597.4454                   22589594.5314
   8028475.45346   6259196.06644  23917245.9614                   23917245.3524
 11  7 24 17 41 30.0000000  0  9G06G16G23G03G19G08G13G07G10
  -6376380.45747  -4959104.55545  22418025.2974                   22418023.3444
   6578627.70347   5153094.89845  22797124.1954                   22797121.2304
 -15672658.85548 -12190084.77046  20303612.3674                   20303607.1334
 -13864496.85248 -10792585.84046  20936853.1804                   20936851.3284
  -6564898.09047  -5104169.73046  21562694.5554                   21562690.1994
  13542654.28146  10561998.09444  24675962.1724                   24675960.0824
 -17632745.97748 -13733799.25846  20232349.3834                   20232345.7854
  -2481158.66047  -1929057.86345  22571969.9844                   22571967.0984
   7994234.25446   6232514.60544  23910730.5084                   23910729.5234
 11  7 24 17 42  0.0000000  0  9G06G16G23G03G19G08G13G07G10
  -6367028.26647  -4951817.14545  22419805.0004                   22419803.1684
   6633298.45747   5195695.43445  22807527.4774                   22807524.7114
 -15668936.23448 -12187184.05546  20304320.5234                   20304315.4144
 -13882766.57848 -10806822.00046  20933376.4774                   20933374.3594
  -6654188.54347  -5173746.69546  21545703.1644                   21545698.7894
  13440663.68447  10482524.99644  24656553.6884                   24656552.2074
 -17691071.60248 -13779247.79346  20221250.2664                   20221246.4064
  -2573756.16847  -2001211.75845  22554349.2274                   22554346.2584
   7960493.92246   6206223.42644  23904310.1724                   23904309.3714
 11  7 24 17 42 30.0000000  0  9G06G16G23G03G19G08G13G07G10
  -6357161.56647  -4944128.82845  22421682.6094                   22421681.2304
   6688061.58247   5238367.96144  22817948.8284                   22817945.8054
 -15664658.41048 -12183850.70346  20305134.3674                   20305129.3484
 -13900404.57448 -10820565.90646  20930019.9614                   20930017.9384
  -6742990.80947  -5242943.24646  21528804.1414                   21528800.1844
  13338621.27347  10403011.48043  24637136.0314                   24637134.3014
 -17748862.27748 -13824279.49646  20210252.8204                   20210249.5744
  -2666322.09847  -2073341.03545  22536734.4384                   22536731.6094
   7927251.26646   6180320.05944  23897984.2974                   23897983.1484
 11  7 24 17 43  0.0000000  0  9G06G16G23G03G19G08G13G07G10
  -6346786.52747  -4936044.40645  22423656.7734                   22423655.0864
   6742910.07047   5281107.00045  22828385.9304                   22828382.9844
 -15659830.18048 -12180088.47346  20306053.4064                   20306048.1764
 -13917415.78148 -10833821.39546  20926783.3204                   20926780.9304
  -6831306.76647  -5311760.85946  21511998.3594                   21511994.2194
  13236522.39846  10323453.97343  24617707.1564                   24617706.2304
 -17806120.93047 -13868896.62946  20199356.7584                   20199353.4024
  -2758860.80147  -2145449.09845  22519125.0394                   22519122.8984
   7894500.63746   6154800.07844  23891751.7814                   23891751.2304
 11  7 24 17 43 30.0000000  0  9G06G16G23G03G19G08G13G07G10
  -6335902.43047  -4927563.31245  22425728.0634                   22425726.3404
   6797843.32847   5323912.09845  22838839.8594                   22838836.6214
 -15654450.65248 -12175896.65246  20307076.8524                   20307072.0784
 -13933798.70748 -10846587.32846  20923665.5784                   20923663.6094
  -6919132.78547  -5380196.70346  21495285.6024                   21495281.5274
  13134368.62946  10243853.70743  24598267.5634                   24598266.6414
 -17862844.22347 -13913096.60247  20188562.8984                   20188559.6724
  -2851370.14147  -2217534.31245  22501521.3284                   22501518.5314
   7862243.24646   6129664.43844  23885613.5234                   23885612.7384
 11  7 24 17 44  0.0000000  0  9G06G16G23G03G19G08G13G07G10
  -6324515.51647  -4918690.41045  22427895.0314                   22427893.1724
   6852855.08247   5366778.35245  22849308.1644                   22849304.6764
 -15648524.87148 -12171279.18446  20308204.7034                   20308199.5824
 -13949558.37548 -10858867.59046  20920666.6804                   20920664.8204
  -7006470.42247  -5448251.98046  21478666.4064                   21478662.0084
  13032155.77746  10164207.38343  24578817.2664                   24578815.9064
 -17919034.87947 -13956881.53946  20177870.1884                   20177867.0234
  -2943854.04747  -2289599.67645  22483922.2584                   22483919.8244
   7830473.44546   6104908.76244  23879567.8364                   23879567.3984
 11  7 24 17 44 30.0000000  0  9G06G16G23G03G19G08G13G07G10
  -6312630.02747  -4909429.01645  22430156.7424                   22430155.0744
   6907940.41847   5409701.94945  22859790.4534                   22859787.1334
 -15642056.37548 -12166238.81646  20309435.4144                   20309430.5124
 -13964698.39548 -10870665.02346  20917785.7974                   20917783.6134
  -7093320.14148  -5515927.05946  21462139.0314                   21462134.5044
  12929880.48446  10084512.47343  24559354.6024                   24559354.0514
 -17974694.32448 -14000252.54746  20167278.4534                   20167275.1954
  -3036315.15647  -2361647.28545  22466327.2814                   22466324.8914
   7799187.43846   6080530.02744  23873614.1484                   23873613.6724
 11  7 24 17 45  0.0000000  0  9G06G16G23G03G19G08G13G07G10
  -6300246.58247  -4899779.60945  22432512.9064                   22432511.4344
   6963097.68047   5452681.59045  22870286.3984                   22870283.5204
 -15635045.32848 -12160775.69146  20310769.9064                   20310764.8404
 -13979218.93748 -10881979.74246  20915022.5314                   20915020.4844
  -7179678.73848  -5583219.44546  21445705.4844                   21445701.1334
  12827543.06646  10004769.05943  24539880.3914                   24539879.7344
 -18029820.03948 -14043207.65246  20156788.5234                   20156785.3134
  -3128752.31247  -2433676.22345  22448737.0474                   22448734.7114
   7768384.77046   6056527.95744  23867753.3364                   23867752.6414
 11  7 24 17 45 30.0000000  0  9G06G16G23G03G19G08G13G07G10
  -6287367.69147  -4889744.12545  22434963.8524                   22434962.5474
   7018323.96547   5495715.01645  22880795.5084                   22880792.7154
 -15627493.25048 -12154890.98846  20312207.1804                   20312202.1454
 -13993121.26248 -10892812.72746  20912376.9144                   20912375.1294
  -7265545.16048  -5650128.32446  21429365.5474                   21429361.1484
  12725142.48046   9924976.46943  24520394.7034                   24520393.5204
 -18084411.34848 -14085746.34446  20146400.0394                   20146396.5824
  -3221165.85547  -2505686.76245  22431151.1564                   22431148.7034
   7738063.83646   6032901.21543  23861983.4924                   23861982.7664
 11  7 24 17 46  0.0000000  0  9G06G16G23G03G19G08G13G07G10
  -6273992.58247  -4879321.98445  22437509.0634                   22437507.4804
   7073619.33247   5538802.26644  22891317.8054                   22891315.0744
 -15619398.90248 -12148583.72746  20313747.3914                   20313742.4694
 -14006403.82448 -10903162.78546  20909849.5394                   20909847.1684
  -7350914.46947  -5716649.83646  21413120.2584                   21413116.0004
  12622680.77046   9845136.22343  24500896.3364                   24500895.9454
 -18138464.75048 -14127865.88346  20136113.9694                   20136110.7704
  -3313553.36347  -2577677.00845  22413570.1564                   22413567.6804
   7708225.33646   6009650.43844  23856304.7274                   23856304.2894
 11  7 24 17 46 30.0000000  0  9G06G16G23G03G19G08G13G07G10
  -6260122.44147  -4868514.10945  22440148.9774                   22440146.7154
   7128982.24247   5581942.14845  22901853.3364                   22901850.3594
 -15610762.41448 -12141854.02346  20315390.8444                   20315385.8594
 -14019066.88748 -10913030.11746  20907439.6334                   20907437.5744
  -7435784.02048  -5782781.93446  21396970.0704                   21396965.7074
  12520158.00446   9765248.43043  24481386.0474                   24481385.8204
 -18191978.70748 -14169565.07846  20125931.0004                   20125927.4304
  -3405914.24247  -2649646.50445  22395994.8054                   22395991.7114
   7678868.55146   5986775.01644  23850718.7114                   23850718.3244
 11  7 24 17 47  0.0000000  0  9G06G16G23G03G19G08G13G07G10
  -6245758.70747  -4857321.60545  22442881.8754                   22442880.3714
   7184410.54347   5625133.00444  22912400.9534                   22912397.8444
 -15601584.27048 -12134702.24646  20317137.3054                   20317132.3914
 -14031110.70748 -10922414.91846  20905147.8914                   20905145.8954
  -7520151.22747  -5848522.60246  21380915.7894                   21380911.1724
  12417574.65646   9685313.42243  24461865.8444                   24461864.7274
 -18244951.34448 -14210842.46146  20115850.4144                   20115847.3134
  -3498247.50847  -2721594.46545  22378424.2034                   22378421.1454
   7649993.23846   5964274.77044  23845223.4304                   23845222.7584
 11  7 24 17 47 30.0000000  0  9G06G16G23G03G19G08G13G07G10
  -6230902.60547  -4845745.43745  22445708.8834                   22445706.7504
   7239902.55947   5668373.48444  22922961.0004                   22922957.8834
 -15591865.31648 -12127129.06246  20318986.6724                   20318981.5984
 -14042536.05548 -10931317.79746  20902973.7114                   20902971.4964
  -7604013.45347  -5913869.77746  21364957.2584                   21364952.7584
  12314930.91046   9605331.35243  24442332.4304                   24442332.6914
 -18297380.82848 -14251696.62146  20105873.4304                   20105869.9144
  -3590552.57847  -2793520.47745  22360859.5554                   22360856.0394
   7621598.05146   5942148.65643  23839819.9694                   23839819.4024
 11  7 24 17 48  0.0000000  0  9G06G16G23G03G19G08G13G07G10
  -6215552.89847  -4833784.64845  22448630.0784                   22448628.3204
   7295459.05547   5711664.22344  22933532.8054                   22933529.8834
 -15581603.76248 -12119133.07846  20320939.7894                   20320934.4844
 -14053341.12548 -10939737.34846  20900917.8204                   20900915.5274
  -7687365.89147  -5978819.71546  21349095.5784                   21349091.3594
  12212228.75846   9525303.74243  24422788.9614                   24422788.1724
 -18349263.06248 -14292124.34447  20096000.4224                   20095997.1724
  -3682826.18447  -2865421.96545  22343299.9384                   22343297.2114
   7593684.89846   5920398.10944  23834508.5084                   23834507.8984
 11  7 24 17 48 30.0000000  0  9G06G16G23G03G19G08G13G07G10
  -6199707.23447  -4821437.39845  22451645.5314                   22451643.5204
   7351082.02347   5755006.75445  22944117.4694                   22944114.5044
 -15570796.03948 -12110711.49646  20322995.9454                   20322990.9694
 -14063522.21148 -10947670.66846  20898979.9064                   20898977.5944
  -7770202.21947  -6043367.48446  21333332.7274                   21333328.4064
  12109472.21546   9445233.73443  24403235.2034                   24403235.2934
 -18400592.43047 -14332121.25847  20086232.9064                   20086229.4224
  -3775063.84847  -2937295.45345  22325748.3914                   22325745.0664
   7566256.35546   5899025.21544  23829288.5084                   23829288.3364
 11  7 24 17 49  0.0000000  0  9G06G16G23G03G19G08G13G07G10
  -6183365.03947  -4808703.24245  22454754.8204                   22454753.1054
   7406771.73447   5798401.28144  22954714.7274                   22954712.5124
 -15559441.04348 -12101863.48446  20325156.8594                   20325152.0664
 -14073078.15648 -10955116.88746  20897161.5314                   20897159.3874
  -7852517.74647  -6107509.44946  21317668.1174                   21317664.0784
  12006662.91046   9365122.64143  24383671.7194                   24383671.1334
 -18451365.54748 -14371684.73047  20076571.3834                   20076567.8484
  -3867262.61747  -3009138.63345  22308203.2424                   22308200.4224
   7539313.56346   5878030.81644  23824161.7034                   23824161.2234
 11  7 24 17 49 30.0000000  0  9G06G16G23G03G19G08G13G07G10
  -6166530.26247  -4795585.25845  22457958.8204                   22457956.8054
   7462523.65647   5841844.28544  22965324.1804                   22965321.5164
 -15547541.85948 -12092591.41846  20327421.1804                   20327416.0944
 -14082012.20748 -10962078.50046  20895461.6334                   20895459.4884
  -7934312.82848  -6171245.86346  21302102.9384                   21302099.1884
  11903799.03946   9284969.00443  24364097.0394                   24364096.5164
 -18501583.25848 -14410815.42646  20067015.1024                   20067011.8014
  -3959424.73047  -3080953.25845  22290665.0944                   22290662.3054
   7512852.86347   5857412.09444  23819127.1724                   23819125.9774
 11  7 24 17 50  0.0000000  0  9G06G16G23G03G19G08G13G07G10
  -6149204.58647  -4782084.75445  22461255.9224                   22461254.1564
   7518335.66847   5885334.12144  22975944.9384                   22975942.5124
 -15535099.82448 -12082896.35246  20329789.0474                   20329784.1524
 -14090325.24648 -10968556.20746  20893880.1414                   20893877.8134
  -8015584.98448  -6234574.80546  21286637.5784                   21286633.1954
  11800880.26246   9204772.60943  24344512.2194                   24344511.6484
 -18551244.44548 -14449512.46147  20057564.7894                   20057561.4654
  -4051549.77347  -3152738.98045  22273134.2814                   22273131.9224
   7486873.05146   5837168.07044  23814183.1484                   23814181.9184
 11  7 24 17 50 30.0000000  0  9G06G16G23G03G19G08G13G07G10
  -6131392.10547  -4768204.92245  22464645.3134                   22464643.2384
   7574203.48047   5928867.43044  22986575.9694                   22986573.3284
 -15522118.17248 -12072780.81246  20332259.6564                   20332254.3914
 -14098020.66048 -10974552.65646  20892415.4064                   20892413.0474
  -8096334.65647  -6297496.61746  21271271.3834                   21271267.1644
  11697904.18047   9124531.55943  24324917.2194                   24324916.2544
 -18600350.09048 -14487776.60547  20048220.5164                   20048216.9734
  -4143639.66047  -3224497.32445  22255609.9694                   22255607.6414
   7461370.78546   5817296.16444  23809330.1094                   23809329.0634
 11  7 24 17 51  0.0000000  0  9G06G16G23G03G19G08G13G07G10
  -6113092.67247  -4753945.64145  22468127.7344                   22468125.5664
   7630127.05147   5972444.19544  22997217.9924                   22997215.6454
 -15508595.85548 -12062243.96946  20334832.6724                   20334827.5904
 -14105097.46948 -10980067.07046  20891068.4224                   20891066.3014
  -8176557.75448  -6360008.10946  21256005.5554                   21256001.1604
  11594872.28946   9044247.05143  24305310.6024                   24305310.1334
 -18648896.76248 -14525605.18746  20038982.3524                   20038979.0084
  -4235692.08247  -3296226.46545  22238092.9224                   22238090.6294
   7436346.67247   5797796.86344  23804568.3284                   23804567.2934
 11  7 24 17 51 30.0000000  0  9G06G16G23G03G19G08G13G07G10
  -6094310.57047  -4739310.27345  22471701.7584                   22471699.8164
   7686101.94147   6016060.94944  23007869.6884                   23007866.9804
 -15494536.62948 -12051288.75446  20337507.9774                   20337503.1174
 -14111559.18748 -10985102.19946  20889838.9924                   20889837.0314
  -8256254.66848  -6422109.58246  21240839.8594                   21240835.7734
  11491781.98446   8963917.00443  24285692.7664                   24285691.7854
 -18696885.94148 -14562999.36346  20029850.1024                   20029846.7424
  -4327708.68447  -3367927.68445  22220582.7584                   22220579.9844
   7411796.77747   5778667.03144  23799897.3594                   23799895.8094
 11  7 24 17 52  0.0000000  0  9G06G16G23G03G19G08G13G07G10
  -6075050.37147  -4724302.35545  22475366.7814                   22475365.2544
   7742123.12147   6059713.77344  23018530.4224                   23018528.0784
 -15479944.35548 -12039918.18446  20340284.8834                   20340279.9144
 -14117409.50447 -10989660.90246  20888726.1954                   20888723.5044
  -8335425.96948  -6483801.49246  21225773.5704                   21225769.5664
  11388630.30146   8883539.12143  24266063.9614                   24266062.7074
 -18744319.10548 -14599960.27746  20020824.1484                   20020820.6454
  -4419692.03147  -3439603.00445  22203079.0004                   22203076.6374
   7387716.77747   5759903.37544  23795314.5634                   23795313.2734
 11  7 24 17 52 30.0000000  0  9G06G16G23G03G19G08G13G07G10
  -6055314.63747  -4708923.87945  22479122.2894                   22479120.2274
   7798187.65646   6103400.37944  23029199.3204                   23029196.0234
 -15464821.08248 -12028133.84846  20343162.7274                   20343158.1374
 -14122650.68747 -10993744.96146  20887728.3594                   20887726.2624
  -8414070.73848  -6545083.10946  21210808.2034                   21210804.0594
  11285416.39146   8803112.77343  24246422.6334                   24246421.3164
 -18791196.25848 -14636487.93047  20011903.7894                   20011900.2424
  -4511642.54347  -3511252.73845  22185581.4304                   22185578.7704
   7364104.22347   5741503.96544  23790821.5234                   23790820.6294
 11  7 24 17 53  0.0000000  0  9G06G16G23G03G19G08G13G07G10
  -6035102.80947  -4693174.42245  22482968.5164                   22482966.6684
   7854295.98447   6147121.11344  23039876.4454                   23039873.1524
 -15449165.39148 -12015934.62946  20346141.7274                   20346137.2814
 -14127281.19547 -10997353.16046  20886847.4534                   20886845.1564
  -8492184.20347  -6605950.72746  21195943.5234                   21195939.6564
  11182142.40646   8722639.57043  24226770.4384                   24226768.6724
 -18837513.32448 -14672579.16047  20003089.7814                   20003086.3754
  -4603557.17647  -3582874.52045  22168090.4844                   22168087.8244
   7340960.82047   5723470.10544  23786417.7344                   23786415.9924
